[[{"header":{"parameterUnit":"m.s-1","parameterCategory":1,"la1":30.6,"la2":29.2853,"lo1":-89.7004,"lo2":-87.6739,"dy":0.0162,"dx":0.0183,"nx":112,"ny":82,"refTime":"2023-07-26T06:00:00:Z","depth":0,"parameterNumber":2,"parameterNumberName":"U-component_of_WINDS"},"data":[0.0,0.0,0.0,0.0,0.0,0.0,0.0,0.0,0.0,0.0,0.0,0.0,0.0,0.0,0.0,0.0,0.0,0.0,0.0,0.0,0.0,0.0,0.0,0.0,0.0,0.0,0.0,0.0,0.0,0.0,0.0,0.0,0.0,0.0,0.0,0.0,0.0,0.0,0.0,0.0,0.0,0.0,0.0,0.0,0.0,0.0,0.0,0.0,0.0,0.0,0.0,0.0,0.0,0.0,0.0,0.0,0.0,0.0,0.0,0.0,0.0,0.0,0.0,0.0,0.0,0.0,0.0,0.0,0.0,0.0,0.0,0.0,0.0,0.0,0.0,0.0,0.0,0.0,0.0,0.0,0.0,0.0,0.0,0.0,0.0,0.0,0.0,0.0,0.0,0.0,0.3585,0.3585,0.3585,0.3588,0.3596,0.2691,0.1456,0.0112,0.0,0.0,0.0,0.0,0.0,0.0,0.0,0.0,0.0,0.0,0.0,0.0,0.0,0.0,0.0,0.0,0.0,0.0,0.0,0.0,0.0,0.0,0.0,0.0,0.0,0.0,0.0,0.0,0.0,0.0,0.0,0.0,0.0,0.0,0.0,0.0,0.0,0.0,0.0,0.0,0.0,0.0,0.0,0.0,0.0,0.0,0.0,0.0,0.0,0.0,0.0,0.0,0.0,0.0,0.0,0.0,0.0,0.0,0.0,0.0,0.0,0.0,0.0,0.0,0.0,0.0,0.0,0.0,0.0,0.0,0.0,0.0,0.0,0.0,0.0,0.0,0.0,0.0,0.0,0.0,0.0,0.0,0.0,0.0,0.0,0.0,0.0,0.0,0.0,0.0,0.0,0.0,0.0,0.0,0.0,0.0,0.0,0.0,0.0,0.0,0.0,0.0,0.0,0.0,0.3585,0.3585,0.3585,0.3588,0.3596,0.3434,0.2361,0.0168,0.0,0.0,0.0,0.0,0.0,0.0,0.0,0.0,0.0,0.0,0.0,0.0,0.0,0.0,0.0,0.0,0.0,0.0,0.0,0.0,0.0,0.0,0.0,0.0,0.0,0.0,0.0,0.0,0.0,0.0,0.0,0.0,0.0,0.0,0.0,0.0,0.0,0.0,0.0,0.0,0.0,0.0,0.0,0.0,0.0,0.0,0.0,0.0,0.0,0.0,0.0,0.0,0.0,0.0,0.0,0.0,0.0,0.0,0.0,0.0,0.0,0.0,0.0,0.0,0.0,0.0,0.0,0.0,0.0,0.0,0.0,0.0,0.0,0.0,0.0,0.0,0.0,0.0,0.0,0.0,0.0,0.0,0.0,0.0,0.0,0.0,0.0,0.0,0.0,0.0,0.0,0.0,0.0,0.0,0.0,0.0,0.0,0.0,0.0,0.0,0.0,0.0,0.0,0.3776,0.3776,0.3722,0.3722,0.3698,0.3585,0.3585,0.3154,0.2024,0.0718,0.0,0.0,0.0,0.0,0.0,0.0,0.0,0.0,0.0,0.0,0.0,0.0,0.0,0.0,0.0,0.0,0.0,0.0,0.0,0.0,0.0,0.0,0.0,0.0,0.0,0.0,0.0,0.0,0.0,0.0,0.0,0.0,0.0,0.0,0.0,0.0,0.0,0.0,0.0,0.0,0.0,0.0,0.0,0.0,0.0,0.0,0.0,0.0,0.0,0.0,0.0,0.0,0.0,0.0,0.0,0.0,0.0,0.0,0.0,0.0,0.0,0.0,0.0,0.0,0.0,0.0,0.0,0.0,0.0,0.0,0.0,0.0,0.0,0.0,0.0,0.0,0.0,0.0,0.0,0.0,0.0,0.0,0.0,0.0,0.0,0.0,0.0,0.0,0.0,0.0,0.0,0.0,0.0,0.0,0.0,0.0,0.0,0.0,0.0,0.0,0.0,0.0,0.3875,0.3878,0.3822,0.3763,0.3732,0.3589,0.3102,0.3012,0.3585,0.1884,0.0,0.0,0.0,0.0,0.0,0.0,0.0,0.0,0.0,0.0,0.0,0.0,0.0,0.0,0.0,0.0,0.0,0.0,0.0,0.0,0.0,0.0,0.0,0.0,0.0,0.0,0.0,0.0,0.0,0.0,0.0,0.0,0.0,0.0,0.0,0.0,0.0,0.0,0.0,0.0,0.0,0.0,0.0,0.0,0.0,0.0,0.0,0.0,0.0,0.0,0.0,0.0,0.0,0.0,0.0,0.0,0.0,0.0,0.0,0.0,0.0,0.0,0.0,0.0,0.0,0.0,0.0,0.0,0.0,0.0,0.0,0.0,0.0,0.0,0.0,0.0,0.0,0.0,0.0,0.0,0.0,0.0,0.0,0.0,0.0,0.0,0.0,0.0,0.0,0.0,0.0,0.0,0.0,0.0,0.0,0.0,0.0,0.0,0.0,0.0,0.0,0.0,0.3819,0.3822,0.3824,0.3707,0.3584,0.3576,0.1537,0.123,0.3454,0.3421,0.0,0.0,0.0,0.0,0.0,0.0,0.0,0.0,0.0,0.0,0.0,0.0,0.0,0.0,0.0,0.0,0.0,0.0,0.0,0.0,0.0,0.0,0.0,0.0,0.0,0.0,0.0,0.0,0.0,0.0,0.0,0.0,0.0,0.0,0.0,0.0,0.0,0.0,0.0,0.0,0.0,0.0,0.0,0.0,0.0,0.0,0.0,0.0,0.0,0.0,0.0,0.0,0.0,0.0,0.0,0.0,0.0,0.0,0.0,0.0,0.0,0.0,0.0,0.0,0.0,0.0,0.0,0.0,0.0,0.0,0.0,0.0,0.0,0.0,0.0,0.0,0.0,0.0,0.0,0.0,0.0,0.0,0.0,0.0,0.0,0.0,0.0,0.0,0.0,0.0,0.0,0.0,0.0,0.0,0.0,0.0,0.0,0.0,0.0,0.0,0.0,0.0,0.4105,0.4113,0.4118,0.4056,0.3309,0.1526,0.0508,0.0378,0.1296,0.0,0.0,0.0,0.0,0.0,0.0,0.0,0.0,0.0,0.0,0.0,0.0,0.0,0.0,0.0,0.0,0.0,0.0,0.0,0.0,0.0,0.0,0.0,0.0,0.0,0.0,0.0,0.0,0.0,0.0,0.0,0.0,0.0,0.0,0.0,0.0,0.0,0.0,0.0,0.0,0.0,0.0,0.0,0.0,0.0,0.0,0.0,0.0,0.0,0.0,0.0,0.0,0.0,0.0,0.0,0.0,0.0,0.0,0.0,0.0,0.0,0.0,0.0,0.0,0.0,0.0,0.0,0.0,0.0,0.0,0.0,0.0,0.0,0.0,0.0,0.0,0.0,0.0,0.0,0.0,0.0,0.0,0.0,0.0,0.0,0.0,0.0,0.0,0.0,0.0,0.0,0.0,0.0,0.0,0.0,0.0,0.0,0.0,0.0,0.0,0.0,0.0,0.4289,0.4311,0.4322,0.4327,0.3511,0.214,0.0197,-0.0,-0.0,-0.0,0.0,0.0,0.0,0.0,0.0,0.0,0.0,0.0,0.0,0.0,0.0,0.0,0.0,0.0,0.0,0.0,0.0,0.0,0.0,0.0,0.0,0.0,0.0,0.0,0.0,0.0,0.0,0.0,0.0,0.0,0.0,0.0,0.0,0.0,0.0,0.0,0.0,0.0,0.0,0.0,0.0,0.0,0.0,0.0,0.0,0.0,0.0,0.0,0.0,0.0,0.0,0.0,0.0,0.0,0.0,0.0,0.0,0.0,0.0,0.0,0.0,0.0,0.0,0.0,0.0,0.0,0.0,0.0,0.0,0.0,0.0,0.0,0.0,0.0,0.0,0.0,0.0,0.0,0.0,0.0,0.0,0.0,0.0,0.0,0.0,0.0,0.0,0.0,0.0,0.0,0.0,0.0,0.0,0.0,0.0,0.0,0.0,0.0,0.0,0.0,0.0,0.0,0.43,0.425,0.426,0.426,0.1684,-0.0,-0.0,-0.0,-0.0,0.0,0.0,0.0,0.0,0.0,0.0,0.0,0.0,0.0,0.0,0.0,0.0,0.0,0.0,0.0,0.0,0.0,0.0,0.0,0.0,0.0,0.0,0.0,0.0,0.0,0.0,0.0,0.0,0.0,0.0,0.0,0.0,0.0,0.0,0.0,0.0,0.0,0.0,0.0,0.0,0.0,0.0,0.0,0.0,0.0,0.0,0.0,0.0,0.0,0.0,0.0,0.0,0.0,0.0,0.0,0.0,0.0,0.0,0.0,0.0,0.0,0.0,0.0,0.0,0.0,0.0,0.0,0.0,0.0,0.0,0.0,0.0,0.0,0.0,0.0,0.0,0.0,0.0,0.0,0.0,0.0,0.0,0.0,0.0,0.0,0.0,0.0,0.0,0.0,0.0,0.0,0.0,0.0,0.0,0.0,0.0,0.0,0.0,0.0,0.0,0.0,0.0,0.0,0.2885,0.1883,0.128,0.128,0.0539,-0.0,-0.0,-0.0,-0.0,-0.0,0.0,0.0,0.0,0.0,0.0,0.0,0.0,0.0,0.0,0.0,0.0,0.0,0.0,0.0,0.0,0.0,0.0,0.0,0.0,0.0,0.0,0.0,0.0,0.0,0.0,0.0,0.0,0.0,0.0,0.0,0.0,0.0,0.0,0.0,0.0,0.0,0.0,0.0,0.0,0.0,0.0,0.0,0.0,0.0,0.0,0.0,0.0,0.0,0.0,0.0,0.0,0.0,0.0,0.0,0.0,0.0,0.0,0.0,0.0,0.0,0.0,0.0,0.0,0.0,0.0,0.0,0.0,0.0,0.0,0.0,0.0,0.0,0.0,0.0,0.0,0.0,0.0,0.0,0.0,0.0,0.0,0.0,0.0,0.0,0.0,0.0,0.0,0.0,0.0,0.0,0.0,0.0,0.0,0.0,0.0,0.0,0.0,0.0,0.0,0.0,0.0,0.0,0.3096,0.1212,-0.0,-0.0,-0.0,-0.0,-0.0,-0.0,-0.0,-0.0,0.0,0.0,0.0,0.0,0.0,0.0,0.0,0.0,0.0,0.0,0.0,0.0,0.0,0.0,0.0,0.0,0.0,0.0,0.0,0.0,0.0,0.0,0.0,0.0,0.0,0.0,0.0,0.0,0.0,0.0,0.0,0.0,0.0,0.0,0.0,0.0,0.0,0.0,0.0,0.0,0.0,0.0,0.0,0.0,0.0,0.0,0.0,0.0,0.0,0.0,0.0,0.0,0.0,0.0,0.0,0.0,0.0,0.0,0.0,0.0,0.0,0.0,0.0,0.0,0.0,0.0,0.0,0.0,0.0,0.0,0.0,0.0,0.0,0.0,0.0,0.0,0.0,0.0,0.0,0.0,0.0,0.0,0.0,0.0,0.0,0.0,0.0,0.0,0.0,0.0,0.0,0.0,0.0,0.0,0.0,0.0,0.0,0.0,0.0,0.0,0.0,0.0,0.4327,0.1753,-0.0,-0.0,-0.0,-0.0,-0.0,-0.0,-0.0,-0.0,0.0,0.0,0.0,0.0,0.0,0.0,0.0,0.0,0.0,0.0,0.0,0.0,0.0,0.0,0.0,0.0,0.0,0.0,0.0,0.0,0.0,0.0,0.0,0.0,0.0,0.0,0.0,0.0,0.0,0.0,0.0,0.0,0.0,0.0,0.0,0.0,0.0,0.0,0.0,0.0,0.0,0.0,0.0,0.0,0.0,0.0,0.0,0.0,0.0,0.0,0.0,0.0,0.0,0.0,0.0,0.0,0.0,0.0,0.0,0.0,0.2893,0.3263,0.0,0.0,0.0,0.0,0.0,0.0,0.0,0.0,0.0,0.0,0.0,0.0,0.0,0.0,0.0,0.0,0.0,0.0,0.0,0.0,0.0,0.0,0.0,0.0,0.0,0.0,0.0,0.0,0.0,0.0,0.0,0.0,0.0,0.0,0.0,0.0,0.0,0.0,0.0,0.0,0.4327,0.1753,-0.0,-0.0,-0.0,-0.0,-0.0,-0.0,-0.0,-0.0,-0.0,0.0,0.0,0.0,0.0,0.0,0.0,0.0,0.0,0.0,0.0,0.0,0.0,0.0,0.0,0.0,0.0,0.0,0.0,0.0,0.0,0.0,0.0,0.0,0.0,0.0,0.0,0.0,0.0,0.0,0.0,0.0,0.0,0.0,0.0,0.0,0.0,0.0,0.0,0.0,0.0,0.0,0.0,0.0,0.0,0.0,0.0,0.0,0.0,0.0,0.0,0.0,0.0,0.0,0.0,0.0,0.0,0.0,0.0,0.0,0.2871,0.3456,0.0,0.0,0.0,0.0,0.0,0.0,0.0,0.0,0.0,0.0,0.0,0.0,0.0,0.0,0.0,0.0,0.0,0.0,0.0,0.0,0.0,0.0,0.0,0.0,0.0,0.0,0.0,0.0,0.0,0.0,0.0,0.0,0.0,0.0,0.0,0.0,0.0,0.0,0.0,0.0,0.2382,0.091,-0.0,-0.0,-0.0,-0.0,-0.0,-0.0,-0.0,-0.0,-0.0,0.0,0.0,0.0,0.0,0.0,0.0,0.0,0.0,0.0,0.0,0.0,0.0,0.0,0.0,0.0,0.0,0.0,0.0,0.0,0.0,0.0,0.0,0.0,0.0,0.0,0.0,0.0,0.0,0.0,0.0,0.0,0.0,0.0,0.0,0.0,0.0,0.0,0.0,0.0,0.0,0.0,0.0,0.0,0.0,0.0,0.0,0.0,0.0,0.0,0.0,0.0,0.0,0.0,0.2357,0.166,0.1296,0.1159,0.109,0.1221,0.2599,0.3297,0.3578,0.3319,0.0,0.0,0.0,0.0,0.0,0.0,0.0,0.0,0.0,0.0,0.0,0.0,0.0,0.0,0.0,0.0,0.0,0.0,0.0,0.0,0.0,0.0,0.3897,0.3904,0.3922,0.4001,0.4268,0.0,0.0,0.0,0.0,0.0,0.0,0.0,0.0,0.0,0.0,0.0,0.0291,-0.0,-0.0,-0.0,-0.0,-0.0,-0.0,-0.0,-0.0,-0.0,-0.0,-0.0,0.0,0.0,0.0,0.0,0.0,0.0,0.0,0.0,0.0,0.0,0.0,0.0,0.0,0.0,0.0,0.0,0.0,0.0,0.0,0.0,0.0,0.0,0.0,0.0,0.0,0.0,0.0,0.0,0.0,0.0,0.0,0.0,0.4445,0.4284,0.0,0.0,0.0,0.0,0.0,0.0,0.0,0.0,0.0,0.0,0.0,0.0,0.0,0.2257,0.2257,0.1924,0.2291,0.3269,0.3689,0.2606,0.0216,0.0793,0.0433,-0.0648,0.1074,0.0,0.2324,0.2323,0.0,0.0,0.0,0.0,0.0,0.0,0.0,0.0,0.0,0.0,0.0,0.0,0.0,0.0,0.0,0.0,0.0,0.0,0.0,0.0,0.0,0.0,0.2415,0.2417,0.2393,0.2715,0.4057,0.3285,0.2364,0.2423,0.3416,0.4292,0.0,0.0,0.0,0.0,0.0,0.0,0.0073,-0.0,-0.0,-0.0,-0.0,-0.0,-0.0,-0.0,-0.0,-0.0,-0.0,-0.0,-0.0,-0.0,0.0,0.0,0.0,0.0,0.0,0.0,0.0,0.0,0.0,0.0,0.0,0.0,0.0,0.0,0.0,0.0,0.0,0.0,0.0,0.0,0.0,0.0,0.0,0.0,0.0,0.0,0.0,0.0,0.0,0.4696,0.455,0.4311,0.418,0.3997,0.0,0.0,0.0,0.0,0.0,0.0,0.0,0.0,0.0,0.3864,0.315,0.2149,0.0914,0.0773,0.092,0.1433,0.172,0.1225,-0.0,0.0364,-0.0073,-0.1021,0.0146,0.0791,0.0914,0.0914,0.1196,0.1759,0.0,0.0,0.0,0.0,0.3802,0.3093,0.3093,0.3657,0.4434,0.4434,0.0,0.0,0.0,0.0,0.0,0.0,0.0,0.4302,0.4305,0.3811,0.2959,0.1336,0.149,0.2509,0.3958,0.3921,0.3043,0.1285,0.2867,0.4472,0.4307,0.4294,0.0,0.0,0.0,-0.0,-0.0,-0.0,-0.0,-0.0,-0.0,-0.0,-0.0,-0.0,-0.0,-0.0,-0.0,-0.0,-0.0,-0.0,-0.0,0.0,0.0,0.0,0.0,0.0,0.0,0.0,0.0,0.0,0.0,0.0,0.0,0.0,0.0,0.0,0.0,0.0,0.0,0.0,0.0,0.0,0.0,0.0,0.0,0.0,0.0,0.0,0.0,0.4628,0.4528,0.4341,0.4281,0.4156,0.0,0.0,0.0,0.0,0.0,0.0,0.4272,0.3231,0.2844,0.3191,0.2694,0.1644,-0.0,-0.0,-0.0,-0.0,-0.0,-0.0,-0.0,-0.0,-0.0297,-0.0818,-0.0223,-0.0,-0.0,-0.0,-0.0,0.0073,0.1165,0.2257,0.3283,0.4019,0.3576,0.2551,0.182,0.284,0.4525,0.4522,0.4662,0.4729,0.4656,0.0,0.0,0.0,0.0,0.4315,0.4322,0.3732,0.2628,0.051,0.0806,0.1842,0.2952,0.3339,0.3048,0.1548,0.2504,0.3397,0.3202,0.3176,0.0,0.0306,-0.0,-0.0,-0.0,-0.0,-0.0,-0.0,-0.0,-0.0,-0.0,-0.0,-0.0,-0.0,-0.0,-0.0,-0.0,-0.0,-0.0,-0.0,0.0,0.0,0.0,0.0,0.0,0.0,0.0,0.0,0.0,0.0,0.0,0.0,0.0,0.0,0.0,0.0,0.0,0.0,0.0,0.0,0.0,0.0,0.0,0.0,0.0,0.0,0.0,0.0,0.0,0.4607,0.4411,0.0,0.0,0.0,0.0,0.2294,0.2232,0.2827,0.4227,0.4232,0.2985,0.0291,0.0145,0.0073,-0.0,-0.0,-0.0,-0.0,-0.0,-0.0,-0.0,-0.0,-0.0,-0.0078,-0.0,-0.0,-0.0,-0.0,-0.0,-0.0,0.0073,0.0146,0.0583,0.3289,0.4247,0.3805,0.102,0.2115,0.4692,0.4683,0.4748,0.474,0.4589,0.4517,0.0,0.0,0.321,0.4322,0.4322,0.2262,0.0146,-0.0,0.0074,0.0151,0.0227,0.0231,0.1164,0.4192,0.227,0.0228,0.0234,0.0,0.0157,-0.0,-0.0,-0.0,-0.0,-0.0,-0.0,-0.0,-0.0,-0.0,-0.0,-0.0,-0.0,-0.0,-0.0,-0.0,-0.0,-0.0,-0.0,-0.0,-0.0,0.0,0.0,0.0,0.0,0.0,0.0,0.0,0.0,0.0,0.0,0.0,0.0,0.0,0.0,0.0,0.0,0.0,0.0,0.0,0.0,0.0,0.0,0.0,0.0,0.0,0.0,0.0,0.0,0.4439,0.4375,0.0,0.2958,0.3735,0.4067,0.3524,0.1796,0.101,0.1531,0.1531,0.1028,-0.0,-0.0,-0.0,-0.0,-0.0,-0.0,-0.0,-0.0,-0.0,-0.0,-0.0,-0.0,-0.0,-0.0,-0.0,-0.0,-0.0,-0.0,-0.0,-0.0,-0.0,0.0153,0.1148,0.1531,0.1378,0.0383,0.0764,0.1835,0.2903,0.4051,0.4901,0.4822,0.4828,0.4678,0.4139,0.2757,0.1531,0.1531,0.0765,-0.0,-0.0,-0.0,-0.0,-0.0,-0.0,0.0391,0.1554,0.256,0.2565,0.0392,-0.0,-0.0,-0.0,-0.0,-0.0,-0.0,-0.0,-0.0,-0.0,-0.0,-0.0,-0.0,-0.0,-0.0,-0.0,-0.0,-0.0,-0.0,-0.0,-0.0,-0.0,-0.0,-0.0,0.0,0.0,0.0,0.0,0.0,0.0,0.0,0.0,0.0,0.0,0.0,0.0,0.0,0.0,0.0,0.0,0.0,0.0,0.0,0.0,0.0,0.0,0.0,0.0,0.0,0.4271,0.4024,0.3617,0.3998,0.3908,0.2908,0.2844,0.2879,0.288,0.1107,-0.0,-0.0,-0.0,-0.0,-0.0,-0.0,-0.0,-0.0,-0.0,-0.0,-0.0,-0.0,-0.0,-0.0,-0.0,-0.0,-0.0,-0.0,-0.0,-0.0,-0.0,-0.0,-0.0,-0.0,-0.0,-0.0,-0.0,-0.0,-0.0,-0.0,-0.0,0.0161,0.1283,0.2407,0.3534,0.4671,0.4999,0.4761,0.3624,0.1689,-0.0,-0.0,-0.0,-0.0,-0.0,-0.0,-0.0,-0.0,-0.0,-0.0,-0.0,0.1805,0.2592,0.0393,-0.0,-0.0,-0.0,-0.0,-0.0,-0.0,-0.0,0.0079,0.0393,0.0157,-0.0,-0.0,-0.0,0.0157,0.0393,0.0157,-0.0,-0.0,-0.0,-0.0,-0.0,-0.0,-0.0,-0.0,0.0,0.0,0.0,0.0,0.0,0.0,0.0,0.0,0.0,0.0,0.0,0.0,0.0,0.0,0.0,0.0,0.0,0.0,0.0,0.0,0.0,0.0,0.0,0.3504,0.3307,0.2872,0.21,0.3307,0.4176,0.4179,0.1606,-0.0,-0.0,-0.0,-0.0,-0.0,-0.0,-0.0,-0.0,-0.0,-0.0,-0.0,-0.0,-0.0,-0.0,-0.0,-0.0,-0.0,-0.0,-0.0,-0.0,-0.0,-0.0,-0.0,-0.0,-0.0,-0.0,-0.0,-0.0,-0.0,-0.0,0.0084,-0.0,-0.0,-0.0,-0.0,-0.0,-0.0,0.0588,0.3876,0.4898,0.4219,0.0926,-0.0,-0.0,-0.0,-0.0,-0.0,-0.0,-0.0,0.0081,0.0081,-0.0,-0.0,-0.0,-0.0,-0.0,-0.0,-0.0,-0.0,-0.0,0.0079,0.0,-0.0,-0.0,0.0314,0.1178,0.055,-0.0,-0.0,-0.0,0.0393,0.1257,0.0471,-0.0,-0.0,-0.0,-0.0,-0.0,-0.0,-0.0,-0.0,0.0,0.0,0.0,0.0,0.0,0.0,0.0,0.0,0.0,0.0,0.0,0.0,0.0,0.0,0.0,0.0,0.0,0.0,0.0,0.0,0.0,0.2564,0.2478,0.2572,0.2512,0.1976,0.0719,0.0943,0.1175,0.1197,0.0449,-0.0,-0.0,-0.0,-0.0,-0.0,-0.0,-0.0,-0.0,-0.0,-0.0,-0.0,-0.0,-0.0,-0.0,-0.0,-0.0,-0.0,-0.0,-0.0,-0.0,-0.0,-0.0,-0.0,-0.0,0.0441,0.0967,0.0256,-0.0,0.0084,0.0758,0.1011,0.0927,0.0253,0.0253,0.059,0.0926,0.0757,0.0673,0.1599,0.1853,0.1684,0.0758,0.0253,-0.0,-0.0,-0.0,-0.0,-0.0,0.0503,0.1002,0.1002,0.0747,0.0496,0.0496,0.0496,0.0409,0.0079,-0.0,0.0236,0.0864,0.0943,0.0786,0.0471,0.0471,0.055,0.0786,0.0864,0.0786,0.0471,0.0471,0.055,0.0786,0.0864,0.0786,0.0471,0.0471,0.0313,-0.0,-0.0,-0.0,0.0,0.0,0.0,0.0,0.0,0.0,0.0,0.0,0.0,0.0,0.0,0.0,0.0,0.0,0.0,0.0,0.0,0.0,0.0,0.0,0.0,0.0,0.1965,0.1746,0.1812,0.174,0.1384,0.037,0.0075,-0.0,-0.0,-0.0,-0.0,-0.0,-0.0,-0.0,-0.0,-0.0,-0.0,-0.0,-0.0,-0.0,-0.0,-0.0,-0.0,-0.0,-0.0,-0.0,-0.0,-0.0,0.0276,0.0645,0.0645,0.0553,0.0369,0.0369,0.0645,0.11,0.0,0.0,0.0,0.0,0.1211,0.1298,0.0778,0.0605,0.0778,0.1211,0.1211,0.0952,0.0952,0.0952,0.0952,0.0952,0.0778,0.0519,0.0346,0.0259,0.0259,0.0259,0.0688,0.1196,0.1367,0.1188,0.1011,0.1011,0.1011,0.0,0.065,0.0401,0.0399,0.0957,0.1186,0.1178,0.0943,0.0864,0.0864,0.0864,0.11,0.1178,0.0943,0.0864,0.0,0.0,0.0,0.1178,0.0943,0.0864,0.0,0.0,0.0,0.0156,-0.0,-0.0,0.0,0.0,-0.0,-0.0,0.0,0.0,0.0,0.0,0.0,0.0,0.0,0.0,0.0,0.0,0.0,0.0,0.0,0.0,0.0,0.0,0.1616,0.1186,0.1213,0.1219,0.1068,0.0684,0.0389,0.0158,0.0079,-0.0,-0.0,-0.0,-0.0,-0.0,-0.0,-0.0,0.0,0.0,0.0,0.009,0.0186,0.0186,0.0187,0.0095,0.0095,0.0095,0.0095,0.0095,0.0572,0.1526,0.1622,0.1335,0.0858,0.0858,0.0858,0.095,0.1283,0.1174,0.0813,0.0813,0.1084,0.1445,0.1445,0.0,0.0,0.1264,0.1445,0.1445,0.1445,0.1445,0.1444,0.1441,0.144,0.126,0.0897,0.0807,0.0807,0.0807,0.0796,0.0874,0.1311,0.1377,0.1358,0.1358,0.1358,0.1358,0.1358,0.0997,0.0654,0.0654,0.1041,0.1262,0.1262,0.1338,0.1335,0.1335,0.1335,0.0,0.1335,0.1335,0.1335,0.1335,0.1335,0.1335,0.1335,0.1335,0.11,0.0707,0.0707,0.0471,0.0157,0.0079,0.0078,-0.0,-0.0,-0.0,0.0,0.0,0.0,0.0,0.0,0.0,0.0,0.0,0.0,0.0,0.0,0.0,0.0,0.0,0.0,0.1549,0.1394,0.132,0.1247,0.1269,0.1276,0.1173,0.1116,0.089,0.0566,0.0248,-0.0,-0.0,-0.0,-0.0,-0.0,-0.0,-0.0,-0.0,-0.0,0.0376,0.1328,0.1328,0.1045,0.0668,0.0668,0.0,0.0668,0.0668,0.0763,0.0954,0.1431,0.1526,0.1431,0.1431,0.1431,0.143,0.1513,0.1414,0.132,0.1414,0.1508,0.1508,0.1508,0.1414,0.1414,0.1508,0.1508,0.1508,0.1508,0.1508,0.0,0.1479,0.1472,0.1375,0.1262,0.1256,0.1256,0.1256,0.1252,0.1249,0.1338,0.1423,0.1418,0.1418,0.1418,0.1418,0.1418,0.1288,0.1256,0.1256,0.1313,0.1294,0.1294,0.1272,0.1335,0.1335,0.1335,0.1335,0.1335,0.1335,0.1335,0.1335,0.1335,0.1335,0.1335,0.1335,0.1257,0.1178,0.1178,0.11,0.1021,0.0707,0.0313,-0.0,-0.0,-0.0,0.0,0.0,0.0,0.0,0.0,0.0,0.0,0.0,0.0,0.0,0.0,0.2772,0.1927,0.0,0.1805,0.1335,0.1335,0.1262,0.1278,0.1293,0.1297,0.1281,0.1307,0.1242,0.1077,0.0845,0.06,0.0343,0.0353,0.0359,0.0359,0.037,0.0376,0.0376,0.0379,0.067,0.1162,0.1452,0.1459,0.1178,0.1178,0.1178,0.1178,0.1178,0.1178,0.1178,0.1473,0.1571,0.1571,0.1571,0.1571,0.1571,0.1571,0.1553,0.1526,0.1526,0.1526,0.1526,0.1526,0.1526,0.1526,0.1526,0.1526,0.1526,0.1526,0.1526,0.1523,0.1508,0.1503,0.1406,0.1485,0.148,0.148,0.148,0.148,0.148,0.148,0.148,0.1476,0.1461,0.1458,0.1453,0.1438,0.1411,0.1386,0.1371,0.1344,0.1325,0.1325,0.1299,0.128,0.128,0.1266,0.1335,0.1335,0.1335,0.1335,0.1335,0.1335,0.1335,0.1335,0.1335,0.1335,0.1335,0.1335,0.1335,0.1335,0.11,0.0864,0.0628,0.0388,0.023,0.0,0.0,0.0,0.0,0.0,0.0,0.0,0.3194,0.2679,0.2344,0.2276,0.2041,0.1414,0.1335,0.1335,0.1335,0.1262,0.1275,0.1299,0.1312,0.132,0.132,0.1341,0.1356,0.1356,0.1389,0.1234,0.0881,0.0912,0.0931,0.0931,0.0949,0.0959,0.0959,0.0962,0.0972,0.0987,0.1383,0.1593,0.1617,0.1617,0.1617,0.1617,0.1617,0.1617,0.1617,0.1617,0.1617,0.1617,0.1617,0.1617,0.1617,0.1617,0.1587,0.1544,0.1544,0.1544,0.1544,0.1544,0.1544,0.1544,0.1544,0.1544,0.1544,0.1544,0.1544,0.1543,0.1536,0.1535,0.1534,0.1528,0.1526,0.1526,0.1526,0.1526,0.1526,0.1526,0.1526,0.1519,0.1494,0.1489,0.148,0.1449,0.1444,0.1434,0.1403,0.1374,0.1356,0.1356,0.133,0.1311,0.1311,0.1284,0.1264,0.1336,0.1335,0.1335,0.1335,0.1335,0.1335,0.1335,0.1335,0.1335,0.1335,0.1335,0.1335,0.1335,0.1335,0.1335,0.1257,0.0943,0.055,0.289,0.2734,0.2402,0.2035,0.1992,0.1869,0.0,0.1564,0.1488,0.1413,0.1414,0.1414,0.1335,0.1335,0.1335,0.1335,0.128,0.1299,0.1302,0.1348,0.138,0.138,0.1383,0.1385,0.1385,0.1437,0.1471,0.1379,0.1408,0.1426,0.1521,0.155,0.1469,0.1469,0.1493,0.1508,0.1511,0.1611,0.1613,0.1617,0.1617,0.1617,0.1617,0.1617,0.1617,0.1617,0.1617,0.1617,0.1617,0.1617,0.1617,0.1617,0.1617,0.1613,0.1607,0.1607,0.1607,0.1607,0.1607,0.1607,0.1607,0.1607,0.1607,0.1607,0.1607,0.1607,0.1601,0.1574,0.1566,0.156,0.1533,0.1526,0.1526,0.1526,0.1526,0.1526,0.1526,0.1526,0.1525,0.1521,0.1521,0.1511,0.148,0.1476,0.1466,0.1435,0.1405,0.1385,0.1385,0.1361,0.1259,0.1259,0.1316,0.1286,0.1338,0.1335,0.1335,0.1335,0.1335,0.1335,0.1335,0.1335,0.1335,0.1335,0.1335,0.1335,0.1335,0.1335,0.1335,0.1335,0.1257,0.0943,0.3325,0.3334,0.3244,0.3013,0.2958,0.2901,0.2434,0.2356,0.2199,0.1726,0.1805,0.1884,0.1414,0.1492,0.1577,0.1361,0.1294,0.1314,0.1349,0.1374,0.1397,0.1414,0.1431,0.1442,0.1442,0.1466,0.1488,0.1506,0.1535,0.1553,0.1553,0.1581,0.1598,0.1598,0.161,0.1617,0.1617,0.1617,0.1617,0.1617,0.1617,0.1617,0.1617,0.1617,0.1617,0.1617,0.1617,0.1617,0.1617,0.1617,0.1617,0.1617,0.1617,0.1617,0.1617,0.1617,0.1617,0.1617,0.1617,0.1617,0.1617,0.1617,0.1617,0.1617,0.1617,0.1617,0.1614,0.1601,0.1598,0.1595,0.1582,0.1579,0.1579,0.1579,0.1579,0.1579,0.1579,0.1579,0.1573,0.1556,0.1553,0.1543,0.1513,0.1493,0.1476,0.1463,0.1436,0.1416,0.1416,0.1391,0.1366,0.1265,0.1321,0.1297,0.1285,0.1267,0.1335,0.1335,0.1335,0.1335,0.1335,0.1335,0.1335,0.1335,0.1335,0.1335,0.1335,0.1335,0.1335,0.1335,0.1335,0.1178,0.3646,0.3712,0.3763,0.3606,0.3608,0.3452,0.3061,0.2904,0.2747,0.2195,0.2275,0.2353,0.1727,0.1814,0.1832,0.1541,0.1398,0.1341,0.1384,0.1397,0.1414,0.1444,0.1468,0.1487,0.1504,0.1506,0.1515,0.1537,0.1567,0.1584,0.1584,0.1605,0.1617,0.1617,0.1617,0.1617,0.1617,0.1617,0.1617,0.1617,0.1617,0.1617,0.1617,0.1617,0.1617,0.1617,0.1617,0.1617,0.1617,0.1617,0.1617,0.1617,0.1617,0.1617,0.1617,0.1617,0.1617,0.1617,0.1617,0.1617,0.1617,0.1617,0.1617,0.1617,0.1617,0.1617,0.1617,0.1617,0.1617,0.1617,0.1617,0.1617,0.1617,0.1617,0.1617,0.1617,0.1617,0.1617,0.161,0.1588,0.1584,0.1575,0.1544,0.1521,0.15,0.1483,0.1462,0.1444,0.1436,0.1416,0.1391,0.1363,0.134,0.1324,0.1316,0.1287,0.127,0.127,0.1262,0.1335,0.1335,0.1335,0.1335,0.1335,0.1335,0.1335,0.1335,0.1335,0.1335,0.1335,0.1335,0.1335,0.3759,0.3761,0.3686,0.3219,0.3141,0.2984,0.2589,0.2511,0.2511,0.251,0.2511,0.2511,0.2431,0.2158,0.1867,0.1868,0.1602,0.1388,0.139,0.1415,0.1445,0.1476,0.148,0.1504,0.1563,0.1568,0.1569,0.157,0.1598,0.1615,0.1615,0.1616,0.1617,0.1617,0.1617,0.1617,0.1617,0.1617,0.1617,0.1617,0.1617,0.1617,0.1617,0.1617,0.1617,0.1617,0.1617,0.1617,0.1617,0.1617,0.1617,0.1617,0.1617,0.1617,0.1617,0.1617,0.1617,0.1617,0.1617,0.1617,0.1617,0.1617,0.1617,0.1617,0.1617,0.1617,0.1617,0.1617,0.1617,0.1617,0.1617,0.1617,0.1617,0.1617,0.1617,0.1617,0.1617,0.1617,0.1616,0.1615,0.1615,0.1606,0.1575,0.1569,0.1549,0.1489,0.148,0.1469,0.1439,0.1435,0.1423,0.1392,0.1388,0.1376,0.1265,0.1318,0.1301,0.1301,0.1273,0.1335,0.1335,0.1335,0.1335,0.1335,0.1335,0.1335,0.1335,0.1335,0.1335,0.1335,0.1335,0.1335,0.4229,0.4075,0.3923,0.3767,0.3686,0.3528,0.3372,0.3372,0.3294,0.2982,0.3178,0.3212,0.2651,0.2782,0.2838,0.2541,0.2406,0.2269,0.1949,0.1965,0.1809,0.1569,0.1498,0.1527,0.1568,0.1571,0.158,0.16,0.1611,0.1617,0.1617,0.1617,0.1617,0.1617,0.1617,0.1617,0.1617,0.1617,0.1617,0.1617,0.1617,0.1617,0.1617,0.1617,0.1617,0.1617,0.1617,0.1617,0.1617,0.1617,0.1617,0.1617,0.1617,0.1617,0.1617,0.1617,0.1617,0.1617,0.1617,0.1617,0.1617,0.1617,0.1617,0.1617,0.1617,0.1617,0.1617,0.1617,0.1617,0.1617,0.1617,0.1617,0.1617,0.1617,0.1617,0.1617,0.1617,0.1617,0.1617,0.1617,0.1617,0.1613,0.1603,0.1585,0.1551,0.149,0.1463,0.1446,0.1437,0.1436,0.1431,0.1421,0.1402,0.1386,0.1377,0.135,0.1324,0.1304,0.1293,0.1278,0.1336,0.1335,0.1335,0.1335,0.1335,0.1335,0.1335,0.1335,0.1335,0.1335,0.1335,0.1335,0.4384,0.4309,0.4233,0.4233,0.4075,0.3997,0.3919,0.3921,0.3765,0.3452,0.3653,0.3691,0.3129,0.3188,0.326,0.299,0.2851,0.2712,0.2504,0.2333,0.2087,0.1772,0.1609,0.1542,0.1583,0.1588,0.1596,0.1615,0.1617,0.1617,0.1617,0.1617,0.1617,0.1617,0.1617,0.1617,0.1617,0.1617,0.1617,0.1617,0.1617,0.1617,0.1617,0.1617,0.1617,0.1617,0.1617,0.1617,0.1617,0.1617,0.1617,0.1617,0.1617,0.1617,0.1617,0.1617,0.1617,0.1617,0.1617,0.1617,0.1617,0.1617,0.1617,0.1617,0.1617,0.1617,0.1617,0.1617,0.1617,0.1617,0.1617,0.1617,0.1617,0.1617,0.1617,0.1617,0.1617,0.1617,0.1617,0.1617,0.1617,0.1617,0.1617,0.1592,0.1558,0.1519,0.1478,0.1447,0.1437,0.1436,0.1436,0.1436,0.1418,0.1406,0.1406,0.138,0.1354,0.1335,0.1324,0.131,0.129,0.1279,0.1273,0.1273,0.1263,0.1335,0.1335,0.1335,0.1335,0.1335,0.1335,0.1335,0.4462,0.4462,0.4384,0.4384,0.4384,0.4384,0.4155,0.4079,0.4077,0.3841,0.3845,0.3849,0.3849,0.3521,0.3277,0.3352,0.3001,0.2803,0.2949,0.2511,0.2279,0.2276,0.1811,0.1549,0.1609,0.1615,0.1617,0.1617,0.1617,0.1617,0.1617,0.1617,0.1617,0.1617,0.1617,0.1617,0.1617,0.1617,0.1617,0.1617,0.1617,0.1617,0.1617,0.1617,0.1617,0.1617,0.1617,0.1617,0.1617,0.1617,0.1617,0.1617,0.1617,0.1617,0.1617,0.1617,0.1617,0.1617,0.1617,0.1617,0.1617,0.1617,0.1617,0.1617,0.1617,0.1617,0.1617,0.1617,0.1617,0.1617,0.1617,0.1617,0.1617,0.1617,0.1617,0.1617,0.1617,0.1617,0.1617,0.1617,0.1617,0.1617,0.1617,0.1593,0.1573,0.1572,0.1521,0.1472,0.1442,0.1436,0.1436,0.1436,0.1436,0.1436,0.1436,0.1409,0.1392,0.139,0.1365,0.1265,0.1263,0.132,0.1305,0.1305,0.1277,0.1262,0.1262,0.1262,0.1262,0.1262,0.1262,0.1262,0.4859,0.4701,0.4621,0.4621,0.454,0.4384,0.4307,0.4309,0.4309,0.4229,0.4135,0.4107,0.4107,0.394,0.3861,0.3951,0.3898,0.3765,0.3487,0.3318,0.3079,0.2787,0.2268,0.2022,0.2071,0.1803,0.1617,0.1617,0.1617,0.1617,0.1617,0.1617,0.1617,0.1617,0.1617,0.1617,0.1617,0.2019,0.2019,0.1617,0.2019,0.2019,0.1617,0.1617,0.1617,0.1617,0.1617,0.1617,0.1617,0.1617,0.1617,0.1617,0.1617,0.1617,0.1617,0.1617,0.1617,0.1617,0.1617,0.1617,0.1617,0.1617,0.1617,0.1617,0.1617,0.1617,0.1617,0.1617,0.1617,0.1617,0.1617,0.1617,0.1617,0.1617,0.1617,0.1617,0.1617,0.1617,0.1617,0.1617,0.1617,0.1617,0.1617,0.1611,0.1598,0.1575,0.1539,0.1503,0.1473,0.1449,0.1436,0.1436,0.1436,0.1436,0.1436,0.1428,0.1414,0.1391,0.1383,0.137,0.1264,0.1341,0.1337,0.1337,0.1328,0.1325,0.1325,0.1325,0.1325,0.1325,0.1325,0.1325,0.5018,0.4937,0.4859,0.4859,0.4779,0.4621,0.4543,0.4543,0.454,0.4384,0.4277,0.4161,0.4161,0.4044,0.3946,0.4038,0.4087,0.4056,0.3881,0.3746,0.3524,0.3229,0.2637,0.2211,0.2251,0.1897,0.1617,0.1617,0.1617,0.1617,0.1617,0.1617,0.1617,0.1617,0.1818,0.202,0.2323,0.2322,0.222,0.1919,0.2019,0.1918,0.1617,0.1617,0.1617,0.1617,0.1617,0.1617,0.1617,0.1617,0.1717,0.1919,0.1919,0.2121,0.2323,0.2323,0.2323,0.2323,0.2323,0.2323,0.2222,0.1718,0.1617,0.1617,0.1617,0.1617,0.1617,0.1617,0.1617,0.1617,0.1617,0.1617,0.1617,0.1617,0.1617,0.1617,0.1617,0.1617,0.1617,0.1617,0.1617,0.1617,0.1617,0.1617,0.1611,0.1594,0.1566,0.1535,0.1504,0.1463,0.1436,0.1436,0.1436,0.1436,0.1436,0.1436,0.1428,0.1411,0.141,0.1403,0.1387,0.1373,0.1367,0.1367,0.1354,0.1263,0.1263,0.1263,0.1263,0.1263,0.1263,0.1263,0.5018,0.5018,0.5018,0.5018,0.5018,0.4937,0.4779,0.4779,0.4701,0.454,0.4311,0.4157,0.4157,0.3999,0.3872,0.3885,0.3965,0.4055,0.4159,0.3886,0.369,0.3675,0.2916,0.24,0.2536,0.2094,0.1819,0.1819,0.1819,0.1718,0.1617,0.1617,0.1718,0.1819,0.2221,0.2725,0.323,0.2825,0.2522,0.2422,0.202,0.1718,0.1617,0.1617,0.1617,0.1718,0.1718,0.1718,0.1819,0.1819,0.212,0.2522,0.2522,0.2826,0.323,0.323,0.323,0.323,0.323,0.323,0.3029,0.2121,0.1718,0.1718,0.1718,0.1617,0.1617,0.1617,0.1617,0.1617,0.1617,0.1617,0.1617,0.1617,0.1617,0.1617,0.1617,0.1617,0.1617,0.1617,0.1617,0.1617,0.1617,0.1617,0.1617,0.1617,0.1591,0.1562,0.1536,0.1479,0.144,0.1436,0.1436,0.1436,0.1436,0.1436,0.1436,0.1436,0.1436,0.1436,0.1436,0.141,0.1396,0.1396,0.1372,0.1274,0.1274,0.1274,0.1274,0.1274,0.1189,0.1189,0.5018,0.5018,0.5018,0.5018,0.5018,0.5018,0.4937,0.4937,0.4937,0.4937,0.4701,0.4545,0.4387,0.4153,0.4032,0.3885,0.3914,0.3981,0.4151,0.4098,0.414,0.4135,0.3817,0.3526,0.3537,0.3164,0.2928,0.2928,0.2928,0.2524,0.1617,0.2019,0.2423,0.2928,0.3029,0.313,0.323,0.3531,0.3228,0.2422,0.2725,0.2424,0.1617,0.1617,0.1818,0.222,0.222,0.2523,0.2928,0.2928,0.2928,0.3029,0.3029,0.313,0.323,0.323,0.323,0.323,0.323,0.323,0.313,0.3029,0.2624,0.222,0.222,0.1919,0.1617,0.1617,0.1617,0.1617,0.1617,0.1617,0.1617,0.1617,0.1617,0.1617,0.1617,0.1617,0.1617,0.1617,0.1617,0.1617,0.1617,0.1617,0.1617,0.1617,0.1591,0.157,0.1564,0.151,0.1463,0.1438,0.1436,0.1436,0.1436,0.1436,0.1436,0.1436,0.1436,0.1436,0.1436,0.143,0.1427,0.1427,0.1423,0.1421,0.1421,0.1421,0.1421,0.1331,0.0799,0.0888,0.5018,0.5018,0.5018,0.5018,0.5018,0.5018,0.5018,0.5018,0.4937,0.4859,0.4701,0.4465,0.4309,0.4077,0.3936,0.3822,0.3869,0.3946,0.4083,0.4142,0.4204,0.4287,0.3957,0.3765,0.3803,0.3422,0.3196,0.3229,0.323,0.2928,0.2424,0.2725,0.3027,0.3632,0.3632,0.3732,0.4033,0.4033,0.363,0.2826,0.2826,0.2523,0.2019,0.2019,0.2322,0.2826,0.2826,0.2927,0.323,0.323,0.3331,0.3632,0.3632,0.3833,0.4033,0.4033,0.4033,0.4033,0.4033,0.4033,0.4033,0.4033,0.353,0.2826,0.2826,0.2423,0.212,0.2323,0.202,0.1617,0.1919,0.1818,0.1617,0.1617,0.1617,0.1617,0.1617,0.1617,0.1617,0.1617,0.1617,0.1617,0.1617,0.1617,0.1617,0.1617,0.1605,0.159,0.1574,0.1546,0.151,0.1464,0.1444,0.1436,0.1436,0.1436,0.1436,0.1436,0.1436,0.1436,0.1436,0.1436,0.1436,0.1436,0.1436,0.1256,0.0897,0.0897,0.0718,0.0269,-0.0,-0.0,0.4977,0.4996,0.5018,0.5018,0.5018,0.5018,0.5018,0.5018,0.4937,0.4779,0.4543,0.4387,0.4157,0.3999,0.3843,0.3841,0.3824,0.3903,0.3993,0.4085,0.4175,0.4263,0.4006,0.3821,0.3989,0.3684,0.3461,0.3527,0.3531,0.3531,0.3331,0.3331,0.3632,0.4133,0.4133,0.4332,0.4834,0.4332,0.3932,0.3331,0.2925,0.2724,0.2522,0.2522,0.2825,0.3331,0.3331,0.343,0.3531,0.3531,0.3833,0.4133,0.4133,0.4435,0.4834,0.4834,0.4834,0.4834,0.4834,0.4834,0.4834,0.4834,0.4133,0.3331,0.3331,0.3027,0.2623,0.313,0.2625,0.202,0.2422,0.2221,0.1717,0.1617,0.1617,0.1617,0.1617,0.1617,0.1617,0.1617,0.1718,0.1717,0.1617,0.1718,0.1717,0.1617,0.1617,0.1608,0.1584,0.1576,0.1551,0.1496,0.1463,0.1442,0.1436,0.1436,0.1436,0.1436,0.1436,0.1436,0.1436,0.1436,0.1345,0.1166,0.1166,0.0807,0.0179,0.0179,-0.009,-0.0718,-0.0897,-0.0807,0.4852,0.4934,0.5018,0.5018,0.5018,0.5018,0.5018,0.5018,0.4937,0.4779,0.4701,0.4545,0.4157,0.4079,0.3999,0.3841,0.3771,0.3808,0.3899,0.3991,0.4081,0.4173,0.4242,0.4378,0.4468,0.4558,0.4548,0.4628,0.4634,0.4433,0.3932,0.3932,0.4133,0.4734,0.4734,0.4734,0.4834,0.4734,0.4433,0.3932,0.3831,0.3632,0.313,0.313,0.343,0.3932,0.3932,0.4234,0.4634,0.4634,0.4634,0.4734,0.4734,0.4734,0.4834,0.4834,0.4834,0.4834,0.4834,0.4834,0.4834,0.4834,0.4435,0.3932,0.3932,0.3531,0.313,0.323,0.313,0.3029,0.313,0.2725,0.222,0.1718,0.1617,0.1617,0.1617,0.1617,0.1617,0.1617,0.2019,0.2221,0.1718,0.2019,0.212,0.1718,0.1617,0.1615,0.1613,0.1589,0.1559,0.1525,0.1495,0.1466,0.1438,0.1436,0.1436,0.1436,0.1436,0.1436,0.1436,0.1436,0.1076,0.0538,0.0448,0.009,-0.0628,-0.0628,-0.0628,-0.0718,-0.1346,-0.1345,0.4814,0.4868,0.4923,0.4999,0.5018,0.5018,0.5018,0.5018,0.4937,0.4779,0.4621,0.4465,0.4157,0.3999,0.3921,0.3841,0.3763,0.3795,0.3887,0.3977,0.4069,0.4163,0.4279,0.4412,0.4557,0.4606,0.4685,0.4824,0.4834,0.4734,0.4533,0.4433,0.4533,0.4834,0.4834,0.4834,0.4834,0.4834,0.4533,0.4033,0.4033,0.3932,0.3732,0.3732,0.3932,0.4433,0.4433,0.4634,0.4834,0.4834,0.4834,0.4834,0.4834,0.4834,0.4834,0.4834,0.4834,0.4834,0.4834,0.4834,0.4834,0.4834,0.4634,0.4433,0.4433,0.4133,0.3732,0.4033,0.3732,0.323,0.323,0.2524,0.1818,0.1617,0.1617,0.1617,0.1617,0.1617,0.1617,0.1617,0.2019,0.2321,0.212,0.2523,0.2826,0.2625,0.2524,0.2524,0.2524,0.2609,0.2578,0.2528,0.1887,0.1468,0.1438,0.1436,0.1256,0.0807,0.0807,0.0628,0.0179,0.0179,-0.0,-0.0269,-0.0269,-0.0628,-0.1345,-0.1345,-0.1615,-0.2064,-0.2334,-0.2334,0.4994,0.5072,0.5225,0.5319,0.5523,0.5631,0.5321,0.5321,0.5243,0.4854,0.4621,0.4462,0.4311,0.4075,0.3919,0.3841,0.3843,0.3864,0.385,0.3938,0.403,0.4122,0.4208,0.4342,0.4553,0.462,0.4702,0.4824,0.4834,0.4834,0.4834,0.4834,0.4834,0.4834,0.4834,0.4834,0.4834,0.4834,0.4634,0.4234,0.4234,0.4234,0.4234,0.4234,0.4433,0.4834,0.4834,0.4834,0.4834,0.4834,0.4834,0.4834,0.4834,0.4834,0.4834,0.4834,0.4834,0.4834,0.4834,0.4834,0.4834,0.4834,0.4834,0.4834,0.4834,0.4533,0.4334,0.4734,0.4234,0.3632,0.3432,0.2827,0.2222,0.1919,0.1818,0.1818,0.1818,0.1818,0.1919,0.202,0.2523,0.2825,0.2623,0.3128,0.3432,0.323,0.3029,0.3027,0.323,0.3029,0.3007,0.3146,0.2489,0.1957,0.1725,0.144,0.1166,0.0718,0.0269,-0.009,-0.0359,-0.0628,-0.0807,-0.0987,-0.0987,-0.1346,-0.2154,-0.2154,-0.2424,-0.2875,-0.2875,-0.2875,0.5507,0.5789,0.6091,0.6091,0.6806,0.7234,0.6153,0.6083,0.5931,0.5157,0.4851,0.4701,0.4701,0.454,0.4229,0.3841,0.3999,0.4001,0.3843,0.3842,0.3934,0.4026,0.4118,0.4279,0.4547,0.473,0.4832,0.4834,0.4834,0.4834,0.4834,0.4834,0.4834,0.4834,0.4834,0.4834,0.4834,0.4834,0.4834,0.4834,0.4834,0.4834,0.4834,0.4834,0.4834,0.4834,0.4834,0.4834,0.4834,0.4834,0.4834,0.4834,0.4834,0.4834,0.4834,0.4834,0.4834,0.4834,0.4834,0.4834,0.4834,0.4834,0.4834,0.4834,0.4834,0.4834,0.4834,0.4834,0.4834,0.4634,0.4133,0.4033,0.3731,0.2623,0.2422,0.2422,0.2422,0.2422,0.2522,0.313,0.3632,0.3831,0.3331,0.3632,0.3831,0.323,0.2725,0.2623,0.313,0.2725,0.2604,0.3146,0.3237,0.2897,0.2322,0.1543,0.1166,0.1346,0.009,-0.0359,0.0359,-0.0269,-0.1076,-0.1794,-0.1794,-0.2154,-0.2875,-0.2875,-0.2875,-0.2875,-0.2875,-0.2875,0.561,0.5989,0.6399,0.6187,0.6648,0.7163,0.7053,0.7076,0.7003,0.6773,0.6546,0.6395,0.6395,0.6234,0.5767,0.4921,0.4844,0.4691,0.3919,0.3842,0.3932,0.4026,0.4222,0.441,0.4557,0.4679,0.4773,0.483,0.4834,0.4834,0.4834,0.4834,0.4834,0.4834,0.4834,0.4834,0.4834,0.4834,0.4834,0.4834,0.4834,0.4834,0.4834,0.4834,0.4834,0.4834,0.4834,0.4834,0.4834,0.4834,0.4834,0.4834,0.4834,0.4834,0.4834,0.4834,0.4834,0.4834,0.4834,0.4834,0.4834,0.4834,0.4834,0.4834,0.4834,0.4834,0.4834,0.4834,0.4533,0.4234,0.4033,0.3732,0.333,0.3027,0.2927,0.2927,0.2927,0.2927,0.3027,0.313,0.3632,0.3932,0.3732,0.4234,0.4332,0.3831,0.363,0.3429,0.323,0.333,0.3218,0.2498,0.2665,0.2604,0.1857,0.1564,0.0911,-0.0269,-0.0897,-0.1256,-0.1615,-0.1974,-0.2334,-0.2513,-0.2513,-0.2694,-0.2875,-0.2875,-0.2875,-0.2875,-0.2875,-0.2875,0.64,0.6615,0.6996,0.6797,0.7394,0.7973,0.7714,0.7799,0.7851,0.7698,0.7468,0.7314,0.7395,0.7234,0.6765,0.5996,0.5767,0.5538,0.4771,0.4597,0.4537,0.4351,0.436,0.4471,0.4563,0.4655,0.4743,0.4828,0.4834,0.4834,0.4834,0.4834,0.4834,0.4834,0.4834,0.4834,0.4834,0.4834,0.4834,0.4834,0.4834,0.4834,0.4834,0.4834,0.4834,0.4834,0.4834,0.4834,0.0,0.4834,0.4834,0.4834,0.4834,0.4834,0.4834,0.4834,0.4834,0.4834,0.4834,0.4834,0.4834,0.4834,0.4834,0.4834,0.4834,0.4834,0.4834,0.4834,0.4533,0.4334,0.4334,0.4033,0.3732,0.3531,0.3531,0.3531,0.3531,0.3531,0.3531,0.3732,0.4033,0.4334,0.4334,0.4435,0.4433,0.4033,0.3831,0.3531,0.323,0.3328,0.3126,0.2216,0.2193,0.1955,0.1043,0.0746,0.0092,-0.0908,-0.1622,-0.2064,-0.2243,-0.2694,-0.2875,-0.2875,-0.2875,-0.2875,-0.2875,-0.2875,-0.2875,-0.2875,-0.2875,-0.2875,0.0,0.7726,0.7807,0.7822,0.8704,0.9332,0.8304,0.8473,0.0,0.8089,0.7774,0.7693,0.7931,0.7774,0.7536,0.6996,0.6769,0.6465,0.624,0.587,0.5507,0.5087,0.4705,0.4465,0.4563,0.4649,0.4736,0.4826,0.4834,0.4834,0.4834,0.4834,0.4834,0.4834,0.4834,0.4834,0.4834,0.4834,0.4834,0.4834,0.4834,0.4834,0.4834,0.4834,0.4834,0.4834,0.4834,0.4834,0.4834,0.4834,0.4834,0.4834,0.4834,0.4834,0.4834,0.4834,0.4834,0.4834,0.4834,0.4834,0.4834,0.4834,0.4834,0.4834,0.4834,0.4834,0.4834,0.4834,0.4834,0.4834,0.4834,0.4834,0.4634,0.4133,0.4033,0.4033,0.4033,0.4033,0.4234,0.4734,0.4834,0.4834,0.4834,0.4433,0.4033,0.3934,0.3531,0.313,0.3029,0.2623,0.2219,0.2118,0.1714,0.1001,-0.0098,-0.0758,-0.1019,-0.0925,-0.2092,-0.2517,-0.1885,-0.2513,-0.2875,-0.2875,-0.2875,-0.2875,-0.2875,-0.2875,-0.2875,-0.2875,-0.2875,-0.2875,0.8317,0.0,0.8235,0.7923,0.8582,0.9269,0.0,0.9452,0.9614,0.9463,0.9382,0.9382,0.9387,0.9382,0.9074,0.8147,0.7698,0.7165,0.6318,0.6045,0.5715,0.5105,0.508,0.5034,0.4651,0.4591,0.4669,0.4822,0.4834,0.4834,0.4834,0.4834,0.4834,0.4834,0.4834,0.4834,0.4834,0.4834,0.4834,0.4834,0.4834,0.4834,0.4834,0.4834,0.4834,0.4834,0.4834,0.4834,0.4834,0.4834,0.4834,0.4834,0.4834,0.4834,0.4834,0.4834,0.4834,0.4834,0.4834,0.4834,0.4834,0.4834,0.4834,0.4834,0.4834,0.4834,0.4834,0.4834,0.4834,0.4834,0.4834,0.4834,0.4734,0.4634,0.4634,0.4634,0.4634,0.4634,0.4634,0.4734,0.4834,0.4834,0.4834,0.4734,0.4334,0.3531,0.3331,0.2725,0.1212,0.1312,0.0907,-0.0504,-0.0605,-0.1006,-0.2005,-0.098,-0.0668,-0.1483,-0.2028,-0.2374,-0.2335,-0.2694,-0.2875,-0.2875,-0.2875,-0.2875,-0.2875,-0.2875,-0.2875,-0.2875,-0.2875,-0.2875,0.8517,0.8517,0.8414,0.8195,0.8602,0.9109,0.9351,0.9593,0.9793,0.9895,0.9922,0.9922,0.9922,0.9922,0.969,0.915,0.8618,0.7859,0.6938,0.6344,0.5782,0.5446,0.5145,0.4824,0.4649,0.4573,0.4647,0.482,0.4834,0.4834,0.4834,0.4834,0.4834,0.4834,0.4834,0.4834,0.4834,0.4834,0.4834,0.4834,0.4834,0.4834,0.4834,0.4834,0.4834,0.4834,0.4834,0.4834,0.4834,0.4834,0.4834,0.4834,0.4834,0.4834,0.4834,0.4834,0.4834,0.4834,0.4834,0.4834,0.4834,0.4834,0.4834,0.4834,0.4834,0.4834,0.4834,0.4834,0.4834,0.4834,0.4834,0.4834,0.4834,0.4834,0.4834,0.4834,0.4834,0.4834,0.4834,0.4834,0.4834,0.4834,0.4834,0.4634,0.4234,0.3632,0.3531,0.3026,0.1514,0.121,0.0605,-0.0908,-0.1312,-0.1817,-0.2424,-0.15,-0.1374,-0.2287,-0.2432,-0.2487,-0.2731,-0.2798,-0.2875,-0.2875,-0.2875,-0.2875,-0.2875,-0.2875,-0.2875,-0.2875,-0.2875,-0.2875,0.8517,0.8517,0.8517,0.8517,0.8689,0.8921,0.9152,0.94,0.9642,0.9873,0.9922,0.9922,0.9922,0.9922,0.9922,0.9922,0.9236,0.8399,0.7633,0.6746,0.6111,0.5948,0.5142,0.4637,0.4628,0.4658,0.4735,0.4802,0.4826,0.4834,0.4834,0.4834,0.4834,0.4834,0.4834,0.4834,0.4834,0.4834,0.4834,0.4834,0.4834,0.4834,0.4834,0.4834,0.4834,0.4834,0.4834,0.4834,0.4834,0.4834,0.4834,0.4834,0.4834,0.4834,0.4834,0.4834,0.4834,0.4834,0.4834,0.4834,0.4834,0.4834,0.4834,0.4834,0.4834,0.4834,0.4834,0.4834,0.4834,0.4834,0.4834,0.4834,0.4834,0.4834,0.4834,0.4834,0.4834,0.4834,0.4834,0.4834,0.4834,0.4834,0.4834,0.4435,0.4033,0.3932,0.3833,0.3429,0.2118,0.1309,0.0504,-0.0606,-0.1616,-0.2122,-0.2122,-0.2122,-0.2408,-0.3058,-0.2765,-0.2701,-0.2959,-0.2903,-0.2873,-0.2875,-0.2875,-0.2875,-0.2875,-0.2875,-0.2875,-0.2875,-0.2875,-0.2875,0.8517,0.8517,0.8517,0.8517,0.8689,0.8921,0.9152,0.94,0.9642,0.9873,0.9922,0.9922,0.9922,0.9922,0.9922,0.9922,0.9236,0.8399,0.7633,0.7629,0.727,0.6031,0.6007,0.5776,0.4818,0.4902,0.4992,0.5007,0.5092,0.5037,0.4834,0.4834,0.4834,0.4834,0.4834,0.4834,0.4834,0.4834,0.4834,0.4834,0.4834,0.4834,0.4834,0.4834,0.4834,0.4834,0.4834,0.4834,0.4834,0.4834,0.4834,0.4834,0.4834,0.4834,0.4834,0.4834,0.4834,0.4834,0.4834,0.4834,0.4834,0.4834,0.4834,0.4834,0.4834,0.4834,0.4834,0.4834,0.4834,0.4834,0.4834,0.4834,0.4834,0.4834,0.4834,0.4834,0.4834,0.4834,0.4834,0.4834,0.4834,0.4834,0.4834,0.4734,0.4332,0.3432,0.3331,0.2522,0.0303,-0.0303,-0.0907,-0.2017,-0.2624,-0.2928,-0.2725,-0.2725,-0.2822,-0.3116,-0.2658,-0.2396,-0.2688,-0.2633,-0.2694,-0.2875,-0.2875,-0.2875,-0.2875,-0.2875,-0.2875,-0.2875,-0.2875,-0.2875,0.8517,0.8517,0.8517,0.8517,0.8597,0.877,0.9125,0.9292,0.948,0.9846,0.9922,0.9922,0.9922,0.9922,0.9771,0.9311,0.8932,0.8435,0.7774,0.7527,0.7138,0.6298,0.6567,0.6299,0.5069,0.5485,0.568,0.5178,0.5134,0.5083,0.4832,0.4834,0.4834,0.5037,0.4834,0.4935,0.5236,0.5138,0.5037,0.5037,0.5037,0.5138,0.5236,0.5236,0.5236,0.5236,0.5236,0.5236,0.5236,0.5037,0.5138,0.5236,0.5037,0.5037,0.5037,0.4834,0.4834,0.4834,0.4834,0.4834,0.4834,0.4834,0.4834,0.4834,0.4834,0.4834,0.4834,0.4834,0.4834,0.4834,0.4834,0.4834,0.4834,0.4834,0.4834,0.4834,0.4834,0.4834,0.4834,0.4834,0.4834,0.4834,0.4834,0.4834,0.4634,0.4133,0.3831,0.2924,0.1109,0.0202,-0.0806,-0.1815,-0.2623,-0.2826,-0.2623,-0.2725,-0.2813,-0.2685,-0.2759,-0.2711,-0.2636,-0.2675,-0.2827,-0.292,-0.289,-0.2875,-0.2875,-0.2875,-0.2875,-0.2875,-0.2875,-0.2875,0.8517,0.8517,0.8517,0.8517,0.8517,0.8635,0.9098,0.9206,0.934,0.982,0.9922,0.9922,0.9922,0.9922,0.969,0.8932,0.8856,0.8702,0.8207,0.774,0.7412,0.7066,0.7299,0.7081,0.5935,0.6512,0.6707,0.587,0.5741,0.5513,0.5295,0.5122,0.5037,0.524,0.5138,0.5236,0.5634,0.5438,0.534,0.534,0.534,0.5438,0.5636,0.5636,0.5636,0.5636,0.5636,0.5636,0.5534,0.5338,0.5438,0.5536,0.5338,0.534,0.524,0.5035,0.5035,0.4935,0.4935,0.4935,0.4935,0.4935,0.4935,0.4937,0.4935,0.4935,0.4935,0.4935,0.4834,0.4834,0.4834,0.4834,0.4834,0.4834,0.4834,0.4834,0.4834,0.4834,0.4834,0.4834,0.4834,0.4834,0.4834,0.4834,0.4734,0.4634,0.4133,0.3327,0.2115,0.0705,-0.0504,-0.1513,-0.2422,-0.2826,-0.2623,-0.2826,-0.2708,-0.247,-0.2753,-0.2825,-0.2591,-0.2823,-0.2978,-0.298,-0.2937,-0.2909,-0.2894,-0.2894,-0.2887,-0.2875,-0.2875,-0.2875,0.8517,0.8517,0.8517,0.8517,0.8517,0.8635,0.9098,0.9206,0.934,0.982,0.9922,0.9922,0.9922,0.9922,0.9771,0.9322,0.9246,0.9173,0.9001,0.9119,0.8982,0.8497,0.8599,0.854,0.8021,0.8166,0.8178,0.8109,0.7449,0.703,0.6751,0.5978,0.5536,0.5536,0.5536,0.5534,0.5636,0.5534,0.5536,0.5536,0.5536,0.5534,0.5636,0.5636,0.5636,0.5636,0.5636,0.5636,0.5634,0.5536,0.5534,0.5634,0.5536,0.5536,0.5536,0.5536,0.5536,0.5536,0.524,0.514,0.514,0.514,0.514,0.524,0.5436,0.5338,0.514,0.514,0.5037,0.4834,0.4834,0.4834,0.4834,0.4834,0.4834,0.4834,0.4834,0.4834,0.4834,0.4834,0.4834,0.4834,0.4834,0.4834,0.4634,0.4133,0.3632,0.2825,0.1815,0.0202,-0.1008,-0.1513,-0.2522,-0.313,-0.313,-0.313,-0.3026,-0.282,-0.2576,-0.2548,-0.2642,-0.269,-0.2851,-0.3042,-0.3133,-0.3008,-0.2952,-0.2952,-0.2925,-0.2875,-0.2875,-0.2875,0.9022,0.8765,0.8517,0.8517,0.8624,0.8818,0.913,0.9324,0.9529,0.9852,0.9922,0.9922,0.9922,0.9922,0.9771,0.9397,0.9322,0.9294,0.9247,0.9275,0.9197,0.9,0.9538,0.9589,0.8452,0.8953,0.9042,0.834,0.8099,0.7837,0.7648,0.6753,0.6401,0.6503,0.5899,0.5741,0.6036,0.5907,0.5939,0.6137,0.5939,0.5939,0.6137,0.6137,0.6137,0.6137,0.6137,0.6137,0.6037,0.5939,0.5939,0.6037,0.5937,0.5839,0.5839,0.5636,0.5636,0.5536,0.534,0.5338,0.5436,0.524,0.5338,0.5436,0.5536,0.5536,0.5438,0.5438,0.5336,0.5236,0.4935,0.4834,0.4834,0.4834,0.4834,0.4834,0.4834,0.4834,0.4834,0.4834,0.4834,0.4834,0.4834,0.4834,0.4734,0.4533,0.4033,0.3126,0.1511,0.0403,-0.0806,-0.2017,-0.2623,-0.3027,-0.323,-0.323,-0.313,-0.3029,-0.2907,-0.2896,-0.2796,-0.2843,-0.3008,-0.3105,-0.3068,-0.3133,-0.3109,-0.3109,-0.3004,-0.2982,-0.2982,-0.2982,0.9274,0.8894,0.8511,0.8576,0.8755,0.8988,0.9227,0.9471,0.9642,0.9873,0.9922,0.9922,0.9922,0.9922,0.9846,0.9544,0.9473,0.9525,0.9582,0.969,0.9698,0.9795,1.0418,1.0467,0.9506,0.9946,1.0003,0.9335,0.9037,0.8848,0.8782,0.7916,0.748,0.7674,0.6637,0.6302,0.669,0.6287,0.6131,0.6325,0.6131,0.6168,0.6437,0.6437,0.6437,0.6437,0.6437,0.6437,0.6437,0.6239,0.6239,0.6337,0.6239,0.6139,0.6139,0.5937,0.5837,0.5837,0.5541,0.5539,0.5739,0.5541,0.5539,0.5737,0.5834,0.5837,0.5737,0.5737,0.5639,0.5436,0.5037,0.4937,0.4937,0.4834,0.4834,0.4834,0.4834,0.4834,0.4834,0.4834,0.4834,0.4834,0.4834,0.4834,0.4834,0.4834,0.4031,0.3022,0.161,0.0302,-0.1008,-0.2522,-0.2826,-0.3027,-0.323,-0.323,-0.323,-0.323,-0.323,-0.313,-0.2927,-0.309,-0.3168,-0.3168,-0.3127,-0.3097,-0.3078,-0.3078,-0.3068,-0.3144,-0.3144,-0.3144,0.9338,0.8894,0.8582,0.877,0.8948,0.9192,0.9447,0.9554,0.9642,0.9873,0.9922,0.9922,0.9922,0.9922,0.9922,0.9922,0.9922,1.0008,1.0261,1.0492,1.0724,1.0955,1.1203,1.1262,1.1262,1.1262,1.1262,1.1262,1.0573,1.015,1.015,0.9334,0.8877,0.8877,0.7948,0.7483,0.7483,0.6552,0.6086,0.6086,0.6086,0.6208,0.6434,0.6434,0.6434,0.6434,0.6434,0.6434,0.6437,0.6437,0.6437,0.6437,0.6437,0.6437,0.6437,0.6437,0.6437,0.6337,0.6142,0.6042,0.6042,0.6042,0.6042,0.6042,0.6337,0.6239,0.6042,0.6042,0.5641,0.524,0.524,0.524,0.514,0.4834,0.4834,0.4834,0.4834,0.4834,0.4834,0.4834,0.4834,0.4834,0.4834,0.4834,0.4834,0.4834,0.3426,0.2319,0.2013,-0.0101,-0.2017,-0.313,-0.323,-0.323,-0.323,-0.323,-0.323,-0.323,-0.323,-0.323,-0.323,-0.323,-0.323,-0.323,-0.323,-0.32,-0.3139,-0.3139,-0.3108,-0.3144,-0.3144,-0.3144,1.0358,0.9779,0.9204,0.9268,0.9277,0.9406,0.9655,0.9762,0.9783,0.9868,0.9922,0.9922,0.9922,0.9922,0.9922,0.9922,0.9922,1.0008,1.0261,1.0492,1.0724,1.0955,1.1203,1.1262,1.1262,1.1262,1.1262,1.1262,1.106,1.0917,1.0917,1.0093,0.9593,0.9593,0.8182,0.7329,0.7329,0.6505,0.6086,0.6086,0.6086,0.6121,0.6189,0.6189,0.6238,0.632,0.632,0.6363,0.6437,0.6437,0.6437,0.6437,0.6437,0.6437,0.6437,0.6437,0.6437,0.6337,0.6142,0.6139,0.6239,0.6039,0.6139,0.6339,0.6337,0.6337,0.6237,0.6237,0.6039,0.5741,0.5539,0.5338,0.514,0.4834,0.4834,0.4834,0.4834,0.4834,0.4834,0.4834,0.4834,0.4834,0.4834,0.4834,0.4533,0.3827,0.3929,0.3423,0.1408,-0.0907,-0.2623,-0.313,-0.323,-0.323,-0.323,-0.323,-0.323,-0.323,-0.323,-0.323,-0.323,-0.323,-0.323,-0.323,-0.323,-0.32,-0.3139,-0.3139,-0.3108,-0.3144,-0.3144,-0.3144,1.0351,0.9779,0.9332,0.9396,0.9397,0.9481,0.9771,0.9901,0.9972,1.004,0.9992,1.0067,1.0143,1.0143,1.0143,0.9992,0.9992,1.0046,1.0275,1.0426,1.0584,1.0898,1.1058,1.1241,1.1257,1.1262,1.1262,1.1262,1.1262,1.1262,1.1262,1.0733,1.0472,1.0472,0.9084,0.8337,0.8337,0.7086,0.6495,0.6495,0.6129,0.5947,0.595,0.6043,0.6127,0.6195,0.6195,0.6236,0.6298,0.6298,0.6298,0.6298,0.6298,0.6298,0.6304,0.6352,0.6369,0.6377,0.6224,0.6237,0.6337,0.6239,0.6237,0.6437,0.6437,0.6437,0.6437,0.6437,0.6137,0.5839,0.5636,0.5336,0.5037,0.4834,0.4834,0.4834,0.4834,0.4834,0.4834,0.4834,0.4834,0.4834,0.4834,0.4834,0.4531,0.3927,0.3522,0.2413,0.0101,-0.1814,-0.3027,-0.323,-0.323,-0.323,-0.323,-0.323,-0.323,-0.323,-0.323,-0.323,-0.323,-0.323,-0.3219,-0.3195,-0.3194,-0.3164,-0.3104,-0.3104,-0.3085,-0.3144,-0.3144,-0.3144,0.9779,0.9396,0.9145,0.9338,0.9356,0.9438,0.9869,1.0142,1.019,1.0212,1.0218,1.0293,1.0443,1.0513,1.0438,1.0218,1.0218,1.0218,1.0218,1.0291,1.0448,1.082,1.0969,1.1042,1.1262,1.1305,1.1316,1.1316,1.1338,1.1348,1.1348,1.1348,1.1348,1.1354,1.0472,0.9859,0.9772,0.8017,0.7051,0.6966,0.6086,0.5733,0.5741,0.5956,0.6059,0.607,0.6081,0.6086,0.6086,0.6086,0.6086,0.6086,0.6086,0.6086,0.61,0.6211,0.6252,0.6268,0.6369,0.6404,0.6404,0.6404,0.6404,0.6404,0.6404,0.6404,0.6404,0.6404,0.6006,0.5608,0.5608,0.5209,0.481,0.481,0.4822,0.4834,0.4834,0.4834,0.4834,0.4834,0.4834,0.4834,0.4834,0.4834,0.4834,0.4834,0.2414,0.0201,-0.1209,-0.2422,-0.323,-0.323,-0.323,-0.323,-0.323,-0.323,-0.323,-0.313,-0.323,-0.3228,-0.3122,-0.3222,-0.3196,-0.314,-0.3134,-0.3101,-0.3136,-0.3136,-0.3133,-0.3127,-0.3127,-0.3127,1.08,1.0295,0.9792,0.9856,0.9823,0.9801,0.9978,1.0224,1.0352,1.0398,1.0443,1.0443,1.0513,1.0513,1.0438,1.0218,1.0293,1.0368,1.0218,1.0517,1.0779,1.0673,1.0809,1.0893,1.0783,1.1117,1.131,1.131,1.1668,1.1871,1.1871,1.1871,1.1785,1.1613,1.0733,0.9767,0.8807,0.7665,0.67,0.5997,0.5822,0.5733,0.5735,0.5784,0.5858,0.5947,0.6043,0.6086,0.6086,0.6086,0.6086,0.6086,0.6086,0.6086,0.6089,0.6116,0.6124,0.6127,0.6154,0.6162,0.6162,0.6162,0.6162,0.6162,0.6162,0.6162,0.6162,0.6162,0.5973,0.559,0.5396,0.5104,0.4816,0.4724,0.4734,0.4834,0.4834,0.4834,0.4834,0.4834,0.4834,0.4834,0.4834,0.4834,0.4834,0.4834,0.1811,-0.0302,0.0201,-0.1713,-0.323,-0.323,-0.323,-0.323,-0.323,-0.323,-0.313,-0.2927,-0.313,-0.3108,-0.2864,-0.2961,-0.3153,-0.3139,-0.3093,-0.3038,-0.2978,-0.2978,-0.2955,-0.2912,-0.2912,-0.2912,1.0561,1.0238,0.9989,0.9798,0.9807,0.994,1.0134,1.032,1.058,1.076,1.0738,1.0663,1.0738,1.0812,1.0738,1.0513,1.0588,1.0588,1.0513,1.0633,1.077,1.0895,1.0869,1.0908,1.0864,1.1148,1.1221,1.1221,1.1515,1.1589,1.1589,1.1589,1.1594,1.1422,1.1106,1.0645,0.9957,0.8669,0.7753,0.7401,0.626,0.5733,0.5733,0.5733,0.5765,0.5825,0.589,0.5918,0.5918,0.5918,0.5918,0.5918,0.5918,0.5918,0.5923,0.5977,0.5999,0.6007,0.6067,0.6086,0.6086,0.6086,0.6086,0.6086,0.6086,0.6086,0.6086,0.5989,0.5708,0.5426,0.5232,0.4948,0.4759,0.4666,0.4675,0.4775,0.4775,0.4806,0.4834,0.4834,0.4834,0.4834,0.4834,0.4834,0.4533,0.3729,0.1611,0.0101,-0.0101,-0.1815,-0.2927,-0.2826,-0.2927,-0.2927,-0.2826,-0.2826,-0.2714,-0.259,-0.2788,-0.2764,-0.271,-0.2782,-0.2959,-0.3053,-0.3022,-0.2977,-0.2918,-0.2918,-0.2903,-0.2875,-0.2875,-0.2875,1.0244,0.9989,0.9919,0.9612,0.9711,0.9952,1.026,1.0496,1.0737,1.1125,1.0962,1.0887,1.1037,1.1111,1.1037,1.0812,1.0812,1.0812,1.0812,1.0663,1.075,1.1124,1.0999,1.0924,1.1044,1.1181,1.1215,1.1215,1.1249,1.1358,1.1358,1.1358,1.1272,1.1272,1.1472,1.1498,1.1327,0.9653,0.8879,0.8789,0.6711,0.5769,0.5791,0.5789,0.5714,0.5733,0.5733,0.5733,0.5733,0.5733,0.5733,0.5733,0.5733,0.5733,0.5744,0.5839,0.5874,0.5888,0.5991,0.6026,0.6026,0.6026,0.6026,0.6026,0.6024,0.6024,0.593,0.5644,0.5457,0.5179,0.4991,0.4806,0.462,0.4524,0.4596,0.4665,0.4681,0.4741,0.479,0.479,0.479,0.479,0.479,0.4802,0.4312,0.2709,0.1809,0.0604,-0.0908,-0.2018,-0.2623,-0.2422,-0.2623,-0.262,-0.241,-0.2409,-0.2391,-0.2345,-0.2439,-0.2611,-0.2657,-0.2708,-0.2772,-0.2944,-0.2943,-0.2921,-0.2875,-0.2875,-0.2875,-0.2875,-0.2875,-0.2875,1.0933,1.0491,0.9919,0.9612,0.9637,0.9925,1.0424,1.0565,1.0732,1.123,1.1186,1.1037,1.1111,1.1111,1.1037,1.0812,1.0962,1.1037,1.0812,1.0962,1.0974,1.0865,1.079,1.0732,1.0616,1.0975,1.1193,1.1193,1.1556,1.184,1.184,1.184,1.176,1.1519,1.1554,1.1075,1.0085,0.9128,0.8234,0.7492,0.6418,0.5981,0.6094,0.5918,0.5804,0.5733,0.5733,0.5733,0.5733,0.5733,0.5733,0.5733,0.5733,0.5733,0.5735,0.5749,0.5757,0.576,0.5773,0.5779,0.5779,0.5779,0.5779,0.5689,0.5507,0.5507,0.5415,0.5141,0.5051,0.4963,0.4788,0.4698,0.4608,0.4426,0.4406,0.4493,0.4573,0.46,0.4608,0.4608,0.4608,0.4608,0.4608,0.4673,0.433,0.3146,0.1992,0.0805,-0.0403,-0.1613,-0.2422,-0.2422,-0.2422,-0.2405,-0.2365,-0.2559,-0.254,-0.2301,-0.2775,-0.2846,-0.2605,-0.2872,-0.2936,-0.2886,-0.2886,-0.2882,-0.2875,-0.2875,-0.2875,-0.2875,-0.2875,-0.2875,1.0933,1.0428,0.9919,0.974,0.974,0.9903,1.0355,1.0629,1.0855,1.1106,1.123,1.126,1.1111,1.1111,1.1037,1.0962,1.1037,1.1037,1.0962,1.1037,1.1037,1.0962,1.0962,1.0962,1.0812,1.1,1.1147,1.1147,1.133,1.1467,1.1467,1.1467,1.139,1.1313,1.1468,1.1303,1.0739,0.9489,0.8082,0.6526,0.6284,0.6152,0.6039,0.5873,0.5812,0.5908,0.5733,0.5733,0.5733,0.5733,0.5733,0.5733,0.5733,0.5733,0.5733,0.5733,0.5733,0.5733,0.5733,0.5644,0.5552,0.5644,0.5644,0.5552,0.546,0.5463,0.5463,0.5015,0.4924,0.4921,0.4567,0.448,0.4478,0.43,0.433,0.4371,0.441,0.45,0.4573,0.4573,0.4573,0.4573,0.4573,0.4606,0.4051,0.2408,0.1747,0.0781,-0.0782,-0.1662,-0.2054,-0.1956,-0.2054,-0.2144,-0.2126,-0.2221,-0.2203,-0.2255,-0.2438,-0.2603,-0.2552,-0.2638,-0.2809,-0.2875,-0.2875,-0.2875,-0.2875,-0.2875,-0.2875,-0.2875,-0.2875,-0.2875,1.0877,1.0555,1.0301,0.9926,0.9926,1.0123,1.0403,1.0558,1.0805,1.1081,1.124,1.1255,1.1248,1.1186,1.1186,1.1186,1.1186,1.1186,1.1111,1.1111,1.1111,1.1186,1.1186,1.1186,1.1186,1.1186,1.1186,1.1111,1.1111,1.1111,1.1111,1.1111,1.1111,1.1111,1.1317,1.1425,1.1425,0.979,0.8027,0.642,0.6345,0.6201,0.6065,0.582,0.5864,0.5987,0.5728,0.5657,0.5687,0.5687,0.5706,0.5733,0.5733,0.5733,0.5733,0.5733,0.5733,0.5733,0.5733,0.5644,0.5463,0.5644,0.5644,0.5463,0.5371,0.5463,0.5463,0.4926,0.4924,0.4921,0.4478,0.4389,0.4389,0.43,0.43,0.43,0.43,0.4406,0.4504,0.4504,0.4504,0.4504,0.4504,0.4522,0.3873,0.1794,0.1517,0.0761,-0.124,-0.1717,-0.1717,-0.1526,-0.1717,-0.1904,-0.1895,-0.1988,-0.2159,-0.23,-0.2297,-0.2464,-0.2606,-0.2604,-0.2694,-0.2875,-0.2875,-0.2875,-0.2875,-0.2875,-0.2875,-0.2875,-0.2875,-0.2875,1.1185,1.124,1.117,1.0238,1.0364,1.0692,1.0535,1.0346,1.051,1.1397,1.1306,1.1178,1.1582,1.1484,1.1409,1.1409,1.1409,1.1335,1.1111,1.1111,1.1186,1.1335,1.1409,1.1409,1.1409,1.1409,1.1335,1.1111,1.1111,1.1111,1.1111,1.1111,1.1111,1.1111,1.1123,1.1135,1.1135,0.9559,0.8273,0.7431,0.6666,0.6277,0.617,0.5922,0.5758,0.5728,0.5474,0.5453,0.5475,0.5475,0.5627,0.5733,0.5733,0.5733,0.5733,0.5733,0.5733,0.5733,0.5733,0.5733,0.5644,0.5733,0.5733,0.5644,0.5463,0.5371,0.5371,0.5099,0.501,0.4921,0.4748,0.4661,0.4659,0.4389,0.43,0.43,0.43,0.4306,0.4314,0.4314,0.4314,0.4314,0.4314,0.4385,0.3701,0.1665,0.1504,0.0761,-0.124,-0.1526,-0.1526,-0.1526,-0.1717,-0.1894,-0.1857,-0.2226,-0.2574,-0.2521,-0.2699,-0.2877,-0.2873,-0.2873,-0.2875,-0.2875,-0.2875,-0.2875,-0.2875,-0.2875,-0.2875,-0.2875,-0.2875,-0.2875,1.1185,1.1185,1.1178,1.0926,1.0681,1.0581,1.0944,1.066,1.0524,1.0924,1.1115,1.1253,1.1565,1.1586,1.1558,1.1558,1.1558,1.1558,1.1484,1.1484,1.1484,1.1558,1.1558,1.1558,1.1558,1.1558,1.1558,1.1484,1.1484,1.1409,1.1335,1.126,1.126,1.1111,1.1111,1.0582,0.9609,0.9003,0.7936,0.6479,0.6173,0.5973,0.5789,0.5547,0.5492,0.5459,0.5377,0.5415,0.5434,0.5434,0.5461,0.5507,0.5586,0.5529,0.5624,0.5703,0.5733,0.5733,0.5733,0.5644,0.5552,0.5644,0.5644,0.5463,0.546,0.5371,0.5282,0.4926,0.4835,0.4748,0.4478,0.4478,0.4389,0.43,0.43,0.43,0.43,0.43,0.43,0.43,0.43,0.43,0.43,0.4326,0.3711,0.172,0.1457,0.0733,-0.1192,-0.1468,-0.1468,-0.1652,-0.1743,-0.1921,-0.227,-0.2451,-0.2624,-0.2785,-0.2873,-0.2875,-0.2875,-0.2875,-0.2875,-0.2875,-0.2875,-0.2875,-0.2875,-0.2875,-0.2875,-0.2875,-0.2875,-0.2875,1.1185,1.131,1.1373,1.1247,1.0989,1.0737,1.0926,1.0644,1.0418,1.058,1.0759,1.1045,1.1422,1.152,1.1563,1.1749,1.1781,1.1781,1.1706,1.1706,1.1706,1.1781,1.1781,1.1781,1.1781,1.1781,1.1781,1.1706,1.1706,1.1632,1.1484,1.1484,1.1409,1.1186,1.1111,1.0432,0.9084,0.8856,0.7936,0.6321,0.6015,0.5786,0.5479,0.5398,0.5321,0.5321,0.5243,0.5283,0.5309,0.5391,0.5416,0.5377,0.5458,0.5488,0.5499,0.5581,0.5638,0.567,0.567,0.5609,0.5552,0.5552,0.5552,0.5371,0.528,0.528,0.5191,0.4924,0.4837,0.4748,0.4478,0.4389,0.43,0.43,0.43,0.43,0.43,0.43,0.43,0.43,0.43,0.43,0.43,0.403,0.3312,0.161,0.1164,0.0358,-0.1166,-0.1436,-0.1615,-0.1794,-0.1974,-0.2154,-0.2513,-0.2603,-0.2694,-0.2875,-0.2875,-0.2875,-0.2875,-0.2875,-0.2875,-0.2875,-0.2875,-0.2875,-0.2875,-0.2875,-0.2875,-0.2875,-0.2875,-0.2875,0.0,0.0,0.0,1.1247,1.131,1.1233,1.0491,1.0117,1.0065,1.0403,1.0334,1.0422,1.1028,1.1224,1.1338,1.1892,1.199,1.1916,1.1694,1.17,1.1781,1.2003,1.2003,1.2003,1.2003,1.2003,1.1929,1.1706,1.1706,1.1706,1.1706,1.1706,1.1632,1.1409,1.1186,1.0663,0.9846,0.9084,0.8165,0.7165,0.6321,0.5709,0.5321,0.5321,0.5321,0.5243,0.5093,0.508,0.5181,0.5425,0.5417,0.536,0.5363,0.5363,0.5363,0.5368,0.5445,0.5459,0.5459,0.5624,0.5633,0.5455,0.5366,0.5366,0.5099,0.501,0.501,0.501,0.5008,0.4921,0.4748,0.448,0.43,0.43,0.43,0.43,0.43,0.43,0.43,0.43,0.43,0.4297,0.4297,0.3494,0.2508,0.1522,0.0537,-0.0359,-0.1256,-0.1615,-0.1794,-0.1794,-0.2243,-0.2513,-0.2513,-0.2784,-0.2875,-0.2875,-0.2875,-0.2875,-0.2875,-0.2875,-0.2875,-0.2875,-0.2875,-0.2875,-0.2875,-0.2875,-0.2875,-0.2875,-0.2875,-0.2875,1.124,0.0,0.0,0.0,0.0,0.0,1.0345,0.9779,0.9426,0.9897,1.0005,1.0165,1.0642,1.0814,1.1069,1.137,1.1708,1.1919,1.184,1.2025,1.215,1.2224,1.2231,1.2231,1.2231,1.2231,1.2157,1.215,1.2157,1.2077,1.1929,1.1632,1.1409,1.1186,1.0588,0.9836,0.9003,0.8246,0.7326,0.6247,0.6015,0.5709,0.5321,0.5321,0.5246,0.5093,0.5168,0.5188,0.5064,0.5143,0.5162,0.5124,0.5205,0.5238,0.5249,0.5336,0.539,0.542,0.542,0.5442,0.5483,0.5308,0.5247,0.5262,0.5075,0.4921,0.4748,0.4748,0.4656,0.4478,0.4389,0.4389,0.43,0.43,0.43,0.43,0.43,0.43,0.43,0.43,0.3762,0.3314,0.3314,0.2506,0.1522,0.0538,-0.0,-0.0628,-0.1525,-0.1885,-0.2154,-0.2334,-0.2424,-0.2603,-0.2784,-0.2873,-0.2875,-0.2875,-0.2875,-0.2875,-0.2875,-0.2875,-0.2875,-0.2875,-0.2875,-0.2875,-0.2875,-0.2875,-0.2875,-0.2875,-0.2875,-0.2875,0.0,0.0,1.0787,1.085,0.0,0.0,1.0225,0.9786,0.9408,0.9536,0.9669,0.9849,1.0171,1.0362,1.047,1.067,1.1044,1.1411,1.167,1.183,1.1937,1.1937,1.1937,1.1937,1.1937,1.1937,1.1937,1.1937,1.1937,1.1919,1.1972,1.1569,1.1409,1.1484,1.0443,0.9539,0.8851,0.794,0.6942,0.5864,0.5786,0.5631,0.5321,0.5321,0.5243,0.5171,0.5243,0.5243,0.5093,0.5015,0.5018,0.5023,0.5091,0.5116,0.5124,0.5197,0.5254,0.5213,0.5213,0.5162,0.5048,0.4939,0.4874,0.4801,0.4604,0.4537,0.4461,0.4502,0.4362,0.43,0.43,0.43,0.43,0.43,0.43,0.43,0.43,0.4121,0.4032,0.43,0.3582,0.2867,0.2777,0.1612,0.0448,-0.0179,-0.0807,-0.1345,-0.1885,-0.2154,-0.2334,-0.2513,-0.2604,-0.2694,-0.2875,-0.2875,-0.2875,-0.2875,-0.2875,-0.2875,-0.2875,-0.2875,-0.2875,-0.2875,-0.2875,-0.2875,-0.2875,-0.2875,-0.2875,-0.2875,-0.2875,-0.2875,0.0,0.0,0.0,1.0015,0.9703,0.0,0.9913,0.9728,0.9472,0.921,0.9215,0.935,0.9606,0.967,0.9734,0.9919,1.0192,1.0584,1.12,1.1334,1.1354,1.1423,1.1423,1.1423,1.1423,1.1423,1.1423,1.1423,1.1423,1.1543,1.1804,1.1557,1.155,1.1883,1.0473,0.9513,0.9003,0.794,0.6865,0.5941,0.5789,0.5556,0.5398,0.5321,0.5321,0.5321,0.5243,0.5243,0.5243,0.5093,0.5018,0.5018,0.5018,0.5018,0.5018,0.5018,0.4925,0.4934,0.4934,0.4836,0.467,0.4511,0.4432,0.4351,0.4116,0.4036,0.4053,0.4134,0.4212,0.4269,0.4269,0.4277,0.4285,0.4285,0.4291,0.4297,0.4119,0.3764,0.3585,0.3849,0.3224,0.2509,0.2238,0.0627,-0.0628,-0.0806,-0.1613,-0.2243,-0.2243,-0.2424,-0.2513,-0.2513,-0.2784,-0.2875,-0.2875,-0.2875,-0.2875,-0.2875,-0.2875,-0.2875,-0.2875,-0.2875,-0.2875,-0.2875,-0.2963,-0.2963,-0.2875,-0.2875,-0.2875,-0.2875,-0.2875,-0.2875,0.8667,0.8801,0.893,0.8678,0.8554,0.0,0.8107,0.7977,0.7982,0.7987,0.8052,0.8182,0.8689,0.8748,0.8882,0.9338,0.9572,0.9953,1.0704,1.108,1.1292,1.1361,1.1423,1.1423,1.1423,1.1423,1.1423,1.1423,1.1423,1.1381,1.1227,1.1216,1.1141,1.1219,0.961,0.8738,0.8775,0.7253,0.6412,0.6257,0.618,0.6025,0.5786,0.5634,0.5479,0.5321,0.5093,0.5093,0.5093,0.5015,0.5018,0.5018,0.5018,0.5018,0.5018,0.5018,0.4953,0.4972,0.4972,0.4988,0.4862,0.4546,0.4491,0.4426,0.4097,0.4036,0.404,0.4059,0.4075,0.4087,0.4087,0.4142,0.4197,0.4197,0.4249,0.403,0.3045,0.2956,0.2688,0.161,0.1164,0.0717,-0.0,-0.1075,-0.1884,-0.1884,-0.2243,-0.2424,-0.2424,-0.2694,-0.2784,-0.2784,-0.2873,-0.2875,-0.2875,-0.2875,-0.2875,-0.2875,-0.2875,-0.2875,-0.2875,-0.2875,-0.2875,-0.2875,-0.323,-0.332,-0.2875,-0.2875,-0.2875,-0.2875,-0.2875,-0.2875,0.7507,0.7772,0.8096,0.7967,0.7782,0.0,0.0,0.7722,0.7596,0.7666,0.7792,0.7922,0.8177,0.8236,0.8366,0.8818,0.9011,0.9379,0.9906,1.0377,1.0665,1.0863,1.0857,1.0863,1.0995,1.0995,1.0995,1.0995,1.1062,1.1075,1.1075,1.094,1.0943,1.1217,0.9362,0.8534,0.8748,0.7116,0.6336,0.6261,0.6025,0.587,0.5712,0.5556,0.5323,0.5168,0.5168,0.5093,0.5018,0.5018,0.5018,0.5018,0.5018,0.5018,0.5018,0.5018,0.4937,0.4859,0.4701,0.4623,0.4477,0.4211,0.4148,0.4157,0.3966,0.3932,0.3967,0.3967,0.3999,0.4036,0.4036,0.4069,0.4104,0.4104,0.3791,0.3393,0.2727,0.2205,0.1504,0.0358,-0.009,-0.0448,-0.0626,-0.1524,-0.2243,-0.2334,-0.2513,-0.2694,-0.2694,-0.2784,-0.2875,-0.2875,-0.2875,-0.2875,-0.2875,-0.2875,-0.2875,-0.2875,-0.2875,-0.2963,-0.323,-0.323,-0.332,-0.3587,-0.3855,-0.3855,-0.3587,-0.3587,-0.332,-0.2875,-0.3409,-0.3499,0.6276,0.6671,0.7195,0.7381,0.7064,0.6942,0.0,0.0,0.0,0.74,0.7531,0.7722,0.7722,0.7792,0.7917,0.8231,0.8436,0.87,0.8952,0.9402,0.9786,1.011,1.0174,1.0301,1.0434,1.0498,1.0498,1.0561,1.0581,1.0712,1.0909,1.0734,1.0808,1.1275,0.9328,0.8453,0.8732,0.7106,0.6238,0.6213,0.5854,0.5637,0.5559,0.5401,0.5246,0.5093,0.5168,0.5168,0.5018,0.5018,0.5018,0.5018,0.5018,0.5018,0.5018,0.5018,0.4859,0.4698,0.454,0.4309,0.4155,0.3921,0.3841,0.3763,0.3763,0.3814,0.3873,0.3873,0.3926,0.3983,0.3983,0.3995,0.3926,0.3758,0.3265,0.2699,0.2147,0.1293,0.0347,-0.071,-0.107,-0.125,-0.1074,-0.1703,-0.2334,-0.2513,-0.2784,-0.2875,-0.2875,-0.2875,-0.2875,-0.2875,-0.2875,-0.2875,-0.2875,-0.2875,-0.2875,-0.2875,-0.2875,-0.3142,-0.3587,-0.3676,-0.3944,-0.43,-0.4389,-0.4389,-0.43,-0.4478,-0.4123,-0.3232,-0.3942,-0.4121,0.5888,0.602,0.6152,0.6342,0.6342,0.6346,0.6548,0.0,0.6482,0.6412,0.0,0.6613,0.6806,0.0,0.0,0.7521,0.7727,0.7862,0.7862,0.8366,0.8877,0.9518,0.9849,0.9989,0.9932,0.9989,1.011,1.0301,1.0334,1.0417,1.0608,1.0641,1.0646,1.0764,0.9209,0.8368,0.8382,0.6976,0.6105,0.5751,0.5803,0.5786,0.5559,0.5401,0.5321,0.5243,0.5093,0.5015,0.5018,0.5018,0.5018,0.5018,0.5018,0.5018,0.5018,0.5018,0.4859,0.4701,0.4698,0.4543,0.4307,0.4155,0.3921,0.3763,0.3763,0.3771,0.3779,0.3779,0.3787,0.3795,0.3795,0.3854,0.3751,0.2931,0.2812,0.2266,0.0253,-0.0169,-0.0594,-0.2172,-0.2269,-0.2018,-0.2236,-0.2423,-0.2513,-0.2784,-0.2873,-0.2875,-0.2875,-0.2875,-0.2875,-0.2875,-0.2875,-0.2875,-0.2875,-0.2875,-0.2875,-0.2875,-0.2875,-0.3142,-0.3587,-0.4032,-0.421,-0.43,-0.4743,-0.4743,-0.43,-0.5104,-0.5015,-0.4121,-0.421,-0.4297,0.5686,0.5822,0.5888,0.602,0.602,0.602,0.6086,0.609,0.6086,0.602,0.0,0.0,0.0,0.0,0.0,0.0,0.7068,0.7265,0.74,0.7852,0.8436,0.9017,0.9402,0.9664,0.9804,0.9926,1.011,1.0308,1.0301,1.0371,1.0434,1.0301,1.0232,1.0283,0.8827,0.8009,0.8093,0.6718,0.5999,0.5878,0.5714,0.5634,0.5559,0.5249,0.5093,0.5093,0.5015,0.5018,0.5018,0.4859,0.4857,0.4779,0.4701,0.4701,0.4779,0.4701,0.4621,0.4543,0.4389,0.4311,0.4231,0.3999,0.3843,0.3763,0.3763,0.3763,0.3763,0.3763,0.3763,0.3763,0.3763,0.3791,0.3661,0.2783,0.2083,0.1296,-0.0164,-0.0824,-0.141,-0.2208,-0.224,-0.218,-0.2376,-0.2493,-0.2513,-0.2694,-0.2784,-0.2875,-0.2875,-0.2875,-0.2875,-0.2875,-0.2875,-0.2875,-0.2875,-0.2875,-0.2875,-0.2875,-0.3409,-0.3765,-0.4032,-0.4748,-0.5104,-0.5104,-0.5719,-0.5719,-0.5104,-0.6343,-0.6514,-0.5716,-0.5716,-0.5802,0.5216,0.5488,0.5756,0.5822,0.5822,0.5822,0.5888,0.5888,0.5888,0.5822,0.5888,0.0,0.0,0.0,0.5954,0.6222,0.0,0.6671,0.6806,0.733,0.7852,0.8376,0.8759,0.9145,0.9408,0.96,0.9856,1.004,1.0104,1.011,1.0301,1.018,1.011,1.018,0.8683,0.7917,0.7942,0.6579,0.5832,0.5692,0.547,0.5409,0.5351,0.5079,0.5018,0.5018,0.5018,0.4937,0.4937,0.4779,0.4698,0.4621,0.4387,0.4387,0.4545,0.4462,0.4384,0.4309,0.4155,0.4079,0.3999,0.3843,0.3763,0.3763,0.3763,0.3763,0.3763,0.3763,0.3763,0.3763,0.3763,0.3763,0.3528,0.2352,0.1489,0.0551,-0.0641,-0.1448,-0.2025,-0.2156,-0.2195,-0.2315,-0.2517,-0.2479,-0.2513,-0.2604,-0.2784,-0.2875,-0.2875,-0.2875,-0.2875,-0.2875,-0.2875,-0.2875,-0.2875,-0.2875,-0.2875,-0.2875,-0.3676,-0.421,-0.43,-0.5104,-0.5638,-0.5994,-0.6517,-0.6517,-0.5994,-0.7221,-0.757,-0.7041,-0.7041,-0.7129,0.4353,0.4891,0.5425,0.555,0.5617,0.5683,0.5888,0.5888,0.5822,0.5683,0.5752,0.5822,0.5617,0.5752,0.5892,0.5892,0.5954,0.0,0.0,0.6412,0.6937,0.7461,0.7977,0.8296,0.849,0.8818,0.9145,0.9518,0.9518,0.9779,1.0238,1.0301,1.0364,1.0561,0.9198,0.8296,0.7972,0.6726,0.5731,0.505,0.5307,0.5211,0.4844,0.4963,0.5018,0.5018,0.5018,0.4859,0.4701,0.4701,0.4621,0.4384,0.4155,0.4079,0.4157,0.4307,0.4309,0.4079,0.4079,0.3999,0.3841,0.3763,0.3763,0.3763,0.3763,0.3763,0.3763,0.3763,0.3763,0.3763,0.3763,0.3763,0.3292,0.1409,0.094,0.0313,-0.1726,-0.2198,-0.2293,-0.251,-0.2605,-0.2644,-0.2763,-0.2656,-0.2603,-0.2873,-0.2875,-0.2875,-0.2875,-0.2875,-0.2875,-0.2875,-0.2875,-0.2875,-0.2875,-0.2875,-0.2875,-0.2875,-0.332,-0.3855,-0.43,-0.4743,-0.5542,-0.6779,-0.6779,-0.6779,-0.6779,-0.7482,-0.7834,-0.7746,-0.7746,-0.7746,0.3551,0.3751,0.4084,0.4619,0.4752,0.4818,0.5289,0.5491,0.5491,0.5289,0.5355,0.5422,0.5425,0.5422,0.5422,0.5561,0.5624,0.5686,0.0,0.6079,0.6408,0.6605,0.7396,0.7982,0.8301,0.863,0.9017,0.9454,0.9594,0.9798,0.9989,0.9989,0.9728,0.9198,0.8296,0.7512,0.692,0.607,0.5488,0.5171,0.5124,0.5116,0.498,0.4876,0.4939,0.5018,0.4859,0.4779,0.4698,0.4389,0.4233,0.4155,0.3999,0.3921,0.3921,0.3997,0.3997,0.3921,0.3921,0.3843,0.3763,0.3763,0.3763,0.3763,0.3763,0.3763,0.3763,0.3452,0.3374,0.3295,0.2981,0.2666,0.2036,0.0783,0.0078,-0.0627,-0.196,-0.2275,-0.2438,-0.2537,-0.2574,-0.2614,-0.2655,-0.2661,-0.2739,-0.2868,-0.2875,-0.2875,-0.2875,-0.2875,-0.2875,-0.2875,-0.2875,-0.3053,-0.332,-0.3676,-0.3855,-0.3855,-0.4297,-0.4565,-0.4743,-0.5191,-0.5902,-0.6776,-0.7217,-0.7482,-0.7482,-0.8627,-0.8978,-0.854,-0.9069,-0.9244,0.2822,0.3015,0.3282,0.3818,0.3885,0.4084,0.4686,0.4891,0.4957,0.4821,0.5024,0.509,0.4688,0.4954,0.5156,0.5024,0.5289,0.5554,0.0,0.5815,0.6013,0.621,0.6937,0.7531,0.7912,0.8306,0.8765,0.9268,0.9472,0.9606,0.9804,0.9804,0.9536,0.9069,0.8096,0.7381,0.6854,0.5947,0.5406,0.5229,0.508,0.4983,0.4921,0.4867,0.4876,0.4953,0.4841,0.4701,0.4543,0.4311,0.4155,0.3999,0.3843,0.3763,0.3763,0.3763,0.3686,0.353,0.353,0.3452,0.3294,0.3057,0.3057,0.2978,0.2741,0.2663,0.2589,0.2297,0.2211,0.2121,0.1901,0.1498,0.1019,0.0078,-0.0548,-0.1175,-0.2117,-0.2431,-0.2511,-0.2511,-0.2542,-0.2576,-0.2598,-0.2666,-0.2747,-0.283,-0.286,-0.2875,-0.2875,-0.2875,-0.2875,-0.2875,-0.2875,-0.3053,-0.3588,-0.4032,-0.43,-0.43,-0.483,-0.5184,-0.5364,-0.5725,-0.6456,-0.7656,-0.7775,-0.7952,-0.8278,-0.9454,-0.9598,-0.889,-0.9685,-1.0038]},{"header":{"parameterUnit":"m.s-1","parameterCategory":1,"la1":30.6,"la2":29.2853,"lo1":-89.7004,"lo2":-87.6739,"dy":0.0162,"dx":0.0183,"nx":112,"ny":82,"refTime":"2023-07-26T06:00:00:Z","depth":0,"parameterNumber":3,"parameterNumberName":"V-component_of_WINDS"},"data":[0.0,0.0,0.0,0.0,0.0,0.0,0.0,0.0,0.0,0.0,0.0,0.0,0.0,0.0,0.0,0.0,0.0,0.0,0.0,0.0,0.0,0.0,0.0,0.0,0.0,0.0,0.0,0.0,0.0,0.0,0.0,0.0,0.0,0.0,0.0,0.0,0.0,0.0,0.0,0.0,0.0,0.0,0.0,0.0,0.0,0.0,0.0,0.0,0.0,0.0,0.0,0.0,0.0,0.0,0.0,0.0,0.0,0.0,0.0,0.0,0.0,0.0,0.0,0.0,0.0,0.0,0.0,0.0,0.0,0.0,0.0,0.0,0.0,0.0,0.0,0.0,0.0,0.0,0.0,0.0,0.0,0.0,0.0,0.0,0.0,0.0,0.0,0.0,0.0,0.0,-2.5511,-2.5511,-2.5511,-2.553,-2.5588,-2.5601,-2.5642,-2.5703,0.0,0.0,0.0,0.0,0.0,0.0,0.0,0.0,0.0,0.0,0.0,0.0,0.0,0.0,0.0,0.0,0.0,0.0,0.0,0.0,0.0,0.0,0.0,0.0,0.0,0.0,0.0,0.0,0.0,0.0,0.0,0.0,0.0,0.0,0.0,0.0,0.0,0.0,0.0,0.0,0.0,0.0,0.0,0.0,0.0,0.0,0.0,0.0,0.0,0.0,0.0,0.0,0.0,0.0,0.0,0.0,0.0,0.0,0.0,0.0,0.0,0.0,0.0,0.0,0.0,0.0,0.0,0.0,0.0,0.0,0.0,0.0,0.0,0.0,0.0,0.0,0.0,0.0,0.0,0.0,0.0,0.0,0.0,0.0,0.0,0.0,0.0,0.0,0.0,0.0,0.0,0.0,0.0,0.0,0.0,0.0,0.0,0.0,0.0,0.0,0.0,0.0,0.0,0.0,-2.5511,-2.5511,-2.5511,-2.553,-2.5588,-2.565,-2.5692,-2.5703,0.0,0.0,0.0,0.0,0.0,0.0,0.0,0.0,0.0,0.0,0.0,0.0,0.0,0.0,0.0,0.0,0.0,0.0,0.0,0.0,0.0,0.0,0.0,0.0,0.0,0.0,0.0,0.0,0.0,0.0,0.0,0.0,0.0,0.0,0.0,0.0,0.0,0.0,0.0,0.0,0.0,0.0,0.0,0.0,0.0,0.0,0.0,0.0,0.0,0.0,0.0,0.0,0.0,0.0,0.0,0.0,0.0,0.0,0.0,0.0,0.0,0.0,0.0,0.0,0.0,0.0,0.0,0.0,0.0,0.0,0.0,0.0,0.0,0.0,0.0,0.0,0.0,0.0,0.0,0.0,0.0,0.0,0.0,0.0,0.0,0.0,0.0,0.0,0.0,0.0,0.0,0.0,0.0,0.0,0.0,0.0,0.0,0.0,0.0,0.0,0.0,0.0,0.0,-2.6865,-2.6865,-2.6912,-2.6912,-2.6738,-2.6339,-2.6339,-2.6158,-2.5721,-2.5322,0.0,0.0,0.0,0.0,0.0,0.0,0.0,0.0,0.0,0.0,0.0,0.0,0.0,0.0,0.0,0.0,0.0,0.0,0.0,0.0,0.0,0.0,0.0,0.0,0.0,0.0,0.0,0.0,0.0,0.0,0.0,0.0,0.0,0.0,0.0,0.0,0.0,0.0,0.0,0.0,0.0,0.0,0.0,0.0,0.0,0.0,0.0,0.0,0.0,0.0,0.0,0.0,0.0,0.0,0.0,0.0,0.0,0.0,0.0,0.0,0.0,0.0,0.0,0.0,0.0,0.0,0.0,0.0,0.0,0.0,0.0,0.0,0.0,0.0,0.0,0.0,0.0,0.0,0.0,0.0,0.0,0.0,0.0,0.0,0.0,0.0,0.0,0.0,0.0,0.0,0.0,0.0,0.0,0.0,0.0,0.0,0.0,0.0,0.0,0.0,0.0,0.0,-2.8014,-2.8034,-2.8081,-2.8109,-2.7876,-2.7265,-2.7226,-2.6961,-2.6339,-2.6123,0.0,0.0,0.0,0.0,0.0,0.0,0.0,0.0,0.0,0.0,0.0,0.0,0.0,0.0,0.0,0.0,0.0,0.0,0.0,0.0,0.0,0.0,0.0,0.0,0.0,0.0,0.0,0.0,0.0,0.0,0.0,0.0,0.0,0.0,0.0,0.0,0.0,0.0,0.0,0.0,0.0,0.0,0.0,0.0,0.0,0.0,0.0,0.0,0.0,0.0,0.0,0.0,0.0,0.0,0.0,0.0,0.0,0.0,0.0,0.0,0.0,0.0,0.0,0.0,0.0,0.0,0.0,0.0,0.0,0.0,0.0,0.0,0.0,0.0,0.0,0.0,0.0,0.0,0.0,0.0,0.0,0.0,0.0,0.0,0.0,0.0,0.0,0.0,0.0,0.0,0.0,0.0,0.0,0.0,0.0,0.0,0.0,0.0,0.0,0.0,0.0,0.0,-2.8062,-2.8081,-2.81,-2.8155,-2.8171,-2.8113,-2.8161,-2.8176,-2.8129,-2.7365,0.0,0.0,0.0,0.0,0.0,0.0,0.0,0.0,0.0,0.0,0.0,0.0,0.0,0.0,0.0,0.0,0.0,0.0,0.0,0.0,0.0,0.0,0.0,0.0,0.0,0.0,0.0,0.0,0.0,0.0,0.0,0.0,0.0,0.0,0.0,0.0,0.0,0.0,0.0,0.0,0.0,0.0,0.0,0.0,0.0,0.0,0.0,0.0,0.0,0.0,0.0,0.0,0.0,0.0,0.0,0.0,0.0,0.0,0.0,0.0,0.0,0.0,0.0,0.0,0.0,0.0,0.0,0.0,0.0,0.0,0.0,0.0,0.0,0.0,0.0,0.0,0.0,0.0,0.0,0.0,0.0,0.0,0.0,0.0,0.0,0.0,0.0,0.0,0.0,0.0,0.0,0.0,0.0,0.0,0.0,0.0,0.0,0.0,0.0,0.0,0.0,0.0,-2.9678,-2.9736,-2.9775,-2.9803,-2.962,-2.912,-2.9097,-2.8865,-2.8271,0.0,0.0,0.0,0.0,0.0,0.0,0.0,0.0,0.0,0.0,0.0,0.0,0.0,0.0,0.0,0.0,0.0,0.0,0.0,0.0,0.0,0.0,0.0,0.0,0.0,0.0,0.0,0.0,0.0,0.0,0.0,0.0,0.0,0.0,0.0,0.0,0.0,0.0,0.0,0.0,0.0,0.0,0.0,0.0,0.0,0.0,0.0,0.0,0.0,0.0,0.0,0.0,0.0,0.0,0.0,0.0,0.0,0.0,0.0,0.0,0.0,0.0,0.0,0.0,0.0,0.0,0.0,0.0,0.0,0.0,0.0,0.0,0.0,0.0,0.0,0.0,0.0,0.0,0.0,0.0,0.0,0.0,0.0,0.0,0.0,0.0,0.0,0.0,0.0,0.0,0.0,0.0,0.0,0.0,0.0,0.0,0.0,0.0,0.0,0.0,0.0,0.0,-3.052,-3.0675,-3.0752,-3.0791,-3.0816,-3.0609,-3.0058,-3.0019,-2.9746,-2.9101,0.0,0.0,0.0,0.0,0.0,0.0,0.0,0.0,0.0,0.0,0.0,0.0,0.0,0.0,0.0,0.0,0.0,0.0,0.0,0.0,0.0,0.0,0.0,0.0,0.0,0.0,0.0,0.0,0.0,0.0,0.0,0.0,0.0,0.0,0.0,0.0,0.0,0.0,0.0,0.0,0.0,0.0,0.0,0.0,0.0,0.0,0.0,0.0,0.0,0.0,0.0,0.0,0.0,0.0,0.0,0.0,0.0,0.0,0.0,0.0,0.0,0.0,0.0,0.0,0.0,0.0,0.0,0.0,0.0,0.0,0.0,0.0,0.0,0.0,0.0,0.0,0.0,0.0,0.0,0.0,0.0,0.0,0.0,0.0,0.0,0.0,0.0,0.0,0.0,0.0,0.0,0.0,0.0,0.0,0.0,0.0,0.0,0.0,0.0,0.0,0.0,0.0,-3.0598,-3.0723,-3.08,-3.08,-3.0852,-3.0898,-3.0898,-3.0898,-3.0898,0.0,0.0,0.0,0.0,0.0,0.0,0.0,0.0,0.0,0.0,0.0,0.0,0.0,0.0,0.0,0.0,0.0,0.0,0.0,0.0,0.0,0.0,0.0,0.0,0.0,0.0,0.0,0.0,0.0,0.0,0.0,0.0,0.0,0.0,0.0,0.0,0.0,0.0,0.0,0.0,0.0,0.0,0.0,0.0,0.0,0.0,0.0,0.0,0.0,0.0,0.0,0.0,0.0,0.0,0.0,0.0,0.0,0.0,0.0,0.0,0.0,0.0,0.0,0.0,0.0,0.0,0.0,0.0,0.0,0.0,0.0,0.0,0.0,0.0,0.0,0.0,0.0,0.0,0.0,0.0,0.0,0.0,0.0,0.0,0.0,0.0,0.0,0.0,0.0,0.0,0.0,0.0,0.0,0.0,0.0,0.0,0.0,0.0,0.0,0.0,0.0,0.0,0.0,-3.0665,-3.0782,-3.0872,-3.0872,-3.0894,-3.0898,-3.0898,-3.0898,-3.0898,-3.0898,0.0,0.0,0.0,0.0,0.0,0.0,0.0,0.0,0.0,0.0,0.0,0.0,0.0,0.0,0.0,0.0,0.0,0.0,0.0,0.0,0.0,0.0,0.0,0.0,0.0,0.0,0.0,0.0,0.0,0.0,0.0,0.0,0.0,0.0,0.0,0.0,0.0,0.0,0.0,0.0,0.0,0.0,0.0,0.0,0.0,0.0,0.0,0.0,0.0,0.0,0.0,0.0,0.0,0.0,0.0,0.0,0.0,0.0,0.0,0.0,0.0,0.0,0.0,0.0,0.0,0.0,0.0,0.0,0.0,0.0,0.0,0.0,0.0,0.0,0.0,0.0,0.0,0.0,0.0,0.0,0.0,0.0,0.0,0.0,0.0,0.0,0.0,0.0,0.0,0.0,0.0,0.0,0.0,0.0,0.0,0.0,0.0,0.0,0.0,0.0,0.0,0.0,-3.0743,-3.0836,-3.0898,-3.0898,-3.0898,-3.0898,-3.0898,-3.0898,-3.0898,-3.0898,0.0,0.0,0.0,0.0,0.0,0.0,0.0,0.0,0.0,0.0,0.0,0.0,0.0,0.0,0.0,0.0,0.0,0.0,0.0,0.0,0.0,0.0,0.0,0.0,0.0,0.0,0.0,0.0,0.0,0.0,0.0,0.0,0.0,0.0,0.0,0.0,0.0,0.0,0.0,0.0,0.0,0.0,0.0,0.0,0.0,0.0,0.0,0.0,0.0,0.0,0.0,0.0,0.0,0.0,0.0,0.0,0.0,0.0,0.0,0.0,0.0,0.0,0.0,0.0,0.0,0.0,0.0,0.0,0.0,0.0,0.0,0.0,0.0,0.0,0.0,0.0,0.0,0.0,0.0,0.0,0.0,0.0,0.0,0.0,0.0,0.0,0.0,0.0,0.0,0.0,0.0,0.0,0.0,0.0,0.0,0.0,0.0,0.0,0.0,0.0,0.0,0.0,-3.0791,-3.0868,-3.0898,-3.0898,-3.0898,-3.0898,-3.0898,-3.0898,-3.0898,-3.0898,0.0,0.0,0.0,0.0,0.0,0.0,0.0,0.0,0.0,0.0,0.0,0.0,0.0,0.0,0.0,0.0,0.0,0.0,0.0,0.0,0.0,0.0,0.0,0.0,0.0,0.0,0.0,0.0,0.0,0.0,0.0,0.0,0.0,0.0,0.0,0.0,0.0,0.0,0.0,0.0,0.0,0.0,0.0,0.0,0.0,0.0,0.0,0.0,0.0,0.0,0.0,0.0,0.0,0.0,0.0,0.0,0.0,0.0,0.0,0.0,-2.8113,-2.8092,0.0,0.0,0.0,0.0,0.0,0.0,0.0,0.0,0.0,0.0,0.0,0.0,0.0,0.0,0.0,0.0,0.0,0.0,0.0,0.0,0.0,0.0,0.0,0.0,0.0,0.0,0.0,0.0,0.0,0.0,0.0,0.0,0.0,0.0,0.0,0.0,0.0,0.0,0.0,0.0,-3.0791,-3.0868,-3.0898,-3.0898,-3.0898,-3.0898,-3.0898,-3.0898,-3.0898,-3.0898,-3.0898,0.0,0.0,0.0,0.0,0.0,0.0,0.0,0.0,0.0,0.0,0.0,0.0,0.0,0.0,0.0,0.0,0.0,0.0,0.0,0.0,0.0,0.0,0.0,0.0,0.0,0.0,0.0,0.0,0.0,0.0,0.0,0.0,0.0,0.0,0.0,0.0,0.0,0.0,0.0,0.0,0.0,0.0,0.0,0.0,0.0,0.0,0.0,0.0,0.0,0.0,0.0,0.0,0.0,0.0,0.0,0.0,0.0,0.0,0.0,-2.8508,-2.8148,0.0,0.0,0.0,0.0,0.0,0.0,0.0,0.0,0.0,0.0,0.0,0.0,0.0,0.0,0.0,0.0,0.0,0.0,0.0,0.0,0.0,0.0,0.0,0.0,0.0,0.0,0.0,0.0,0.0,0.0,0.0,0.0,0.0,0.0,0.0,0.0,0.0,0.0,0.0,0.0,-3.206,-3.2077,-3.2109,-3.2109,-3.1758,-3.1523,-3.1523,-3.1133,-3.0898,-3.0898,-3.0898,0.0,0.0,0.0,0.0,0.0,0.0,0.0,0.0,0.0,0.0,0.0,0.0,0.0,0.0,0.0,0.0,0.0,0.0,0.0,0.0,0.0,0.0,0.0,0.0,0.0,0.0,0.0,0.0,0.0,0.0,0.0,0.0,0.0,0.0,0.0,0.0,0.0,0.0,0.0,0.0,0.0,0.0,0.0,0.0,0.0,0.0,0.0,0.0,0.0,0.0,0.0,0.0,0.0,-2.9946,-3.0404,-3.1243,-3.1248,-3.1211,-3.1089,-2.9711,-2.8934,-2.8625,-2.8577,0.0,0.0,0.0,0.0,0.0,0.0,0.0,0.0,0.0,0.0,0.0,0.0,0.0,0.0,0.0,0.0,0.0,0.0,0.0,0.0,0.0,0.0,-3.0632,-3.069,-3.0826,-3.0914,-3.0858,0.0,0.0,0.0,0.0,0.0,0.0,0.0,0.0,0.0,0.0,0.0,-3.3397,-3.3398,-3.3398,-3.3398,-3.2812,-3.2402,-3.2402,-3.1758,-3.1289,-3.1133,-3.1133,-3.1055,0.0,0.0,0.0,0.0,0.0,0.0,0.0,0.0,0.0,0.0,0.0,0.0,0.0,0.0,0.0,0.0,0.0,0.0,0.0,0.0,0.0,0.0,0.0,0.0,0.0,0.0,0.0,0.0,0.0,0.0,0.0,0.0,-2.8464,-2.7836,0.0,0.0,0.0,0.0,0.0,0.0,0.0,0.0,0.0,0.0,0.0,0.0,0.0,-3.0365,-3.0365,-3.0369,-3.0833,-3.1766,-3.1759,-3.2219,-3.3066,-3.3057,-3.3044,-3.3021,-3.2814,0.0,-3.038,-3.036,0.0,0.0,0.0,0.0,0.0,0.0,0.0,0.0,0.0,0.0,0.0,0.0,0.0,0.0,0.0,0.0,0.0,0.0,0.0,0.0,0.0,0.0,-3.0686,-3.0706,-3.1276,-3.1837,-3.1891,-3.1254,-3.0906,-3.1665,-3.1829,-3.2058,0.0,0.0,0.0,0.0,0.0,0.0,-3.3398,-3.3398,-3.3398,-3.3398,-3.3301,-3.3242,-3.3242,-3.3144,-3.2773,-3.207,-3.2031,-3.1699,-3.0937,-3.0898,0.0,0.0,0.0,0.0,0.0,0.0,0.0,0.0,0.0,0.0,0.0,0.0,0.0,0.0,0.0,0.0,0.0,0.0,0.0,0.0,0.0,0.0,0.0,0.0,0.0,0.0,0.0,0.0,0.0,-2.8443,-2.8328,-2.801,-2.7971,-2.7997,0.0,0.0,0.0,0.0,0.0,0.0,0.0,0.0,0.0,-3.0912,-3.1287,-3.1724,-3.2214,-3.2217,-3.2428,-3.282,-3.2826,-3.3024,-3.3398,-3.3396,-3.3398,-3.3402,-3.3398,-3.2959,-3.2214,-3.2214,-3.2224,-3.2218,0.0,0.0,0.0,0.0,-3.2119,-3.2117,-3.2117,-3.2097,-3.2058,-3.2058,0.0,0.0,0.0,0.0,0.0,0.0,0.0,-3.2135,-3.2154,-3.2197,-3.2208,-3.2218,-3.2505,-3.2795,-3.2829,-3.2518,-3.2338,-3.2709,-3.2765,-3.2861,-3.3277,-3.3751,0.0,0.0,0.0,-3.4863,-3.4863,-3.4863,-3.4863,-3.4863,-3.4414,-3.4121,-3.4121,-3.3672,-3.3242,-3.2891,-3.2871,-3.25,-3.168,-3.1621,-3.1406,0.0,0.0,0.0,0.0,0.0,0.0,0.0,0.0,0.0,0.0,0.0,0.0,0.0,0.0,0.0,0.0,0.0,0.0,0.0,0.0,0.0,0.0,0.0,0.0,0.0,0.0,0.0,0.0,-2.8415,-2.8589,-2.8618,-2.8647,-2.8665,0.0,0.0,0.0,0.0,0.0,0.0,-3.139,-3.1397,-3.1709,-3.2402,-3.2427,-3.2732,-3.3398,-3.3398,-3.3516,-3.373,-3.373,-3.3848,-3.4062,-3.4062,-3.4061,-3.4072,-3.4062,-3.4062,-3.4023,-3.3574,-3.3398,-3.3398,-3.3358,-3.3322,-3.3335,-3.3333,-3.3324,-3.334,-3.3329,-3.3297,-3.3248,-3.3229,-3.317,-3.3121,-3.3131,0.0,0.0,0.0,0.0,-3.3335,-3.3393,-3.3405,-3.3393,-3.3394,-3.3564,-3.3739,-3.3738,-3.3898,-3.3985,-3.3773,-3.3696,-3.3736,-3.4029,-3.4561,0.0,-3.5038,-3.5586,-3.5996,-3.5996,-3.5996,-3.5996,-3.5996,-3.543,-3.5039,-3.5039,-3.4434,-3.3965,-3.375,-3.373,-3.3359,-3.2539,-3.2519,-3.2109,-3.125,0.0,0.0,0.0,0.0,0.0,0.0,0.0,0.0,0.0,0.0,0.0,0.0,0.0,0.0,0.0,0.0,0.0,0.0,0.0,0.0,0.0,0.0,0.0,0.0,0.0,0.0,0.0,0.0,0.0,-3.0375,-3.0424,0.0,0.0,0.0,0.0,-3.1812,-3.1914,-3.2318,-3.3228,-3.3267,-3.3284,-3.3338,-3.3339,-3.3359,-3.3398,-3.3398,-3.3828,-3.4629,-3.4629,-3.5078,-3.5879,-3.5879,-3.5879,-3.5879,-3.5879,-3.5879,-3.5742,-3.4082,-3.3398,-3.3398,-3.3398,-3.3398,-3.3393,-3.3393,-3.3383,-3.3397,-3.3383,-3.339,-3.3383,-3.3325,-3.3256,-3.3198,-3.318,-3.319,0.0,0.0,-3.3342,-3.3393,-3.3393,-3.34,-3.3398,-3.3398,-3.4023,-3.4628,-3.4628,-3.5234,-3.5547,-3.4768,-3.4633,-3.4882,-3.5722,0.0,-3.5937,-3.5937,-3.5976,-3.5996,-3.5996,-3.5996,-3.5996,-3.5996,-3.5957,-3.5937,-3.5937,-3.5898,-3.5527,-3.4687,-3.4629,-3.4258,-3.3379,-3.334,-3.2969,-3.2148,-3.2129,0.0,0.0,0.0,0.0,0.0,0.0,0.0,0.0,0.0,0.0,0.0,0.0,0.0,0.0,0.0,0.0,0.0,0.0,0.0,0.0,0.0,0.0,0.0,0.0,0.0,0.0,0.0,0.0,-3.0617,-3.0646,0.0,-3.1443,-3.1557,-3.1969,-3.2839,-3.29,-3.3051,-3.3383,-3.3402,-3.3656,-3.4219,-3.4238,-3.4512,-3.5078,-3.5078,-3.5234,-3.5547,-3.6113,-3.6543,-3.6855,-3.7422,-3.7676,-3.7676,-3.7676,-3.7676,-3.7637,-3.6992,-3.6094,-3.5078,-3.5078,-3.5078,-3.5078,-3.5079,-3.5064,-3.5071,-3.5076,-3.5031,-3.501,-3.4938,-3.4883,-3.4872,-3.4863,-3.4902,-3.4942,-3.4971,-3.5028,-3.5064,-3.5064,-3.507,-3.5078,-3.5078,-3.5312,-3.5547,-3.5547,-3.5762,-3.5877,-3.5591,-3.5494,-3.5572,-3.5935,-3.5996,-3.5996,-3.5996,-3.5996,-3.5996,-3.5996,-3.5996,-3.5996,-3.5996,-3.5996,-3.5996,-3.5996,-3.5996,-3.5879,-3.5566,-3.5547,-3.5156,-3.4277,-3.4238,-3.3848,-3.2988,-3.2969,-3.2812,0.0,0.0,0.0,0.0,0.0,0.0,0.0,0.0,0.0,0.0,0.0,0.0,0.0,0.0,0.0,0.0,0.0,0.0,0.0,0.0,0.0,0.0,0.0,0.0,0.0,-3.0878,-3.1088,-3.1138,-3.1426,-3.1831,-3.2428,-3.2512,-3.2902,-3.3764,-3.3829,-3.3965,-3.4258,-3.4277,-3.4687,-3.5547,-3.5586,-3.5996,-3.6875,-3.6875,-3.6875,-3.6875,-3.7461,-3.7734,-3.7754,-3.834,-3.8594,-3.8594,-3.8594,-3.8594,-3.8594,-3.8594,-3.793,-3.6875,-3.6875,-3.6875,-3.6875,-3.6875,-3.6875,-3.6875,-3.6875,-3.6855,-3.6796,-3.6735,-3.6718,-3.6705,-3.6716,-3.6732,-3.6783,-3.6795,-3.6836,-3.6875,-3.6875,-3.6875,-3.6875,-3.6875,-3.6641,-3.6445,-3.6445,-3.6211,-3.5996,-3.5996,-3.5951,-3.5942,-3.5994,-3.5996,-3.5996,-3.5996,-3.5996,-3.5996,-3.5996,-3.5996,-3.5996,-3.5994,-3.5996,-3.5996,-3.5996,-3.5996,-3.5996,-3.5994,-3.5996,-3.5742,-3.5156,-3.5137,-3.4726,-3.3867,-3.3555,-3.3398,-3.3398,0.0,0.0,0.0,0.0,0.0,0.0,0.0,0.0,0.0,0.0,0.0,0.0,0.0,0.0,0.0,0.0,0.0,0.0,0.0,0.0,0.0,0.0,0.0,-3.0758,-3.1467,-3.202,-3.2041,-3.2842,-3.3412,-3.3431,-3.3438,-3.3809,-3.4687,-3.4766,-3.5156,-3.5996,-3.6074,-3.6465,-3.7305,-3.7344,-3.7754,-3.8594,-3.8594,-3.8594,-3.8594,-3.8633,-3.8633,-3.8633,-3.8672,-3.8672,-3.8672,-3.8672,-3.8672,-3.8672,-3.8672,-3.8672,-3.8672,-3.8613,-3.8594,-3.8594,-3.8594,-3.8594,-3.8594,-3.8594,-3.8594,-3.8594,-3.8516,-3.8496,-3.8492,-3.8497,-3.8498,-3.852,-3.8583,-3.8594,-3.8594,-3.8594,-3.8594,-3.8594,-3.8594,-3.7969,-3.7344,-3.7344,-3.668,-3.6074,-3.6074,-3.6074,-3.6055,-3.6016,-3.5996,-3.5996,-3.5996,-3.5996,0.0,-3.5996,-3.5996,-3.5995,-3.5996,-3.5992,-3.5996,-3.5996,-3.5996,-3.5994,-3.5994,-3.5993,-3.5996,-3.5996,-3.5996,-3.5605,-3.4766,-3.3906,-3.3476,-3.3437,0.0,0.0,0.0,0.0,0.0,0.0,0.0,0.0,0.0,0.0,0.0,0.0,0.0,0.0,0.0,0.0,0.0,0.0,0.0,0.0,0.0,-3.2575,-3.2386,-3.1791,-3.1913,-3.2303,-3.2941,-3.3248,-3.3651,-3.4276,-3.4333,-3.4707,-3.5586,-3.623,-3.6699,-3.6934,-3.7539,-3.7988,-3.8242,-3.8242,-3.8359,-3.8594,-3.8594,-3.8594,-3.8613,-3.9238,-3.9531,-3.9551,-4.0195,-4.0488,-4.0488,-4.0488,-4.0488,-4.0488,-4.0488,-4.0466,-4.0281,-3.9062,-3.8594,-3.8594,-3.8606,-3.86,-3.8602,-3.8593,-3.8593,-3.8609,-3.8583,-3.8567,-3.8568,-3.8561,-3.8569,-3.8576,-3.8586,-3.8593,-3.8594,-3.8594,-3.8594,-3.8594,-3.8594,-3.8415,-3.8249,-3.8249,-3.8059,-3.7887,-3.7887,-3.7887,-3.7478,-3.6211,-3.5996,-3.5995,-3.6005,-3.6003,-3.6007,-3.5993,-3.5993,-3.5992,-3.6007,-3.6005,-3.6007,-3.5993,-3.5993,-3.5992,-3.6007,-3.6005,-3.6007,-3.5993,-3.5993,-3.5897,-3.5644,-3.541,-3.4961,0.0,0.0,0.0,0.0,0.0,0.0,0.0,0.0,0.0,0.0,0.0,0.0,0.0,0.0,0.0,0.0,0.0,0.0,0.0,0.0,0.0,0.0,-3.3321,-3.3314,-3.3193,-3.3197,-3.337,-3.3885,-3.4277,-3.4687,-3.5195,-3.5566,-3.5996,-3.6504,-3.7344,-3.7832,-3.7832,-3.832,-3.8769,-3.9121,-3.9141,-3.9473,-4.0195,-4.0195,-4.0371,-4.0742,-4.125,-4.1484,-4.1504,-4.2012,-4.2245,-4.2241,-4.2241,-4.2242,-4.2244,-4.2244,-4.2222,-4.2017,0.0,0.0,0.0,0.0,-3.9649,-3.9647,-3.9641,-3.9644,-3.9641,-3.9649,-3.9649,-3.9656,-3.9656,-3.9656,-3.9656,-3.9656,-3.9641,-3.9645,-3.9647,-3.9647,-3.9647,-3.9647,-3.9388,-3.9142,-3.9136,-3.8868,-3.86,-3.86,-3.86,0.0,-3.726,-3.6795,-3.6541,-3.653,-3.6231,-3.5996,-3.6003,-3.6005,-3.6005,-3.6005,-3.5999,-3.5996,-3.6003,-3.6005,0.0,0.0,0.0,-3.5996,-3.6003,-3.6005,0.0,0.0,0.0,-3.5742,-3.5234,-3.5234,0.0,0.0,-3.2871,-3.2422,0.0,0.0,0.0,0.0,0.0,0.0,0.0,0.0,0.0,0.0,0.0,0.0,0.0,0.0,0.0,0.0,-3.3653,-3.3964,-3.4744,-3.492,-3.4964,-3.4856,-3.5623,-3.6152,-3.6152,-3.6934,-3.7441,-3.7441,-3.8242,-3.875,-3.875,-3.8926,0.0,0.0,0.0,-4.1035,-4.2539,-4.2558,-4.2929,-4.3691,-4.3691,-4.3691,-4.3691,-4.3691,-4.3707,-4.3704,-4.37,-4.369,-4.3702,-4.3702,-4.3702,-4.3544,-4.1992,-4.139,-4.1398,-4.1398,-4.1392,-4.1381,-4.1381,0.0,0.0,-4.1387,-4.1381,-4.1381,-4.1381,-4.1381,-4.1361,-4.1264,-4.1244,-4.1231,-4.1123,-4.1105,-4.1105,-4.1105,-4.0558,-4.0049,-4.0037,-3.9429,-3.8882,-3.8882,-3.8882,-3.8882,-3.8882,-3.8073,-3.7455,-3.7455,-3.6704,-3.615,-3.615,-3.6049,-3.5991,-3.5991,-3.5991,0.0,-3.5991,-3.5991,-3.5991,-3.5991,-3.5991,-3.5991,-3.5991,-3.5991,-3.5999,-3.6009,-3.6009,-3.5993,-3.5996,-3.5996,-3.5605,-3.4824,-3.3945,-3.3496,0.0,0.0,0.0,0.0,0.0,0.0,0.0,0.0,0.0,0.0,0.0,0.0,0.0,0.0,0.0,-3.5474,-3.548,-3.5561,-3.572,-3.6345,-3.654,-3.5821,-3.6526,-3.706,-3.7046,-3.7831,-3.8359,-3.8359,-3.916,-3.9648,-3.9648,-4.0937,-4.1738,-4.1914,-4.2598,-4.3123,-4.3456,-4.3456,-4.3523,-4.3706,-4.3706,0.0,-4.3706,-4.3706,-4.3704,-4.37,-4.3707,-4.3704,-4.3707,-4.3707,-4.3707,-4.3668,-4.3333,-4.3199,-4.3202,-4.3199,-4.3196,-4.3196,-4.3196,-4.3199,-4.3199,-4.3196,-4.3196,-4.3196,-4.3196,-4.3196,0.0,-4.2357,-4.2142,-4.1989,-4.1289,-4.1094,-4.1094,-4.1094,-4.0977,-4.0879,-4.0876,-4.0737,-4.062,-4.062,-4.062,-4.062,-4.062,-3.9354,-3.8358,-3.8358,-3.7614,-3.7048,-3.7048,-3.6423,-3.5991,-3.5991,-3.5991,-3.5991,-3.5991,-3.5991,-3.5991,-3.5991,-3.5991,-3.5991,-3.5991,-3.5991,-3.5994,-3.5996,-3.5996,-3.5999,-3.6001,-3.6009,-3.5917,-3.5723,-3.4844,-3.4062,0.0,0.0,0.0,0.0,0.0,0.0,0.0,0.0,0.0,0.0,0.0,-3.5223,-3.5299,0.0,-3.5951,-3.5991,-3.5991,-3.615,-3.6599,-3.7028,-3.7145,-3.6696,-3.7419,-3.7948,-3.7953,-3.8741,-3.9253,-3.9256,-4.0428,-4.1151,-4.1151,-4.2362,-4.3045,-4.3045,-4.3475,-4.3901,-4.436,-4.4351,-4.4566,-4.5004,-4.5004,-4.5004,-4.5004,-4.5004,-4.5004,-4.5004,-4.4995,-4.4992,-4.4992,-4.4992,-4.4992,-4.4992,-4.4992,-4.4465,-4.3704,-4.3704,-4.3704,-4.3704,-4.3704,-4.3704,-4.3704,-4.3704,-4.3704,-4.3704,-4.3704,-4.3704,-4.3606,-4.3177,-4.304,-4.2946,-4.2513,-4.2396,-4.2396,-4.2396,-4.2396,-4.2396,-4.2396,-4.2396,-4.2259,-4.183,-4.1752,-4.1615,-4.1186,-4.0405,-3.9702,-3.9273,-3.8492,-3.7946,-3.7946,-3.7184,-3.6657,-3.6657,-3.6267,-3.5991,-3.5991,-3.5991,-3.5991,-3.5991,-3.5991,-3.5991,-3.5991,-3.5991,-3.5991,-3.5991,-3.5991,-3.5991,-3.5991,-3.5999,-3.6005,-3.5991,-3.5545,-3.5116,0.0,0.0,0.0,0.0,0.0,0.0,0.0,-3.4756,-3.5015,-3.5763,-3.5924,-3.5938,-3.5988,-3.5991,-3.5991,-3.5991,-3.615,-3.6501,-3.7204,-3.7575,-3.7789,-3.7789,-3.8414,-3.8824,-3.8824,-3.978,-4.0391,-4.0381,-4.1787,-4.2646,-4.2646,-4.3486,-4.3954,-4.3954,-4.411,-4.454,-4.5243,-4.5252,-4.5617,-4.63,-4.63,-4.63,-4.63,-4.63,-4.63,-4.63,-4.63,-4.63,-4.63,-4.63,-4.63,-4.63,-4.63,-4.5441,-4.4211,-4.4211,-4.4211,-4.4211,-4.4211,-4.4211,-4.4211,-4.4211,-4.4211,-4.4211,-4.4211,-4.4211,-4.4172,-4.3997,-4.3957,-4.3918,-4.3743,-4.3704,-4.3704,-4.3704,-4.3704,-4.3704,-4.3704,-4.3704,-4.3489,-4.2786,-4.265,-4.2376,-4.1498,-4.1342,-4.1069,-4.0171,-3.9351,-3.8824,-3.8824,-3.8082,-3.7555,-3.7555,-3.6774,-3.6189,-3.601,-3.5991,-3.5991,-3.5991,-3.5991,-3.5991,-3.5991,-3.5991,-3.5991,-3.5991,-3.5991,-3.5991,-3.5991,-3.5991,-3.5991,-3.5994,-3.6003,-3.5992,-3.3038,-3.3796,-3.435,-3.451,-3.508,-3.5654,0.0,-3.5825,-3.5868,-3.5968,-3.5988,-3.5988,-3.5991,-3.5991,-3.5991,-3.5991,-3.6657,-3.7184,-3.7282,-3.859,-3.9527,-3.9527,-3.9605,-3.9663,-3.9663,-4.1147,-4.2123,-4.2126,-4.3004,-4.3551,-4.3548,-4.4387,-4.4859,-4.4859,-4.562,-4.6069,-4.6147,-4.6144,-4.6202,-4.63,-4.63,-4.63,-4.63,-4.63,-4.63,-4.63,-4.63,-4.63,-4.63,-4.63,-4.63,-4.63,-4.63,-4.6183,-4.6007,-4.6007,-4.6007,-4.6007,-4.6007,-4.6007,-4.6007,-4.6007,-4.6007,-4.6007,-4.6007,-4.6007,-4.5851,-4.507,-4.4855,-4.468,-4.3899,-4.3704,-4.3704,-4.3704,-4.3704,-4.3704,-4.3704,-4.3704,-4.3665,-4.3567,-4.3548,-4.3274,-4.2396,-4.2259,-4.1967,-4.1088,-4.0229,-3.9663,-3.9663,-3.8961,-3.8456,-3.8456,-3.7672,-3.6833,-3.6069,-3.5991,-3.5991,-3.5991,-3.5991,-3.5991,-3.5991,-3.5991,-3.5991,-3.5991,-3.5991,-3.5991,-3.5991,-3.5991,-3.5991,-3.5991,-3.5994,-3.6003,-3.3762,-3.4625,-3.53,-3.5321,-3.56,-3.5859,-3.5933,-3.5938,-3.5948,-3.5935,-3.5951,-3.5947,-3.5988,-3.5965,-3.6118,-3.6674,-3.7067,-3.7633,-3.8629,-3.9351,-3.9995,-4.0503,-4.0991,-4.1303,-4.1303,-4.1967,-4.2611,-4.3118,-4.3957,-4.4465,-4.4465,-4.5285,-4.5753,-4.5753,-4.6105,-4.63,-4.63,-4.63,-4.63,-4.63,-4.63,-4.63,-4.63,-4.63,-4.63,-4.63,-4.63,-4.63,-4.63,-4.63,-4.63,-4.63,-4.63,-4.63,-4.63,-4.63,-4.63,-4.63,-4.63,-4.63,-4.63,-4.63,-4.63,-4.63,-4.63,-4.63,-4.6222,-4.5851,-4.5753,-4.5675,-4.5304,-4.5207,-4.5207,-4.5207,-4.5207,-4.5207,-4.5207,-4.5207,-4.5051,-4.4563,-4.4465,-4.4172,-4.3313,-4.2747,-4.2279,-4.1908,-4.1108,-4.0561,-4.0561,-3.9819,-3.9117,-3.8651,-3.7828,-3.7145,-3.6794,-3.6286,-3.5991,-3.5991,-3.5991,-3.5991,-3.5991,-3.5991,-3.5991,-3.5991,-3.5991,-3.5991,-3.5991,-3.5991,-3.5991,-3.5991,-3.5991,-3.5996,-3.4692,-3.5313,-3.5799,-3.5815,-3.5834,-3.585,-3.5885,-3.5898,-3.5911,-3.589,-3.5904,-3.5899,-3.5955,-3.6126,-3.6477,-3.7155,-3.7689,-3.8414,-3.9624,-4.0015,-4.0483,-4.1342,-4.2025,-4.2591,-4.3079,-4.3118,-4.3372,-4.4016,-4.4875,-4.5363,-4.5363,-4.5968,-4.63,-4.63,-4.63,-4.63,-4.63,-4.63,-4.63,-4.63,-4.63,-4.63,-4.63,-4.63,-4.63,-4.63,-4.63,-4.63,-4.63,-4.63,-4.63,-4.63,-4.63,-4.63,-4.63,-4.63,-4.63,-4.63,-4.63,-4.63,-4.63,-4.63,-4.63,-4.63,-4.63,-4.63,-4.63,-4.63,-4.63,-4.63,-4.63,-4.63,-4.63,-4.63,-4.63,-4.63,-4.63,-4.63,-4.6105,-4.548,-4.5363,-4.509,-4.4211,-4.3548,-4.2942,-4.2474,-4.1869,-4.1361,-4.1127,-4.0542,-3.9839,-3.9019,-3.8375,-3.7906,-3.7672,-3.6852,-3.6364,-3.6364,-3.613,-3.5991,-3.5991,-3.5991,-3.5991,-3.5991,-3.5991,-3.5991,-3.5991,-3.5991,-3.5991,-3.5991,-3.5991,-3.5991,-3.576,-3.5779,-3.5826,-3.5891,-3.5898,-3.5911,-3.5903,-3.5908,-3.5908,-3.5889,-3.5908,-3.5908,-3.5894,-3.6596,-3.718,-3.7199,-3.8619,-3.9741,-3.98,-4.0522,-4.1381,-4.2259,-4.2376,-4.306,-4.4758,-4.4914,-4.4933,-4.4953,-4.5773,-4.6261,-4.6261,-4.628,-4.63,-4.63,-4.63,-4.63,-4.63,-4.63,-4.63,-4.63,-4.63,-4.63,-4.63,-4.63,-4.63,-4.63,-4.63,-4.63,-4.63,-4.63,-4.63,-4.63,-4.63,-4.63,-4.63,-4.63,-4.63,-4.63,-4.63,-4.63,-4.63,-4.63,-4.63,-4.63,-4.63,-4.63,-4.63,-4.63,-4.63,-4.63,-4.63,-4.63,-4.63,-4.63,-4.63,-4.63,-4.63,-4.63,-4.628,-4.6261,-4.6261,-4.5987,-4.5109,-4.4933,-4.4348,-4.265,-4.2376,-4.2064,-4.1205,-4.1088,-4.0737,-3.9858,-3.9741,-3.9409,-3.8632,-3.775,-3.7262,-3.7262,-3.6462,-3.5991,-3.5991,-3.5991,-3.5991,-3.5991,-3.5991,-3.5991,-3.5991,-3.5991,-3.5991,-3.5991,-3.5991,-3.5991,-3.5727,-3.5765,-3.5821,-3.5838,-3.5826,-3.5823,-3.5838,-3.5838,-3.5845,-3.5892,-3.6326,-3.6715,-3.676,-3.7436,-3.8195,-3.8764,-3.934,-3.9955,-4.0578,-4.091,-4.1425,-4.2295,-4.2903,-4.3723,-4.4894,-4.4992,-4.5246,-4.5812,-4.6124,-4.63,-4.63,-4.63,-4.63,-4.63,-4.63,-4.63,-4.63,-4.63,-4.63,-4.63,-4.63,-4.63,-4.63,-4.63,-4.63,-4.63,-4.63,-4.63,-4.63,-4.63,-4.63,-4.63,-4.63,-4.63,-4.63,-4.63,-4.63,-4.63,-4.63,-4.63,-4.63,-4.63,-4.63,-4.63,-4.63,-4.63,-4.63,-4.63,-4.63,-4.63,-4.63,-4.63,-4.63,-4.63,-4.63,-4.63,-4.63,-4.63,-4.63,-4.63,-4.63,-4.6202,-4.5909,-4.5382,-4.4406,-4.2669,-4.1908,-4.142,-4.1147,-4.1108,-4.0991,-4.0698,-4.0151,-3.9683,-3.9429,-3.8648,-3.7926,-3.734,-3.7028,-3.6599,-3.601,-3.5991,-3.5991,-3.5991,-3.5991,-3.5991,-3.5991,-3.5991,-3.5991,-3.5991,-3.5991,-3.5991,-3.5708,-3.5737,-3.5766,-3.5766,-3.5765,-3.5773,-3.5782,-3.5801,-3.5818,-3.585,-3.6281,-3.6651,-3.6683,-3.7384,-3.8221,-3.9085,-3.9526,-4.0045,-4.0939,-4.1086,-4.1549,-4.2717,-4.3368,-4.4153,-4.5343,-4.546,-4.5695,-4.6261,-4.63,-4.63,-4.63,-4.63,-4.63,-4.63,-4.63,-4.63,-4.63,-4.63,-4.63,-4.63,-4.63,-4.63,-4.63,-4.63,-4.63,-4.63,-4.63,-4.63,-4.63,-4.63,-4.63,-4.63,-4.63,-4.63,-4.63,-4.63,-4.63,-4.63,-4.63,-4.63,-4.63,-4.63,-4.63,-4.63,-4.63,-4.63,-4.63,-4.63,-4.63,-4.63,-4.63,-4.63,-4.63,-4.63,-4.63,-4.63,-4.63,-4.63,-4.63,-4.63,-4.63,-4.63,-4.63,-4.5578,-4.4621,-4.3509,-4.2318,-4.1439,-4.1147,-4.1108,-4.1108,-4.1108,-4.06,-4.0268,-4.0268,-3.9507,-3.8785,-3.8238,-3.7926,-3.7516,-3.695,-3.6638,-3.6462,-3.6462,-3.6169,-3.5991,-3.5991,-3.5991,-3.5991,-3.5991,-3.5991,-3.5991,-3.5699,-3.5699,-3.5708,-3.5708,-3.5708,-3.5708,-3.5775,-3.5803,-3.5784,-3.5791,-3.5829,-3.5868,-3.5868,-3.6569,-3.7454,-3.8311,-3.9221,-4.0078,-4.089,-4.1056,-4.1735,-4.3436,-4.3673,-4.4367,-4.6066,-4.6261,-4.63,-4.63,-4.63,-4.63,-4.63,-4.63,-4.63,-4.63,-4.63,-4.63,-4.63,-4.63,-4.63,-4.63,-4.63,-4.63,-4.63,-4.63,-4.63,-4.63,-4.63,-4.63,-4.63,-4.63,-4.63,-4.63,-4.63,-4.63,-4.63,-4.63,-4.63,-4.63,-4.63,-4.63,-4.63,-4.63,-4.63,-4.63,-4.63,-4.63,-4.63,-4.63,-4.63,-4.63,-4.63,-4.63,-4.63,-4.63,-4.63,-4.63,-4.63,-4.63,-4.63,-4.63,-4.63,-4.63,-4.63,-4.5617,-4.5051,-4.5012,-4.3548,-4.2142,-4.1283,-4.1127,-4.1108,-4.1108,-4.1108,-4.1108,-4.1108,-4.0346,-3.9858,-3.98,-3.9078,-3.8632,-3.8593,-3.7809,-3.7379,-3.7379,-3.656,-3.613,-3.613,-3.613,-3.613,-3.613,-3.613,-3.613,-3.5706,-3.5707,-3.5698,-3.5698,-3.5689,-3.5708,-3.5718,-3.5737,-3.5737,-3.5727,-3.6289,-3.6763,-3.6763,-3.7489,-3.8341,-3.9235,-3.9574,-4.0018,-4.0887,-4.1018,-4.1429,-4.2526,-4.328,-4.4114,-4.5167,-4.5882,-4.63,-4.63,-4.63,-4.63,-4.63,-4.63,-4.63,-4.63,-4.63,-4.63,-4.63,-4.6245,-4.6245,-4.63,-4.6245,-4.6245,-4.63,-4.63,-4.63,-4.63,-4.63,-4.63,-4.63,-4.63,-4.63,-4.63,-4.63,-4.63,-4.63,-4.63,-4.63,-4.63,-4.63,-4.63,-4.63,-4.63,-4.63,-4.63,-4.63,-4.63,-4.63,-4.63,-4.63,-4.63,-4.63,-4.63,-4.63,-4.63,-4.63,-4.63,-4.63,-4.63,-4.63,-4.63,-4.63,-4.63,-4.63,-4.6124,-4.5753,-4.5109,-4.4075,-4.304,-4.2181,-4.1498,-4.1108,-4.1108,-4.1108,-4.1108,-4.1108,-4.0893,-4.0483,-3.9839,-3.9605,-3.9234,-3.8612,-3.8394,-3.8277,-3.8277,-3.8043,-3.7946,-3.7946,-3.7946,-3.7946,-3.7946,-3.7946,-3.7946,-3.5704,-3.5695,-3.5706,-3.5706,-3.5697,-3.5698,-3.5708,-3.5708,-3.5689,-3.5708,-3.6134,-3.6521,-3.6521,-3.6928,-3.7547,-3.8421,-3.8887,-3.9421,-4.0302,-4.0766,-4.1315,-4.2201,-4.3122,-4.4026,-4.4826,-4.5742,-4.63,-4.63,-4.63,-4.63,-4.63,-4.63,-4.63,-4.63,-4.6273,-4.6264,-4.625,-4.6231,-4.6216,-4.6269,-4.6245,-4.6249,-4.63,-4.63,-4.63,-4.63,-4.63,-4.63,-4.63,-4.63,-4.6277,-4.6269,-4.6269,-4.626,-4.625,-4.625,-4.625,-4.625,-4.625,-4.625,-4.6255,-4.6296,-4.63,-4.63,-4.63,-4.63,-4.63,-4.63,-4.63,-4.63,-4.63,-4.63,-4.63,-4.63,-4.63,-4.63,-4.63,-4.63,-4.63,-4.63,-4.63,-4.63,-4.63,-4.63,-4.6124,-4.5636,-4.4836,-4.3957,-4.3079,-4.1888,-4.1108,-4.1108,-4.1108,-4.1108,-4.1108,-4.1108,-4.0893,-4.0405,-4.0366,-4.0171,-3.9722,-3.9331,-3.9136,-3.9136,-3.8785,-3.8593,-3.8593,-3.8593,-3.8593,-3.8593,-3.8593,-3.8593,-3.5704,-3.5704,-3.5704,-3.5704,-3.5704,-3.5695,-3.5697,-3.5697,-3.5707,-3.5689,-3.5757,-3.5794,-3.5794,-3.5793,-3.6082,-3.6964,-3.7722,-3.8576,-3.9567,-4.036,-4.1143,-4.2007,-4.3046,-4.3958,-4.4655,-4.5675,-4.6292,-4.6292,-4.6292,-4.6296,-4.63,-4.63,-4.6296,-4.6292,-4.6236,-4.6209,-4.6196,-4.6183,-4.6201,-4.6206,-4.6264,-4.6296,-4.63,-4.63,-4.63,-4.6296,-4.6296,-4.6296,-4.6292,-4.6292,-4.624,-4.6201,-4.6201,-4.6203,-4.6196,-4.6196,-4.6196,-4.6196,-4.6196,-4.6196,-4.6209,-4.626,-4.6296,-4.6296,-4.6296,-4.63,-4.63,-4.63,-4.63,-4.63,-4.63,-4.63,-4.63,-4.63,-4.63,-4.63,-4.63,-4.63,-4.63,-4.63,-4.63,-4.63,-4.63,-4.63,-4.63,-4.63,-4.5558,-4.4738,-4.3977,-4.2357,-4.1225,-4.1108,-4.1108,-4.1108,-4.1108,-4.1108,-4.1108,-4.1108,-4.1108,-4.1108,-4.1108,-4.0366,-3.9976,-3.9976,-3.9292,-3.8924,-3.8924,-3.8924,-3.8924,-3.8924,-3.8927,-3.8927,-3.5704,-3.5704,-3.5704,-3.5704,-3.5704,-3.5704,-3.5695,-3.5695,-3.5695,-3.5695,-3.5707,-3.5728,-3.5728,-3.5756,-3.6084,-3.6964,-3.7236,-3.7877,-3.9489,-3.9829,-4.0237,-4.1062,-4.2563,-4.3588,-4.3724,-4.5241,-4.6216,-4.6216,-4.6216,-4.624,-4.63,-4.6245,-4.6226,-4.6216,-4.6209,-4.6203,-4.6196,-4.6154,-4.6157,-4.6206,-4.6209,-4.6245,-4.63,-4.63,-4.6273,-4.6216,-4.6216,-4.622,-4.6216,-4.6216,-4.6216,-4.6209,-4.6209,-4.6203,-4.6196,-4.6196,-4.6196,-4.6196,-4.6196,-4.6196,-4.6203,-4.6209,-4.6215,-4.6216,-4.6216,-4.6269,-4.63,-4.63,-4.63,-4.63,-4.63,-4.63,-4.63,-4.63,-4.63,-4.63,-4.63,-4.63,-4.63,-4.63,-4.63,-4.63,-4.63,-4.63,-4.63,-4.63,-4.5558,-4.4953,-4.4797,-4.3255,-4.1908,-4.1186,-4.1108,-4.1108,-4.1108,-4.1108,-4.1108,-4.1108,-4.1108,-4.1108,-4.1108,-4.0952,-4.0873,-4.0873,-4.0737,-4.0678,-4.0678,-4.0678,-4.0678,-4.0662,-4.0676,-4.0674,-3.5704,-3.5704,-3.5704,-3.5704,-3.5704,-3.5704,-3.5704,-3.5704,-3.5695,-3.5706,-3.5707,-3.5718,-3.5737,-3.5784,-3.5937,-3.6362,-3.6809,-3.7547,-3.8848,-3.9412,-3.9994,-4.0791,-4.206,-4.3039,-4.3467,-4.4732,-4.5709,-4.6176,-4.6196,-4.6216,-4.6245,-4.6209,-4.619,-4.6146,-4.6146,-4.6138,-4.6093,-4.6093,-4.6127,-4.6203,-4.6203,-4.622,-4.6245,-4.6245,-4.6231,-4.6203,-4.6203,-4.6196,-4.6196,-4.6196,-4.6189,-4.6146,-4.6146,-4.613,-4.6093,-4.6093,-4.6093,-4.6093,-4.6093,-4.6093,-4.6093,-4.6093,-4.6135,-4.6203,-4.6203,-4.6226,-4.624,-4.625,-4.6264,-4.63,-4.6269,-4.6273,-4.63,-4.63,-4.63,-4.63,-4.63,-4.63,-4.63,-4.63,-4.63,-4.63,-4.63,-4.63,-4.63,-4.63,-4.5948,-4.5519,-4.507,-4.427,-4.3255,-4.1927,-4.1361,-4.1108,-4.1108,-4.1108,-4.1108,-4.1108,-4.1108,-4.1108,-4.1108,-4.1108,-4.1108,-4.1108,-4.1108,-4.1094,-4.1103,-4.1103,-4.1107,-4.1093,-4.1094,-4.1094,-3.5414,-3.5549,-3.5704,-3.5704,-3.5704,-3.5704,-3.5704,-3.5704,-3.5695,-3.5697,-3.5708,-3.5728,-3.5794,-3.5793,-3.581,-3.5791,-3.6382,-3.7139,-3.7994,-3.8868,-3.9723,-4.0558,-4.1604,-4.2602,-4.3411,-4.4339,-4.5239,-4.6096,-4.6154,-4.6154,-4.6189,-4.6189,-4.6146,-4.6084,-4.6084,-4.6047,-4.5997,-4.6047,-4.6102,-4.6189,-4.6177,-4.6189,-4.6201,-4.6201,-4.6183,-4.6189,-4.6189,-4.6162,-4.6154,-4.6154,-4.613,-4.6084,-4.6084,-4.6056,-4.5997,-4.5997,-4.5997,-4.5997,-4.5997,-4.5997,-4.5997,-4.5997,-4.6084,-4.6189,-4.6189,-4.619,-4.6195,-4.6203,-4.6234,-4.6264,-4.6206,-4.6236,-4.6277,-4.63,-4.63,-4.63,-4.63,-4.63,-4.63,-4.63,-4.6296,-4.6277,-4.63,-4.6296,-4.6277,-4.63,-4.63,-4.6046,-4.5363,-4.5129,-4.4406,-4.2845,-4.1908,-4.1303,-4.1127,-4.1108,-4.1108,-4.1108,-4.1108,-4.1108,-4.1108,-4.1108,-4.1091,-4.1097,-4.1097,-4.1105,-4.1093,-4.1093,-4.1094,-4.1107,-4.1103,-4.1105,-3.4524,-3.5104,-3.5704,-3.5704,-3.5704,-3.5704,-3.5704,-3.5704,-3.5695,-3.5697,-3.5707,-3.5728,-3.5794,-3.5803,-3.5793,-3.5791,-3.5877,-3.6226,-3.71,-3.7974,-3.8829,-3.9703,-4.1228,-4.2549,-4.3423,-4.4297,-4.5162,-4.5959,-4.6017,-4.6037,-4.6102,-4.6102,-4.6084,-4.6007,-4.6007,-4.6007,-4.5997,-4.6007,-4.6037,-4.6102,-4.6111,-4.6146,-4.6203,-4.6203,-4.6162,-4.6102,-4.6102,-4.6075,-4.6017,-4.6017,-4.6017,-4.6007,-4.6007,-4.6007,-4.5997,-4.5997,-4.5997,-4.5997,-4.5997,-4.5997,-4.5997,-4.5997,-4.6056,-4.6102,-4.6102,-4.6154,-4.6203,-4.6196,-4.6203,-4.6209,-4.6203,-4.6209,-4.6216,-4.6296,-4.63,-4.63,-4.63,-4.63,-4.63,-4.63,-4.6245,-4.6236,-4.6296,-4.6245,-4.624,-4.6296,-4.63,-4.6261,-4.6183,-4.55,-4.4641,-4.3684,-4.2806,-4.1967,-4.1166,-4.1108,-4.1108,-4.1108,-4.1108,-4.1108,-4.1108,-4.1108,-4.1099,-4.109,-4.1091,-4.1094,-4.1108,-4.1108,-4.1108,-4.1107,-4.1111,-4.1091,-3.4253,-3.464,-3.5027,-3.5568,-3.5704,-3.5704,-3.5704,-3.5704,-3.5695,-3.5697,-3.5698,-3.5718,-3.5794,-3.5793,-3.5801,-3.5791,-3.5799,-3.611,-3.6984,-3.7838,-3.8712,-3.9606,-4.0713,-4.1976,-4.3355,-4.3821,-4.4579,-4.5899,-4.5997,-4.6007,-4.6027,-4.6037,-4.6027,-4.5997,-4.5997,-4.5997,-4.5997,-4.5997,-4.6027,-4.6093,-4.6093,-4.6102,-4.6138,-4.6138,-4.6102,-4.6037,-4.6037,-4.6017,-4.5997,-4.5997,-4.5997,-4.5997,-4.5997,-4.5997,-4.5997,-4.5997,-4.5997,-4.5997,-4.5997,-4.5997,-4.5997,-4.5997,-4.6017,-4.6037,-4.6037,-4.6084,-4.6138,-4.6093,-4.6138,-4.6196,-4.6196,-4.624,-4.6273,-4.63,-4.63,-4.63,-4.63,-4.63,-4.63,-4.63,-4.6245,-4.6211,-4.624,-4.622,-4.6203,-4.6234,-4.624,-4.624,-4.624,-4.5942,-4.5396,-4.4518,-4.322,-4.2045,-4.1166,-4.1108,-4.1094,-4.1105,-4.1105,-4.1108,-4.1093,-4.1093,-4.1094,-4.1093,-4.1093,-4.1108,-4.1091,-4.1091,-4.1101,-4.11,-4.1106,-4.1106,-3.3418,-3.3939,-3.445,-3.5068,-3.5372,-3.5553,-3.5601,-3.5601,-3.5612,-3.5667,-3.5698,-3.5699,-3.5757,-3.5765,-3.5782,-3.5791,-3.581,-3.6004,-3.6634,-3.7469,-3.8343,-3.9217,-4.0033,-4.1315,-4.3316,-4.3957,-4.4734,-4.5899,-4.5997,-4.5997,-4.5997,-4.5997,-4.5997,-4.5997,-4.5997,-4.5997,-4.5997,-4.5997,-4.6017,-4.6075,-4.6075,-4.6075,-4.6075,-4.6075,-4.6037,-4.5997,-4.5997,-4.5997,-4.5997,-4.5997,-4.5997,-4.5997,-4.5997,-4.5997,-4.5997,-4.5997,-4.5997,-4.5997,-4.5997,-4.5997,-4.5997,-4.5997,-4.5997,-4.5997,-4.5997,-4.6027,-4.6066,-4.6007,-4.6075,-4.6146,-4.6181,-4.6222,-4.6255,-4.6269,-4.6273,-4.6273,-4.6273,-4.6273,-4.6269,-4.6264,-4.622,-4.6183,-4.6195,-4.6183,-4.6181,-4.6196,-4.6209,-4.619,-4.6196,-4.6209,-4.5878,-4.4988,-4.3836,-4.2689,-4.1585,-4.1244,-4.1097,-4.1107,-4.1093,-4.1094,-4.1092,-4.1108,-4.1105,-4.1101,-4.1101,-4.1111,-4.1096,-4.1096,-4.11,-4.111,-4.111,-4.111,-3.1634,-3.2833,-3.4109,-3.4109,-3.4611,-3.5162,-3.5347,-3.5399,-3.5445,-3.5566,-3.5648,-3.5707,-3.5707,-3.5689,-3.5727,-3.5791,-3.5793,-3.5812,-3.581,-3.6556,-3.743,-3.8305,-3.9179,-4.0713,-4.3258,-4.5006,-4.5977,-4.5997,-4.5997,-4.5997,-4.5997,-4.5997,-4.5997,-4.5997,-4.5997,-4.5997,-4.5997,-4.5997,-4.5997,-4.5997,-4.5997,-4.5997,-4.5997,-4.5997,-4.5997,-4.5997,-4.5997,-4.5997,-4.5997,-4.5997,-4.5997,-4.5997,-4.5997,-4.5997,-4.5997,-4.5997,-4.5997,-4.5997,-4.5997,-4.5997,-4.5997,-4.5997,-4.5997,-4.5997,-4.5997,-4.5997,-4.5997,-4.5997,-4.5997,-4.6017,-4.6084,-4.6093,-4.6119,-4.6195,-4.6206,-4.6206,-4.6206,-4.6206,-4.6201,-4.6203,-4.6146,-4.6111,-4.6189,-4.6146,-4.6111,-4.6196,-4.6209,-4.6195,-4.6203,-4.6209,-4.5864,-4.4988,-4.4883,-4.4202,-4.2534,-4.1592,-4.1097,-4.1111,-4.1094,-4.1092,-4.1092,-4.1093,-4.1099,-4.1094,-4.1094,-4.1096,-4.111,-4.111,-4.111,-4.111,-4.111,-4.111,-3.1417,-3.1924,-3.2541,-3.3794,-3.4203,-3.4439,-3.5059,-3.5174,-3.5209,-3.5254,-3.5316,-3.5364,-3.5364,-3.5353,-3.5412,-3.5579,-3.559,-3.563,-3.5782,-3.6556,-3.7411,-3.8305,-4.0169,-4.1956,-4.3355,-4.452,-4.5414,-4.5958,-4.5997,-4.5997,-4.5997,-4.5997,-4.5997,-4.5997,-4.5997,-4.5997,-4.5997,-4.5997,-4.5997,-4.5997,-4.5997,-4.5997,-4.5997,-4.5997,-4.5997,-4.5997,-4.5997,-4.5997,-4.5997,-4.5997,-4.5997,-4.5997,-4.5997,-4.5997,-4.5997,-4.5997,-4.5997,-4.5997,-4.5997,-4.5997,-4.5997,-4.5997,-4.5997,-4.5997,-4.5997,-4.5997,-4.5997,-4.5997,-4.6027,-4.6075,-4.6093,-4.6138,-4.6169,-4.619,-4.6196,-4.6196,-4.6196,-4.6196,-4.619,-4.6203,-4.6146,-4.6102,-4.6138,-4.6075,-4.6047,-4.6111,-4.6127,-4.6142,-4.6196,-4.6169,-4.602,-4.5752,-4.5195,-4.4161,-4.2538,-4.2158,-4.1728,-4.1132,-4.1103,-4.1094,-4.1101,-4.1105,-4.1106,-4.1095,-4.1095,-4.1103,-4.111,-4.111,-4.111,-4.111,-4.111,-4.111,-3.0767,-3.1121,-3.1558,-3.2679,-3.335,-3.3859,-3.444,-3.4821,-3.5049,-3.5083,-3.5133,-3.5165,-3.5168,-3.5162,-3.5215,-3.5355,-3.5412,-3.5469,-3.5639,-3.6134,-3.6949,-3.819,-4.0626,-4.2539,-4.3413,-4.4287,-4.5122,-4.5938,-4.5997,-4.5997,-4.5997,-4.5997,-4.5997,-4.5997,-4.5997,-4.5997,-4.5997,-4.5997,-4.5997,-4.5997,-4.5997,-4.5997,-4.5997,-4.5997,-4.5997,-4.5997,-4.5997,-4.5997,0.0,-4.5997,-4.5997,-4.5997,-4.5997,-4.5997,-4.5997,-4.5997,-4.5997,-4.5997,-4.5997,-4.5997,-4.5997,-4.5997,-4.5997,-4.5997,-4.5997,-4.5997,-4.5997,-4.5997,-4.6027,-4.6066,-4.6066,-4.6093,-4.6138,-4.6154,-4.6154,-4.6154,-4.6154,-4.6154,-4.6154,-4.6138,-4.6093,-4.6066,-4.6066,-4.6056,-4.6037,-4.6093,-4.6111,-4.6154,-4.6196,-4.615,-4.6144,-4.6138,-4.565,-4.4781,-4.3464,-4.2747,-4.2148,-4.1611,-4.1277,-4.11,-4.1091,-4.1103,-4.111,-4.111,-4.111,-4.111,-4.111,-4.111,-4.111,-4.111,-4.111,-4.111,0.0,-3.0421,-3.1025,-3.1082,-3.2204,-3.3368,-3.3618,-3.4301,0.0,-3.5035,-3.5066,-3.5064,-3.5051,-3.5066,-3.5078,-3.517,-3.5234,-3.5311,-3.5391,-3.5554,-3.6303,-3.8001,-4.0509,-4.2481,-4.3413,-4.4229,-4.5064,-4.5919,-4.5997,-4.5997,-4.5997,-4.5997,-4.5997,-4.5997,-4.5997,-4.5997,-4.5997,-4.5997,-4.5997,-4.5997,-4.5997,-4.5997,-4.5997,-4.5997,-4.5997,-4.5997,-4.5997,-4.5997,-4.5997,-4.5997,-4.5997,-4.5997,-4.5997,-4.5997,-4.5997,-4.5997,-4.5997,-4.5997,-4.5997,-4.5997,-4.5997,-4.5997,-4.5997,-4.5997,-4.5997,-4.5997,-4.5997,-4.5997,-4.5997,-4.5997,-4.5997,-4.5997,-4.6017,-4.6084,-4.6093,-4.6093,-4.6093,-4.6093,-4.6075,-4.6007,-4.5997,-4.5997,-4.5997,-4.6037,-4.6093,-4.6122,-4.6154,-4.6203,-4.6209,-4.6195,-4.6197,-4.6201,-4.6199,-4.5868,-4.5058,-4.345,-4.2468,-4.2392,-4.1647,-4.1153,-4.1109,-4.1095,-4.111,-4.111,-4.111,-4.111,-4.111,-4.111,-4.111,-4.111,-4.111,-4.111,-2.9738,0.0,-3.0206,-3.0915,-3.1751,-3.2594,0.0,-3.4085,-3.4668,-3.471,-3.4711,-3.4711,-3.473,-3.4711,-3.4773,-3.4942,-3.5083,-3.5216,-3.5378,-3.6614,-3.7674,-3.8136,-3.9932,-4.1748,-4.3345,-4.3685,-4.4423,-4.588,-4.5997,-4.5997,-4.5997,-4.5997,-4.5997,-4.5997,-4.5997,-4.5997,-4.5997,-4.5997,-4.5997,-4.5997,-4.5997,-4.5997,-4.5997,-4.5997,-4.5997,-4.5997,-4.5997,-4.5997,-4.5997,-4.5997,-4.5997,-4.5997,-4.5997,-4.5997,-4.5997,-4.5997,-4.5997,-4.5997,-4.5997,-4.5997,-4.5997,-4.5997,-4.5997,-4.5997,-4.5997,-4.5997,-4.5997,-4.5997,-4.5997,-4.5997,-4.5997,-4.5997,-4.6007,-4.6017,-4.6017,-4.6017,-4.6017,-4.6017,-4.6017,-4.6007,-4.5997,-4.5997,-4.5997,-4.6007,-4.6066,-4.6154,-4.6189,-4.6209,-4.6273,-4.6231,-4.6202,-4.6208,-4.6207,-4.6122,-4.5913,-4.4911,-4.3745,-4.2474,-4.2217,-4.1808,-4.1125,-4.1103,-4.111,-4.111,-4.111,-4.111,-4.111,-4.111,-4.111,-4.111,-4.111,-4.111,-2.9701,-2.9701,-2.9832,-3.0318,-3.1017,-3.1767,-3.2611,-3.3456,-3.4151,-3.4508,-3.4602,-3.4602,-3.4602,-3.4602,-3.4647,-3.4753,-3.4889,-3.5088,-3.5281,-3.692,-3.8119,-3.8148,-3.9746,-4.1537,-4.3325,-4.351,-4.421,-4.5861,-4.5997,-4.5997,-4.5997,-4.5997,-4.5997,-4.5997,-4.5997,-4.5997,-4.5997,-4.5997,-4.5997,-4.5997,-4.5997,-4.5997,-4.5997,-4.5997,-4.5997,-4.5997,-4.5997,-4.5997,-4.5997,-4.5997,-4.5997,-4.5997,-4.5997,-4.5997,-4.5997,-4.5997,-4.5997,-4.5997,-4.5997,-4.5997,-4.5997,-4.5997,-4.5997,-4.5997,-4.5997,-4.5997,-4.5997,-4.5997,-4.5997,-4.5997,-4.5997,-4.5997,-4.5997,-4.5997,-4.5997,-4.5997,-4.5997,-4.5997,-4.5997,-4.5997,-4.5997,-4.5997,-4.5997,-4.6017,-4.6075,-4.6146,-4.6154,-4.617,-4.6245,-4.6195,-4.6187,-4.6241,-4.6251,-4.6253,-4.6245,-4.5815,-4.4959,-4.3631,-4.2822,-4.2173,-4.1668,-4.1311,-4.111,-4.111,-4.111,-4.111,-4.111,-4.111,-4.111,-4.111,-4.111,-4.111,-2.9701,-2.9701,-2.9701,-2.9701,-3.0302,-3.111,-3.1917,-3.278,-3.3625,-3.4433,-3.4602,-3.4602,-3.4602,-3.4602,-3.4602,-3.4602,-3.4771,-3.4982,-3.5157,-3.6848,-3.8047,-3.8093,-3.9727,-4.15,-4.3131,-4.3403,-4.4122,-4.5686,-4.5919,-4.5997,-4.5997,-4.5997,-4.5997,-4.5997,-4.5997,-4.5997,-4.5997,-4.5997,-4.5997,-4.5997,-4.5997,-4.5997,-4.5997,-4.5997,-4.5997,-4.5997,-4.5997,-4.5997,-4.5997,-4.5997,-4.5997,-4.5997,-4.5997,-4.5997,-4.5997,-4.5997,-4.5997,-4.5997,-4.5997,-4.5997,-4.5997,-4.5997,-4.5997,-4.5997,-4.5997,-4.5997,-4.5997,-4.5997,-4.5997,-4.5997,-4.5997,-4.5997,-4.5997,-4.5997,-4.5997,-4.5997,-4.5997,-4.5997,-4.5997,-4.5997,-4.5997,-4.5997,-4.5997,-4.6056,-4.6093,-4.6102,-4.613,-4.6142,-4.6201,-4.6153,-4.6169,-4.6265,-4.628,-4.6279,-4.6279,-4.6279,-4.5952,-4.515,-4.3643,-4.2629,-4.2318,-4.152,-4.1091,-4.111,-4.111,-4.111,-4.111,-4.111,-4.111,-4.111,-4.111,-4.111,-2.9701,-2.9701,-2.9701,-2.9701,-3.0302,-3.111,-3.1917,-3.278,-3.3625,-3.4433,-3.4602,-3.4602,-3.4602,-3.4602,-3.4602,-3.4602,-3.4771,-3.4982,-3.5157,-3.6676,-3.7843,-3.808,-3.9605,-4.11,-4.2285,-4.3022,-4.3818,-4.4819,-4.5576,-4.5994,-4.5997,-4.5997,-4.5997,-4.5997,-4.5997,-4.5997,-4.5997,-4.5997,-4.5997,-4.5997,-4.5997,-4.5997,-4.5997,-4.5997,-4.5997,-4.5997,-4.5997,-4.5997,-4.5997,-4.5997,-4.5997,-4.5997,-4.5997,-4.5997,-4.5997,-4.5997,-4.5997,-4.5997,-4.5997,-4.5997,-4.5997,-4.5997,-4.5997,-4.5997,-4.5997,-4.5997,-4.5997,-4.5997,-4.5997,-4.5997,-4.5997,-4.5997,-4.5997,-4.5997,-4.5997,-4.5997,-4.5997,-4.5997,-4.5997,-4.5997,-4.5997,-4.5997,-4.5997,-4.6007,-4.6047,-4.6181,-4.6189,-4.6201,-4.6288,-4.6229,-4.6182,-4.6206,-4.6215,-4.6216,-4.6209,-4.6209,-4.6144,-4.6008,-4.5078,-4.388,-4.2434,-4.1557,-4.1103,-4.111,-4.111,-4.111,-4.111,-4.111,-4.111,-4.111,-4.111,-4.111,-2.9701,-2.9701,-2.9701,-2.9701,-2.9983,-3.0584,-3.1823,-3.2405,-3.3062,-3.4339,-3.4602,-3.4602,-3.4602,-3.4602,-3.4645,-3.4751,-3.485,-3.5134,-3.5806,-3.6996,-3.8047,-3.867,-3.9774,-4.0924,-4.2039,-4.2381,-4.3143,-4.4583,-4.506,-4.5498,-4.5977,-4.5997,-4.5997,-4.5994,-4.5997,-4.5986,-4.5953,-4.5983,-4.5994,-4.5994,-4.5994,-4.5983,-4.5953,-4.5953,-4.5953,-4.5953,-4.5953,-4.5953,-4.5953,-4.5994,-4.5983,-4.5953,-4.5994,-4.5994,-4.5994,-4.5997,-4.5997,-4.5997,-4.5997,-4.5997,-4.5997,-4.5997,-4.5997,-4.5997,-4.5997,-4.5997,-4.5997,-4.5997,-4.5997,-4.5997,-4.5997,-4.5997,-4.5997,-4.5997,-4.5997,-4.5997,-4.5997,-4.5997,-4.5997,-4.5997,-4.5997,-4.5997,-4.5997,-4.5997,-4.6017,-4.6084,-4.6111,-4.6157,-4.6198,-4.6191,-4.6204,-4.6195,-4.6195,-4.6203,-4.6195,-4.6209,-4.5988,-4.5526,-4.5111,-4.4331,-4.3103,-4.222,-4.174,-4.1753,-4.1325,-4.111,-4.111,-4.111,-4.111,-4.111,-4.111,-4.111,-2.9701,-2.9701,-2.9701,-2.9701,-2.9701,-3.0114,-3.1729,-3.2105,-3.2574,-3.4245,-3.4602,-3.4602,-3.4602,-3.4602,-3.4647,-3.485,-3.487,-3.523,-3.627,-3.7211,-3.8134,-3.9073,-3.9865,-4.0677,-4.1571,-4.1702,-4.2343,-4.3847,-4.4356,-4.4897,-4.5592,-4.5847,-4.5994,-4.5991,-4.5983,-4.5953,-4.5886,-4.5949,-4.598,-4.598,-4.598,-4.5949,-4.5905,-4.5905,-4.5905,-4.5905,-4.5905,-4.5905,-4.5898,-4.596,-4.5949,-4.5917,-4.596,-4.598,-4.5991,-4.5975,-4.5975,-4.5986,-4.5986,-4.5986,-4.5986,-4.5986,-4.5986,-4.6005,-4.5986,-4.5986,-4.5986,-4.5986,-4.5997,-4.5997,-4.5997,-4.5997,-4.5997,-4.5997,-4.5997,-4.5997,-4.5997,-4.5997,-4.5997,-4.5997,-4.5997,-4.5997,-4.5997,-4.5997,-4.6007,-4.6017,-4.6084,-4.613,-4.6123,-4.6166,-4.6208,-4.6206,-4.6206,-4.6203,-4.6195,-4.6203,-4.5916,-4.5245,-4.5013,-4.4598,-4.3927,-4.3072,-4.2591,-4.2611,-4.2007,-4.1598,-4.1383,-4.1383,-4.1286,-4.111,-4.111,-4.111,-2.9701,-2.9701,-2.9701,-2.9701,-2.9701,-3.0114,-3.1729,-3.2105,-3.2574,-3.4245,-3.4602,-3.4602,-3.4602,-3.4602,-3.4645,-3.4788,-3.4809,-3.5151,-3.6102,-3.6918,-3.7775,-3.8727,-3.9604,-4.0177,-4.0323,-4.1051,-4.1586,-4.1719,-4.3349,-4.4388,-4.451,-4.5409,-4.5917,-4.5917,-4.5917,-4.5898,-4.5905,-4.5898,-4.5917,-4.5917,-4.5917,-4.5898,-4.5905,-4.5905,-4.5905,-4.5905,-4.5905,-4.5905,-4.5886,-4.5917,-4.5898,-4.5886,-4.5917,-4.5917,-4.5917,-4.5917,-4.5917,-4.5917,-4.5991,-4.6003,-4.6003,-4.6003,-4.6003,-4.5991,-4.5929,-4.596,-4.6003,-4.6003,-4.5994,-4.5997,-4.5997,-4.5997,-4.5997,-4.5997,-4.5997,-4.5997,-4.5997,-4.5997,-4.5997,-4.5997,-4.5997,-4.5997,-4.5997,-4.5997,-4.6017,-4.6084,-4.6146,-4.6183,-4.6195,-4.6191,-4.62,-4.6206,-4.6201,-4.6203,-4.6203,-4.6203,-4.617,-4.6105,-4.5357,-4.4869,-4.4805,-4.398,-4.35,-4.3507,-4.3442,-4.302,-4.2221,-4.2221,-4.1831,-4.111,-4.111,-4.111,-2.9511,-2.9589,-2.9701,-2.9701,-3.0077,-3.0753,-3.1842,-3.2518,-3.3231,-3.4358,-3.4602,-3.4602,-3.4602,-3.4602,-3.4645,-3.4768,-3.4788,-3.5301,-3.6745,-3.7201,-3.7944,-3.9375,-3.973,-3.9939,-4.0195,-4.0387,-4.0787,-4.1454,-4.2159,-4.2804,-4.3374,-4.3878,-4.4148,-4.4172,-4.4809,-4.5124,-4.5086,-4.5635,-4.5887,-4.5841,-4.5887,-4.5887,-4.5841,-4.5841,-4.5841,-4.5841,-4.5841,-4.5841,-4.5854,-4.5887,-4.5887,-4.5854,-4.5867,-4.5899,-4.5899,-4.5905,-4.5905,-4.5917,-4.598,-4.596,-4.5929,-4.5991,-4.596,-4.5929,-4.5917,-4.5917,-4.5949,-4.5949,-4.5941,-4.5953,-4.5986,-4.5997,-4.5997,-4.5997,-4.5997,-4.5997,-4.5997,-4.5997,-4.5997,-4.5997,-4.5997,-4.5997,-4.5997,-4.5997,-4.6007,-4.6027,-4.6093,-4.6144,-4.6147,-4.617,-4.6204,-4.6206,-4.6195,-4.619,-4.6196,-4.6196,-4.6203,-4.6209,-4.5884,-4.5709,-4.5715,-4.4871,-4.441,-4.4403,-4.3877,-4.3442,-4.3111,-4.3111,-4.2961,-4.265,-4.265,-4.265,-2.9412,-2.955,-2.9683,-2.9664,-3.0283,-3.109,-3.1916,-3.276,-3.3625,-3.4433,-3.4602,-3.4602,-3.4602,-3.4602,-3.4623,-3.4708,-3.4747,-3.5239,-3.672,-3.7135,-3.7839,-3.9286,-3.9569,-3.9758,-3.9979,-3.9892,-4.0119,-4.0841,-4.1188,-4.1628,-4.2221,-4.271,-4.2967,-4.2972,-4.3757,-4.4142,-4.4105,-4.4736,-4.5053,-4.5007,-4.5053,-4.5324,-4.58,-4.58,-4.58,-4.58,-4.58,-4.58,-4.58,-4.5847,-4.5847,-4.5814,-4.5847,-4.586,-4.586,-4.5867,-4.588,-4.588,-4.5956,-4.5937,-4.5912,-4.5956,-4.5937,-4.5893,-4.5861,-4.588,-4.5893,-4.5893,-4.5925,-4.5929,-4.5994,-4.6005,-4.6005,-4.5997,-4.5997,-4.5997,-4.5997,-4.5997,-4.5997,-4.5997,-4.5997,-4.5997,-4.5997,-4.5997,-4.5997,-4.5997,-4.6074,-4.6112,-4.6105,-4.6151,-4.62,-4.6201,-4.6203,-4.619,-4.6196,-4.6196,-4.6196,-4.6196,-4.6196,-4.6203,-4.6196,-4.5618,-4.5299,-4.5299,-4.4715,-4.4286,-4.4014,-4.4014,-4.3877,-4.3598,-4.3598,-4.3598,-2.9392,-2.955,-2.9683,-2.9607,-3.0206,-3.103,-3.1892,-3.2777,-3.3625,-3.4433,-3.4602,-3.4602,-3.4602,-3.4602,-3.4602,-3.4602,-3.4602,-3.4902,-3.5784,-3.6592,-3.7399,-3.8206,-3.907,-3.9602,-3.9602,-3.9602,-3.9602,-3.9602,-4.0518,-4.1089,-4.1089,-4.2103,-4.268,-4.268,-4.2883,-4.2986,-4.2986,-4.3197,-4.3305,-4.3305,-4.3305,-4.4175,-4.578,-4.578,-4.578,-4.578,-4.578,-4.578,-4.58,-4.58,-4.58,-4.58,-4.58,-4.58,-4.58,-4.58,-4.58,-4.5814,-4.588,-4.5893,-4.5893,-4.5893,-4.5893,-4.5893,-4.5814,-4.5847,-4.5893,-4.5893,-4.5944,-4.5991,-4.5991,-4.5991,-4.6003,-4.5997,-4.5997,-4.5997,-4.5997,-4.5997,-4.5997,-4.5997,-4.5997,-4.5997,-4.5997,-4.5997,-4.5997,-4.5997,-4.6103,-4.6172,-4.6108,-4.6152,-4.6206,-4.6203,-4.6196,-4.6196,-4.6196,-4.6196,-4.6196,-4.6196,-4.6196,-4.6196,-4.6196,-4.6196,-4.6196,-4.6196,-4.6196,-4.5767,-4.489,-4.489,-4.4442,-4.3598,-4.3598,-4.3598,-2.9048,-2.9228,-2.9414,-2.9394,-3.0107,-3.1007,-3.1829,-3.2695,-3.3564,-3.4414,-3.4602,-3.4602,-3.4602,-3.4602,-3.4602,-3.4602,-3.4602,-3.4902,-3.5784,-3.6592,-3.7399,-3.8206,-3.907,-3.9602,-3.9602,-3.9602,-3.9602,-3.9602,-3.9881,-4.0042,-4.0042,-4.0479,-4.0741,-4.0741,-4.1605,-4.2101,-4.2101,-4.2888,-4.3305,-4.3305,-4.3305,-4.3556,-4.404,-4.404,-4.4388,-4.4968,-4.4968,-4.5278,-4.58,-4.58,-4.58,-4.58,-4.58,-4.58,-4.58,-4.58,-4.58,-4.5814,-4.588,-4.586,-4.5847,-4.5874,-4.586,-4.5833,-4.5814,-4.5814,-4.5827,-4.5827,-4.5874,-4.5932,-4.5937,-4.596,-4.6003,-4.5997,-4.5997,-4.5997,-4.5997,-4.5997,-4.5997,-4.5997,-4.5997,-4.5997,-4.5997,-4.5997,-4.6027,-4.6052,-4.6063,-4.6064,-4.6092,-4.6163,-4.6195,-4.6203,-4.6196,-4.6196,-4.6196,-4.6196,-4.6196,-4.6196,-4.6196,-4.6196,-4.6196,-4.6196,-4.6196,-4.6196,-4.6196,-4.5767,-4.489,-4.489,-4.4442,-4.3598,-4.3598,-4.3598,-2.903,-2.9228,-2.9373,-2.9353,-2.9804,-3.0534,-3.1712,-3.2898,-3.3936,-3.4445,-3.4561,-3.4539,-3.4517,-3.4517,-3.4517,-3.4561,-3.4561,-3.4749,-3.5252,-3.6062,-3.6911,-3.7694,-3.8563,-3.9201,-3.9583,-3.9602,-3.9602,-3.9602,-3.9602,-3.9602,-3.9602,-3.9708,-3.9777,-3.9777,-4.0557,-4.0977,-4.0977,-4.1786,-4.2198,-4.2198,-4.2273,-4.2318,-4.2338,-4.2995,-4.3595,-4.4078,-4.4078,-4.4369,-4.4813,-4.4813,-4.4813,-4.4813,-4.4813,-4.4813,-4.4852,-4.52,-4.5316,-4.5374,-4.5731,-4.5827,-4.5814,-4.5847,-4.5827,-4.58,-4.58,-4.58,-4.58,-4.58,-4.5841,-4.5899,-4.5905,-4.5941,-4.5994,-4.5997,-4.5997,-4.5997,-4.5997,-4.5997,-4.5997,-4.5997,-4.5997,-4.5997,-4.5997,-4.5997,-4.6008,-4.6044,-4.6037,-4.605,-4.6133,-4.6175,-4.619,-4.6196,-4.6196,-4.6196,-4.6196,-4.6196,-4.6196,-4.6196,-4.6196,-4.6196,-4.6196,-4.6196,-4.604,-4.5689,-4.567,-4.5241,-4.4384,-4.4384,-4.4111,-4.3598,-4.3598,-4.3598,-2.9228,-2.9353,-2.9453,-2.9392,-2.9448,-2.9934,-3.1539,-3.3172,-3.4401,-3.4476,-3.4495,-3.4473,-3.4427,-3.4386,-3.4409,-3.4495,-3.4495,-3.4495,-3.4495,-3.5308,-3.6137,-3.6822,-3.7633,-3.8507,-3.9276,-3.9427,-3.9464,-3.9464,-3.9539,-3.9577,-3.9577,-3.9577,-3.9577,-3.9596,-3.9777,-3.9914,-3.9935,-4.0304,-4.0504,-4.0539,-4.072,-4.079,-4.0848,-4.2376,-4.3111,-4.3189,-4.3266,-4.3305,-4.3305,-4.3305,-4.3305,-4.3305,-4.3305,-4.3305,-4.3401,-4.4194,-4.4485,-4.4601,-4.5316,-4.5568,-4.5568,-4.5568,-4.5568,-4.5568,-4.5568,-4.5568,-4.5568,-4.5568,-4.5622,-4.5673,-4.5673,-4.572,-4.5763,-4.5763,-4.588,-4.5997,-4.5997,-4.5997,-4.5997,-4.5997,-4.5997,-4.5997,-4.5997,-4.5997,-4.5997,-4.5997,-4.6069,-4.6132,-4.6175,-4.6206,-4.6196,-4.6196,-4.6196,-4.6196,-4.6196,-4.6196,-4.6196,-4.6203,-4.6196,-4.6157,-4.6086,-4.6079,-4.5709,-4.491,-4.4812,-4.4345,-4.3481,-4.3481,-4.3442,-4.3364,-4.3364,-4.3364,-2.8887,-2.9071,-2.9265,-2.9243,-2.9789,-3.0618,-3.1648,-3.2676,-3.3598,-3.4278,-3.4427,-3.4427,-3.4386,-3.4386,-3.4409,-3.4495,-3.4473,-3.445,-3.4495,-3.5221,-3.5815,-3.6031,-3.6785,-3.7371,-3.7606,-3.8139,-3.849,-3.849,-3.9076,-3.9444,-3.9444,-3.9444,-3.9469,-3.952,-3.9708,-3.9916,-4.0139,-4.0372,-4.0583,-4.0733,-4.0778,-4.079,-4.081,-4.1158,-4.168,-4.2318,-4.2995,-4.3305,-4.3305,-4.3305,-4.3305,-4.3305,-4.3305,-4.3305,-4.3324,-4.3518,-4.3576,-4.3595,-4.3788,-4.3846,-4.3846,-4.3846,-4.3846,-4.3846,-4.3846,-4.3846,-4.3846,-4.3846,-4.3892,-4.3943,-4.3947,-4.3943,-4.3975,-4.4024,-4.5045,-4.5997,-4.5997,-4.5997,-4.5997,-4.5997,-4.5997,-4.5997,-4.5997,-4.5997,-4.5997,-4.5997,-4.6097,-4.6151,-4.6132,-4.6179,-4.6196,-4.6196,-4.6196,-4.6196,-4.6196,-4.6196,-4.6203,-4.6196,-4.6203,-4.5891,-4.5202,-4.5176,-4.5085,-4.489,-4.4228,-4.3448,-4.2591,-4.2591,-4.226,-4.1637,-4.1637,-4.1637,-2.9017,-2.9112,-2.9218,-2.9283,-2.9959,-3.082,-3.166,-3.2482,-3.3301,-3.4125,-3.4316,-3.434,-3.4316,-3.4293,-3.4316,-3.4386,-3.4363,-3.4363,-3.4386,-3.4778,-3.5226,-3.5637,-3.6115,-3.6531,-3.6972,-3.7336,-3.7579,-3.7579,-3.796,-3.8203,-3.8203,-3.8203,-3.8221,-3.8253,-3.8732,-3.9044,-3.9205,-3.9929,-4.0356,-4.0422,-4.0673,-4.079,-4.079,-4.079,-4.1023,-4.1448,-4.1912,-4.2106,-4.2106,-4.2106,-4.2106,-4.2106,-4.2106,-4.2106,-4.2144,-4.2531,-4.2686,-4.2744,-4.3169,-4.3305,-4.3305,-4.3305,-4.3305,-4.3305,-4.3305,-4.3305,-4.3305,-4.3299,-4.3356,-4.3412,-4.3397,-4.343,-4.3451,-4.3481,-4.4481,-4.5433,-4.5433,-4.5725,-4.5997,-4.5997,-4.5997,-4.5997,-4.5997,-4.5997,-4.6027,-4.6099,-4.6124,-4.6152,-4.6191,-4.6195,-4.6196,-4.6203,-4.6196,-4.6196,-4.6203,-4.6203,-4.6014,-4.561,-4.5579,-4.5189,-4.4312,-4.3916,-4.3689,-4.3663,-4.3215,-4.2572,-4.1734,-4.1734,-4.152,-4.111,-4.111,-4.111,-2.913,-2.9218,-2.9222,-2.9365,-2.9888,-3.0631,-3.1578,-3.2302,-3.3045,-3.3987,-3.4245,-3.4269,-3.4221,-3.4197,-3.4221,-3.4293,-3.4293,-3.4293,-3.4293,-3.434,-3.4619,-3.528,-3.5421,-3.5731,-3.6409,-3.6571,-3.6683,-3.6683,-3.6795,-3.6864,-3.6864,-3.6864,-3.687,-3.687,-3.7524,-3.7904,-3.7935,-3.9079,-3.9643,-3.9643,-4.0106,-4.041,-4.0565,-4.0546,-4.0655,-4.079,-4.079,-4.079,-4.079,-4.079,-4.079,-4.079,-4.079,-4.079,-4.0868,-4.1545,-4.1796,-4.1893,-4.2628,-4.2879,-4.2879,-4.2879,-4.2879,-4.2879,-4.286,-4.286,-4.2873,-4.2872,-4.2896,-4.2951,-4.2973,-4.3014,-4.3053,-4.3044,-4.3724,-4.4384,-4.454,-4.5103,-4.5569,-4.5569,-4.5569,-4.5569,-4.5569,-4.5686,-4.5833,-4.5936,-4.6039,-4.6148,-4.6261,-4.6225,-4.6195,-4.6206,-4.6195,-4.6137,-4.5991,-4.5972,-4.5621,-4.4743,-4.4679,-4.4278,-4.3434,-4.2746,-4.2292,-4.2104,-4.2085,-4.1773,-4.111,-4.111,-4.111,-4.111,-4.111,-4.111,-2.8858,-2.9021,-2.9222,-2.9365,-2.9439,-2.9879,-3.138,-3.1807,-3.2307,-3.3809,-3.4173,-3.4221,-3.4197,-3.4197,-3.4221,-3.4293,-3.4245,-3.4221,-3.4293,-3.4245,-3.4282,-3.446,-3.4484,-3.4563,-3.4722,-3.5347,-3.577,-3.577,-3.6373,-3.6712,-3.6712,-3.6712,-3.6738,-3.6814,-3.6926,-3.7093,-3.7313,-3.7659,-3.7925,-3.8098,-3.8353,-3.8859,-3.9592,-3.9599,-4.0031,-4.079,-4.079,-4.079,-4.079,-4.079,-4.079,-4.079,-4.079,-4.079,-4.081,-4.0906,-4.0965,-4.0984,-4.1081,-4.1119,-4.1119,-4.1119,-4.1119,-4.1132,-4.1137,-4.1137,-4.1129,-4.1125,-4.1136,-4.1167,-4.1227,-4.1237,-4.1247,-4.1247,-4.1917,-4.2753,-4.351,-4.3763,-4.384,-4.384,-4.384,-4.384,-4.384,-4.4462,-4.4968,-4.4988,-4.562,-4.6126,-4.6209,-4.6202,-4.6206,-4.6206,-4.6206,-4.5894,-4.5133,-4.5064,-4.4733,-4.3904,-4.3799,-4.3422,-4.2596,-4.2403,-4.1987,-4.1266,-4.1266,-4.1208,-4.111,-4.111,-4.111,-4.111,-4.111,-4.111,-2.8858,-2.9044,-2.9222,-2.9323,-2.9323,-2.9598,-3.0724,-3.1312,-3.1977,-3.3191,-3.3809,-3.4148,-3.4197,-3.4197,-3.4221,-3.4245,-3.4221,-3.4221,-3.4245,-3.4221,-3.4221,-3.4245,-3.4245,-3.4245,-3.4293,-3.4623,-3.4822,-3.4822,-3.5132,-3.5293,-3.5293,-3.5293,-3.5318,-3.5343,-3.5826,-3.6124,-3.6255,-3.7026,-3.7618,-3.7978,-3.8059,-3.8298,-3.8672,-3.8717,-3.9477,-4.0746,-4.079,-4.079,-4.079,-4.079,-4.079,-4.079,-4.079,-4.079,-4.079,-4.079,-4.079,-4.079,-4.079,-4.0803,-4.0796,-4.0803,-4.0803,-4.0796,-4.0788,-4.0808,-4.0808,-4.0846,-4.0837,-4.0818,-4.0878,-4.0908,-4.0888,-4.0907,-4.1199,-4.1587,-4.1956,-4.2811,-4.351,-4.351,-4.351,-4.351,-4.351,-4.3821,-4.4091,-4.4114,-4.4458,-4.472,-4.4798,-4.4793,-4.4797,-4.4801,-4.4797,-4.4636,-4.4265,-4.4222,-4.387,-4.3027,-4.2939,-4.2557,-4.1719,-4.1635,-4.1467,-4.111,-4.111,-4.111,-4.111,-4.111,-4.111,-4.111,-4.111,-4.111,-2.89,-2.8998,-2.9089,-2.924,-2.924,-2.94,-3.0212,-3.0882,-3.1602,-3.2643,-3.3352,-3.3883,-3.4111,-3.4173,-3.4173,-3.4173,-3.4173,-3.4173,-3.4197,-3.4197,-3.4197,-3.4173,-3.4173,-3.4173,-3.4173,-3.4173,-3.4173,-3.4197,-3.4197,-3.4197,-3.4197,-3.4197,-3.4197,-3.4197,-3.4829,-3.5163,-3.5163,-3.622,-3.6971,-3.7362,-3.7415,-3.7558,-3.7758,-3.7816,-3.8659,-4.0063,-4.012,-4.0249,-4.0462,-4.0462,-4.0597,-4.079,-4.079,-4.079,-4.079,-4.079,-4.079,-4.079,-4.079,-4.0803,-4.0808,-4.0803,-4.0803,-4.0808,-4.08,-4.0808,-4.0808,-4.0856,-4.0837,-4.0818,-4.0888,-4.0898,-4.0898,-4.0907,-4.0907,-4.0907,-4.0907,-4.1917,-4.285,-4.285,-4.285,-4.285,-4.285,-4.3025,-4.3186,-4.3263,-4.345,-4.3626,-4.3693,-4.3697,-4.3697,-4.3704,-4.3697,-4.3611,-4.3396,-4.3372,-4.2993,-4.2125,-4.2066,-4.1783,-4.1128,-4.1109,-4.1103,-4.111,-4.111,-4.111,-4.111,-4.111,-4.111,-4.111,-4.111,-4.111,-2.8761,-2.8718,-2.8725,-2.9112,-2.9067,-2.9177,-3.0167,-3.0479,-3.096,-3.241,-3.2835,-3.3167,-3.3876,-3.4074,-3.4099,-3.4099,-3.4099,-3.4124,-3.4197,-3.4197,-3.4173,-3.4124,-3.4099,-3.4099,-3.4099,-3.4099,-3.4124,-3.4197,-3.4197,-3.4197,-3.4197,-3.4197,-3.4197,-3.4197,-3.4234,-3.4271,-3.4271,-3.4764,-3.5133,-3.534,-3.5532,-3.6059,-3.687,-3.6871,-3.7411,-3.8324,-3.8342,-3.8798,-3.9584,-3.9584,-4.0036,-4.079,-4.079,-4.079,-4.079,-4.079,-4.079,-4.079,-4.079,-4.079,-4.0803,-4.079,-4.079,-4.0803,-4.0808,-4.08,-4.08,-4.0796,-4.0807,-4.0818,-4.0877,-4.0907,-4.0888,-4.0898,-4.0907,-4.0907,-4.0907,-4.0966,-4.1043,-4.1043,-4.1043,-4.1043,-4.1043,-4.1723,-4.2299,-4.237,-4.306,-4.3626,-4.3693,-4.3704,-4.3704,-4.3704,-4.3697,-4.3377,-4.2538,-4.2481,-4.2089,-4.1212,-4.1181,-4.1149,-4.1091,-4.1091,-4.111,-4.111,-4.111,-4.111,-4.111,-4.111,-4.111,-4.111,-4.111,-4.111,-2.8761,-2.8761,-2.8743,-2.8839,-2.8952,-2.9072,-2.9271,-2.9895,-3.0563,-3.1065,-3.2053,-3.2915,-3.3117,-3.3647,-3.4049,-3.4049,-3.4049,-3.4049,-3.4074,-3.4074,-3.4074,-3.4049,-3.4049,-3.4049,-3.4049,-3.4049,-3.4049,-3.4074,-3.4074,-3.4099,-3.4124,-3.4148,-3.4148,-3.4197,-3.4197,-3.4344,-3.4649,-3.4812,-3.507,-3.5388,-3.5463,-3.5695,-3.6042,-3.604,-3.6207,-3.6528,-3.652,-3.7344,-3.8663,-3.8663,-3.8856,-3.9185,-3.9746,-3.9971,-4.0017,-4.0578,-4.079,-4.079,-4.079,-4.0803,-4.0796,-4.0803,-4.0803,-4.0808,-4.0788,-4.08,-4.0812,-4.0856,-4.0848,-4.0877,-4.0888,-4.0888,-4.0898,-4.0907,-4.0907,-4.0907,-4.0907,-4.0907,-4.0907,-4.0907,-4.0907,-4.0907,-4.0907,-4.116,-4.1377,-4.1468,-4.1732,-4.1966,-4.2014,-4.2025,-4.2025,-4.2038,-4.2034,-4.1909,-4.1579,-4.1568,-4.1421,-4.1117,-4.1091,-4.111,-4.111,-4.111,-4.111,-4.111,-4.111,-4.111,-4.111,-4.111,-4.111,-4.111,-4.111,-4.111,-2.8761,-2.8712,-2.8687,-2.8737,-2.8815,-2.891,-2.8839,-2.9444,-3.0042,-3.0296,-3.1246,-3.2077,-3.2256,-3.276,-3.3345,-3.388,-3.3972,-3.3972,-3.3998,-3.3998,-3.3998,-3.3972,-3.3972,-3.3972,-3.3972,-3.3972,-3.3972,-3.3998,-3.3998,-3.4023,-3.4074,-3.4074,-3.4099,-3.4173,-3.4197,-3.439,-3.4811,-3.487,-3.507,-3.5397,-3.547,-3.5528,-3.5596,-3.5589,-3.5601,-3.5601,-3.5612,-3.6435,-3.7773,-3.7762,-3.7936,-3.8257,-3.8837,-3.905,-3.9127,-3.9707,-4.0113,-4.0346,-4.0346,-4.0551,-4.0796,-4.0796,-4.0796,-4.08,-4.0792,-4.0792,-4.0804,-4.0837,-4.0867,-4.0877,-4.0888,-4.0898,-4.0907,-4.0907,-4.0907,-4.0907,-4.0907,-4.0907,-4.0907,-4.0907,-4.0907,-4.0907,-4.0907,-4.0915,-4.094,-4.0984,-4.1019,-4.1053,-4.1097,-4.1108,-4.1101,-4.1094,-4.1105,-4.1096,-4.1095,-4.1089,-4.1103,-4.111,-4.111,-4.111,-4.111,-4.111,-4.111,-4.111,-4.111,-4.111,-4.111,-4.111,-4.111,-4.111,-4.111,-4.111,0.0,0.0,0.0,-2.8737,-2.8712,-2.87,-2.9021,-2.9175,-2.944,-3.0212,-3.0442,-3.0701,-3.136,-3.1477,-3.2017,-3.3582,-3.3858,-3.3884,-3.3961,-3.3979,-3.3972,-3.3895,-3.3895,-3.3895,-3.3895,-3.3895,-3.3921,-3.3998,-3.3998,-3.3998,-3.3998,-3.3998,-3.4023,-3.4099,-3.4173,-3.434,-3.4623,-3.4811,-3.5018,-3.5216,-3.5397,-3.554,-3.5601,-3.5601,-3.5601,-3.5612,-3.5673,-3.6149,-3.6864,-3.6849,-3.7363,-3.8141,-3.816,-3.816,-3.816,-3.8199,-3.874,-3.9468,-3.9468,-4.0017,-4.0725,-4.075,-4.0761,-4.0761,-4.0796,-4.0807,-4.0807,-4.0807,-4.0787,-4.0818,-4.0877,-4.0908,-4.0907,-4.0907,-4.0907,-4.0907,-4.0907,-4.0907,-4.0907,-4.0907,-4.0907,-4.0888,-4.0888,-4.0964,-4.0998,-4.1007,-4.1051,-4.1092,-4.1094,-4.1101,-4.1094,-4.1094,-4.1091,-4.1095,-4.1095,-4.1097,-4.111,-4.111,-4.111,-4.111,-4.111,-4.111,-4.111,-4.111,-4.111,-4.111,-4.111,-4.111,-4.111,-4.111,-4.111,-4.111,-2.8718,0.0,0.0,0.0,0.0,0.0,-2.9012,-2.9228,-2.9446,-2.9579,-3.012,-3.0602,-3.0688,-3.1186,-3.1697,-3.2109,-3.261,-3.297,-3.2978,-3.3493,-3.3842,-3.3815,-3.3834,-3.3834,-3.3834,-3.3834,-3.386,-3.3842,-3.386,-3.3868,-3.3921,-3.4023,-3.4099,-3.4173,-3.4363,-3.4586,-3.4812,-3.5019,-3.5223,-3.543,-3.547,-3.554,-3.5601,-3.5601,-3.5631,-3.5673,-3.5643,-3.5778,-3.6033,-3.6021,-3.6157,-3.6458,-3.7038,-3.727,-3.7348,-3.7967,-3.8353,-3.8566,-3.8566,-3.8721,-3.9011,-3.9646,-3.9851,-3.9968,-4.0602,-4.0818,-4.0877,-4.0877,-4.0868,-4.0888,-4.0898,-4.0898,-4.0907,-4.0907,-4.0907,-4.0907,-4.0907,-4.0907,-4.0907,-4.0907,-4.0941,-4.096,-4.096,-4.0978,-4.1026,-4.1071,-4.1094,-4.1108,-4.1104,-4.1109,-4.1096,-4.1106,-4.11,-4.1089,-4.1097,-4.1091,-4.111,-4.111,-4.111,-4.111,-4.111,-4.111,-4.111,-4.111,-4.111,-4.111,-4.111,-4.111,-4.111,-4.111,-4.111,-4.111,0.0,0.0,-2.885,-2.8827,0.0,0.0,-2.9075,-2.9246,-2.939,-2.9349,-2.9758,-3.0089,-2.9961,-3.0309,-3.0623,-3.0554,-3.1188,-3.1783,-3.2063,-3.2504,-3.2797,-3.2797,-3.2797,-3.2797,-3.2797,-3.2797,-3.2797,-3.2797,-3.2797,-3.297,-3.3345,-3.3839,-3.4099,-3.4074,-3.4427,-3.4689,-3.4851,-3.5089,-3.53,-3.5515,-3.5528,-3.5553,-3.5601,-3.5601,-3.5612,-3.5662,-3.5612,-3.5612,-3.5673,-3.5684,-3.5704,-3.5742,-3.6226,-3.64,-3.6458,-3.698,-3.7386,-3.7688,-3.7688,-3.7931,-3.8341,-3.8828,-3.8993,-3.9101,-3.9636,-3.982,-3.9927,-4.0296,-4.0645,-4.0907,-4.0907,-4.0907,-4.0907,-4.0907,-4.0907,-4.0907,-4.0907,-4.0926,-4.0935,-4.0907,-4.0937,-4.0994,-4.1,-4.1023,-4.1052,-4.1054,-4.1086,-4.1091,-4.1109,-4.1096,-4.1106,-4.1095,-4.1109,-4.1103,-4.111,-4.111,-4.111,-4.111,-4.111,-4.111,-4.111,-4.111,-4.111,-4.111,-4.111,-4.111,-4.111,-4.111,-4.111,-4.111,-4.111,-4.111,0.0,0.0,0.0,-2.9086,-2.9212,0.0,-2.9203,-2.9286,-2.937,-2.9433,-2.9451,-2.9429,-2.9347,-2.9326,-2.9304,-2.9222,-2.981,-3.0522,-3.1195,-3.1354,-3.1409,-3.1384,-3.1384,-3.1384,-3.1384,-3.1384,-3.1384,-3.1384,-3.1384,-3.1715,-3.243,-3.3326,-3.3783,-3.3792,-3.4255,-3.4595,-3.4812,-3.5089,-3.5315,-3.5502,-3.5547,-3.5584,-3.5589,-3.5601,-3.5601,-3.5601,-3.5612,-3.5612,-3.5612,-3.5673,-3.5704,-3.5704,-3.5704,-3.5704,-3.5704,-3.5704,-3.619,-3.6859,-3.6859,-3.7364,-3.8035,-3.8113,-3.8161,-3.819,-3.8354,-3.8402,-3.8557,-3.9334,-4.0072,-4.0616,-4.0616,-4.0694,-4.0771,-4.0771,-4.083,-4.0888,-4.0906,-4.096,-4.0976,-4.0913,-4.0967,-4.1017,-4.0994,-4.1069,-4.1089,-4.1027,-4.1062,-4.1091,-4.1091,-4.11,-4.1095,-4.1095,-4.1097,-4.111,-4.111,-4.111,-4.111,-4.111,-4.111,-4.111,-4.111,-4.111,-4.111,-4.111,-4.1085,-4.1085,-4.111,-4.111,-4.111,-4.111,-4.111,-4.111,-2.9495,-2.9476,-2.9437,-2.9533,-2.9589,0.0,-2.9735,-2.977,-2.9789,-2.9808,-2.979,-2.9755,-2.957,-2.9532,-2.9513,-2.9392,-2.946,-2.9746,-3.0438,-3.1072,-3.1452,-3.1427,-3.1384,-3.1384,-3.1384,-3.1384,-3.1384,-3.1384,-3.1384,-3.1483,-3.1704,-3.1894,-3.2354,-3.305,-3.3513,-3.4093,-3.487,-3.5258,-3.546,-3.5488,-3.5501,-3.5528,-3.5528,-3.5572,-3.5596,-3.5601,-3.5673,-3.5673,-3.5673,-3.5684,-3.5704,-3.5704,-3.5704,-3.5704,-3.5704,-3.5704,-3.5811,-3.5947,-3.5947,-3.6063,-3.6317,-3.7027,-3.725,-3.7395,-3.8179,-3.8402,-3.8441,-3.8615,-3.8771,-3.8887,-3.8887,-3.9412,-3.9936,-3.9936,-4.0422,-4.0915,-4.0981,-4.0987,-4.1006,-4.0984,-4.1038,-4.1068,-4.1016,-4.106,-4.109,-4.109,-4.1091,-4.11,-4.11,-4.1103,-4.1097,-4.1097,-4.1091,-4.111,-4.111,-4.111,-4.111,-4.111,-4.111,-4.111,-4.111,-4.111,-4.111,-4.111,-4.1045,-4.1038,-4.111,-4.111,-4.111,-4.111,-4.111,-4.111,-2.9832,-2.9784,-2.9697,-2.9732,-2.9822,0.0,0.0,-2.9857,-2.991,-2.9912,-2.9859,-2.9825,-2.9736,-2.9699,-2.9663,-2.9532,-2.9474,-2.9522,-2.9823,-3.0138,-3.0328,-3.0257,-3.0239,-3.0257,-3.021,-3.021,-3.021,-3.021,-3.0601,-3.0846,-3.0846,-3.1328,-3.1782,-3.2121,-3.2649,-3.3299,-3.4131,-3.4588,-3.5037,-3.5507,-3.5528,-3.5554,-3.556,-3.5584,-3.562,-3.5643,-3.5643,-3.5673,-3.5704,-3.5704,-3.5704,-3.5704,-3.5704,-3.5704,-3.5704,-3.5704,-3.5695,-3.5706,-3.5707,-3.5718,-3.5815,-3.626,-3.6405,-3.6483,-3.6956,-3.7411,-3.7741,-3.7741,-3.8052,-3.8402,-3.8402,-3.8712,-3.9043,-3.9043,-3.9369,-3.9777,-4.0259,-4.0389,-4.0538,-4.0975,-4.1074,-4.1072,-4.1011,-4.1065,-4.1091,-4.1106,-4.1095,-4.1103,-4.1103,-4.1097,-4.111,-4.111,-4.111,-4.111,-4.111,-4.111,-4.111,-4.111,-4.111,-4.1085,-4.1045,-4.1045,-4.1038,-4.0996,-4.0971,-4.0971,-4.0996,-4.0996,-4.1038,-4.111,-4.103,-4.1023,-3.0174,-3.009,-2.9969,-2.9883,-3.0,-3.0068,0.0,0.0,0.0,-2.9959,-2.9926,-2.9857,-2.9857,-2.9859,-2.9806,-2.9681,-2.9664,-2.9608,-2.9512,-2.9372,-2.9246,-2.9156,-2.9134,-2.9089,-2.9062,-2.904,-2.904,-2.9017,-2.9674,-3.0042,-2.9971,-3.0738,-3.1167,-3.1189,-3.1744,-3.2392,-3.3167,-3.3792,-3.4499,-3.5238,-3.5457,-3.5591,-3.5604,-3.5608,-3.5631,-3.5673,-3.5643,-3.5643,-3.5704,-3.5704,-3.5704,-3.5704,-3.5704,-3.5704,-3.5704,-3.5704,-3.5706,-3.5688,-3.5689,-3.5737,-3.5775,-3.5801,-3.5791,-3.5799,-3.5799,-3.6284,-3.6848,-3.6848,-3.7353,-3.7897,-3.7897,-3.8013,-3.8158,-3.8155,-3.8279,-3.8597,-3.9316,-3.951,-3.9803,-4.0677,-4.0845,-4.0899,-4.1001,-4.1058,-4.1106,-4.1095,-4.1097,-4.111,-4.111,-4.111,-4.111,-4.111,-4.111,-4.111,-4.111,-4.111,-4.111,-4.111,-4.111,-4.1071,-4.0996,-4.0988,-4.0963,-4.0907,-4.0898,-4.0898,-4.0907,-4.0888,-4.0945,-4.1064,-4.0943,-4.0926,-3.0292,-3.0266,-3.024,-3.0161,-3.0161,-3.018,-3.0157,0.0,-3.0171,-3.0166,0.0,-3.0142,-3.0079,0.0,0.0,-2.9888,-2.9876,-2.9861,-2.9861,-2.9663,-2.9494,-2.9293,-2.9225,-2.9218,-2.9259,-2.9218,-2.9156,-2.9089,-2.9181,-2.9214,-2.9145,-2.9237,-2.9651,-3.0396,-3.0842,-3.1505,-3.241,-3.354,-3.4186,-3.4366,-3.5149,-3.5528,-3.5604,-3.5608,-3.5601,-3.5612,-3.5673,-3.5684,-3.5704,-3.5704,-3.5704,-3.5704,-3.5704,-3.5704,-3.5704,-3.5704,-3.5706,-3.5707,-3.5688,-3.5708,-3.5718,-3.5775,-3.5801,-3.5799,-3.5799,-3.5877,-3.5954,-3.5954,-3.6032,-3.611,-3.611,-3.6673,-3.7253,-3.7248,-3.7845,-3.8429,-3.8593,-3.8632,-3.8902,-3.9784,-3.9955,-4.0184,-4.0955,-4.1081,-4.1095,-4.1097,-4.1091,-4.111,-4.111,-4.111,-4.111,-4.111,-4.111,-4.111,-4.111,-4.111,-4.111,-4.111,-4.111,-4.1071,-4.0996,-4.0935,-4.0917,-4.0907,-4.0839,-4.0839,-4.0907,-4.0834,-4.0846,-4.0926,-4.0917,-4.0888,-3.0311,-3.0305,-3.0292,-3.0266,-3.0266,-3.0266,-3.0253,-3.0272,-3.0253,-3.0266,0.0,0.0,0.0,0.0,0.0,0.0,-3.0019,-2.9972,-2.9959,-2.9823,-2.9664,-2.9492,-2.9372,-2.9307,-2.9302,-2.924,-2.9156,-2.9108,-2.9089,-2.9085,-2.9062,-2.9089,-2.93,-2.9654,-3.0039,-3.0691,-3.1577,-3.2297,-3.3173,-3.4206,-3.461,-3.5078,-3.5604,-3.5651,-3.5673,-3.5673,-3.5684,-3.5704,-3.5704,-3.5706,-3.5687,-3.5697,-3.5707,-3.5707,-3.5697,-3.5707,-3.5698,-3.5708,-3.5747,-3.5757,-3.5747,-3.5793,-3.581,-3.5799,-3.5799,-3.5799,-3.5799,-3.5799,-3.5799,-3.5799,-3.5799,-3.6071,-3.6359,-3.6378,-3.6679,-3.7106,-3.7636,-3.7745,-3.8001,-3.8883,-3.9448,-3.9921,-4.0281,-4.0764,-4.1095,-4.1103,-4.1097,-4.111,-4.111,-4.111,-4.111,-4.111,-4.111,-4.111,-4.111,-4.111,-4.111,-4.111,-4.103,-4.098,-4.0935,-4.0877,-4.0834,-4.0834,-4.0694,-4.0694,-4.0834,-4.0621,-4.0554,-4.0674,-4.0674,-4.0642,-3.0356,-3.0348,-3.0318,-3.0305,-3.0305,-3.0305,-3.0292,-3.0292,-3.0292,-3.0305,-3.0292,0.0,0.0,0.0,-3.0279,-3.0245,0.0,-3.009,-3.0079,-2.9956,-2.9823,-2.9701,-2.957,-2.9453,-2.939,-2.9328,-2.9243,-2.916,-2.9138,-2.9156,-2.9089,-2.9152,-2.9156,-2.9152,-2.9551,-3.0069,-3.0708,-3.1288,-3.225,-3.3564,-3.4056,-3.4639,-3.528,-3.5577,-3.5704,-3.5704,-3.5704,-3.5695,-3.5695,-3.5697,-3.5688,-3.5698,-3.5728,-3.5728,-3.5728,-3.5699,-3.5708,-3.5737,-3.5775,-3.5803,-3.5793,-3.581,-3.5799,-3.5799,-3.5799,-3.5799,-3.5799,-3.5799,-3.5799,-3.5799,-3.5799,-3.5799,-3.5823,-3.588,-3.5907,-3.607,-3.6713,-3.6846,-3.7093,-3.7966,-3.8649,-3.9248,-3.9725,-4.053,-4.1095,-4.1109,-4.1097,-4.111,-4.111,-4.111,-4.111,-4.111,-4.111,-4.111,-4.111,-4.111,-4.111,-4.111,-4.0988,-4.0917,-4.0907,-4.0834,-4.0764,-4.0713,-4.0574,-4.0574,-4.0713,-4.0434,-4.0351,-4.0446,-4.0446,-4.0431,-3.0492,-3.0449,-3.0379,-3.0316,-3.0304,-3.0292,-3.0292,-3.0292,-3.0305,-3.0292,-3.0299,-3.0305,-3.0304,-3.0299,-3.0312,-3.0312,-3.0279,0.0,0.0,-3.0166,-3.0049,-2.9924,-2.977,-2.9662,-2.9608,-2.9532,-2.9453,-2.9293,-2.9293,-2.9228,-2.9112,-2.9089,-2.9067,-2.9017,-2.9395,-2.9662,-2.9751,-3.0977,-3.1693,-3.1888,-3.3508,-3.4353,-3.4466,-3.5317,-3.5704,-3.5704,-3.5704,-3.5706,-3.5707,-3.5707,-3.5698,-3.5708,-3.5775,-3.5803,-3.5794,-3.5718,-3.5737,-3.5803,-3.5803,-3.5793,-3.5791,-3.5799,-3.5799,-3.5799,-3.5799,-3.5799,-3.5799,-3.5799,-3.5799,-3.5799,-3.5799,-3.5799,-3.5826,-3.5871,-3.5906,-3.5917,-3.5935,-3.5929,-3.6197,-3.7063,-3.7253,-3.7818,-3.9513,-4.0518,-4.1089,-4.1091,-4.111,-4.111,-4.111,-4.111,-4.111,-4.111,-4.111,-4.111,-4.111,-4.111,-4.111,-4.111,-4.1038,-4.0971,-4.0907,-4.0839,-4.0718,-4.0511,-4.0511,-4.0511,-4.0511,-4.0367,-4.03,-4.0317,-4.0317,-4.0317,-3.0576,-3.0552,-3.0509,-3.0452,-3.0432,-3.0422,-3.0383,-3.0367,-3.0367,-3.0383,-3.0371,-3.0359,-3.0379,-3.0359,-3.0359,-3.0374,-3.0343,-3.0311,0.0,-3.0215,-3.0147,-3.0104,-2.994,-2.9789,-2.9681,-2.9608,-2.9492,-2.9314,-2.931,-2.9283,-2.9218,-2.9218,-2.9286,-2.9395,-2.9662,-2.9851,-2.9973,-3.0515,-3.1121,-3.175,-3.2351,-3.3241,-3.4348,-3.4698,-3.5143,-3.5704,-3.5706,-3.5697,-3.5688,-3.5747,-3.5766,-3.5775,-3.5793,-3.5801,-3.5801,-3.5773,-3.5773,-3.5801,-3.5801,-3.581,-3.5799,-3.5799,-3.5799,-3.5799,-3.5799,-3.5799,-3.5799,-3.585,-3.5857,-3.5864,-3.5872,-3.5878,-3.586,-3.589,-3.5898,-3.5893,-3.5903,-3.5904,-3.5992,-3.6279,-3.6805,-3.7389,-3.7974,-3.9285,-4.0435,-4.1013,-4.111,-4.111,-4.111,-4.111,-4.111,-4.111,-4.111,-4.1078,-4.1038,-4.0988,-4.0971,-4.0971,-4.0888,-4.0859,-4.0839,-4.0804,-4.0707,-4.0492,-4.0415,-4.0367,-4.0367,-4.0158,-4.0081,-4.0177,-4.008,-4.004,-3.071,-3.0614,-3.0586,-3.0543,-3.0535,-3.0509,-3.0442,-3.0449,-3.0439,-3.0441,-3.0428,-3.0417,-3.0462,-3.0419,-3.0406,-3.0428,-3.0383,-3.0336,0.0,-3.0267,-3.0228,-3.0188,-3.0049,-2.9926,-2.9787,-2.97,-2.9589,-2.9394,-2.937,-2.9347,-2.9302,-2.9302,-2.9349,-2.9435,-2.9697,-2.9883,-2.9988,-3.0241,-3.066,-3.1245,-3.1626,-3.2373,-3.3429,-3.4088,-3.4698,-3.524,-3.557,-3.5707,-3.5708,-3.5757,-3.5775,-3.5793,-3.581,-3.5799,-3.5799,-3.5799,-3.5826,-3.5842,-3.5842,-3.585,-3.5845,-3.5846,-3.5846,-3.5833,-3.5833,-3.5839,-3.5903,-3.6255,-3.6143,-3.5973,-3.6278,-3.6121,-3.5903,-3.5898,-3.5894,-3.5899,-3.5895,-3.5894,-3.5908,-3.5908,-3.6356,-3.6844,-3.7155,-3.8129,-3.9279,-4.0467,-4.0896,-4.111,-4.111,-4.111,-4.111,-4.111,-4.111,-4.1078,-4.1015,-4.0935,-4.0907,-4.0907,-4.0809,-4.0746,-4.0742,-4.0732,-4.0761,-4.0811,-4.0471,-4.0436,-4.069,-4.0152,-3.9977,-4.0101,-3.9956,-3.9889]}]]